GFSSE_sfc_thetae_015.txt.gz
Theta_e
341 344 348 349 349 348 348 347 347 346 347 345 345 344 344 343 342 342 342 344 344 342 342 342 342 341 341 340 340 339 340 339 340 340 340 340 340 340 342 345 342 340 345
343 344 346 348 348 349 349 348 347 348 347 345 345 344 342 341 340 341 341 340 340 339 339 339 339 339 339 338 338 338 338 338 338 339 339 338 339 341 340 341 342 342 344
342 344 346 347 348 349 349 348 349 347 347 345 344 343 341 340 340 339 338 337 337 337 337 337 337 337 337 337 336 336 336 336 336 336 336 331 335 337 336 340 342 342 343
342 343 345 347 348 348 348 348 348 347 346 345 343 341 340 339 338 336 336 336 335 334 334 333 333 333 332 332 332 332 333 333 334 333 327 331 334 336 335 335 335 341 342
340 343 345 345 347 348 348 348 347 347 346 344 342 340 339 337 336 334 333 333 333 332 331 331 330 330 329 330 330 329 330 331 331 325 325 328 327 333 335 336 337 339 341
339 341 342 343 345 347 347 347 347 345 343 343 341 339 338 336 334 333 332 331 330 330 329 328 328 327 327 328 328 327 328 328 327 319 323 328 329 335 337 336 336 338 340
341 342 342 341 344 345 346 345 345 343 342 342 341 339 336 335 333 332 331 330 329 328 327 327 327 326 326 327 327 328 328 329 320 318 322 325 325 334 336 332 336 338 338
341 343 343 343 343 343 344 343 342 341 341 341 340 338 336 335 334 332 330 329 328 327 327 327 327 327 327 328 328 328 327 328 318 316 326 326 329 336 336 332 336 337 337
340 340 338 339 340 339 338 338 337 338 338 339 338 337 336 335 334 333 331 329 327 326 327 327 328 327 328 328 328 328 326 327 314 316 321 324 332 336 336 337 337 338 337
332 332 330 331 331 330 331 335 336 336 336 337 336 335 332 332 333 333 332 331 330 328 328 329 328 328 328 328 328 327 326 322 313 312 320 321 332 335 335 334 335 335 336
328 326 326 327 327 327 328 332 335 335 334 334 334 333 329 326 325 327 330 330 331 329 329 330 330 329 328 326 327 325 321 312 310 309 313 322 329 332 331 330 332 333 334
322 324 325 326 326 326 331 329 328 330 329 328 328 328 327 325 324 326 328 329 330 330 330 330 330 330 328 319 318 320 310 309 307 308 308 321 328 330 328 328 330 329 331
322 324 324 323 324 324 325 326 325 326 326 327 327 326 325 326 324 324 322 321 320 324 320 322 320 320 318 317 317 315 311 308 306 307 309 320 324 325 325 326 328 326 329
321 322 324 324 322 322 322 323 323 325 325 326 326 325 321 318 316 318 318 314 313 312 312 313 312 312 310 312 314 314 311 308 306 307 308 318 322 325 325 325 325 327 328
322 323 324 325 321 321 322 322 323 323 325 325 324 323 319 316 314 314 312 313 312 312 312 311 311 311 311 312 312 311 311 309 307 306 307 315 318 321 325 325 326 326 327
323 323 323 322 321 321 321 322 321 321 322 323 321 319 319 316 314 313 312 312 310 311 311 310 310 309 309 309 309 309 309 310 308 307 306 306 315 318 321 324 325 326 327
324 324 323 323 322 321 321 321 320 317 319 319 316 316 316 315 313 312 309 307 308 309 308 308 307 306 305 306 305 307 308 307 308 308 307 307 307 312 316 319 321 323 326
323 322 324 328 322 322 321 321 318 313 312 312 313 313 313 313 310 307 306 305 306 307 306 305 305 302 302 302 302 302 303 305 305 306 306 306 305 306 308 313 314 316 319
323 322 322 324 323 320 321 319 315 311 310 310 310 309 309 309 309 306 305 305 306 304 303 303 301 301 300 300 301 300 300 300 302 305 303 304 305 304 305 306 308 310 313
320 321 322 322 322 318 317 313 312 308 308 307 307 307 308 308 309 306 306 304 304 302 300 299 299 299 299 299 302 300 298 300 299 298 299 302 301 302 300 300 301 303 308
315 317 319 317 317 313 310 309 309 308 308 308 309 310 307 307 305 302 302 302 301 299 298 298 298 298 298 298 296 297 297 297 297 296 296 297 297 299 297 298 300 301 301
313 312 310 310 309 309 310 310 311 308 307 310 309 304 303 302 302 301 299 299 299 299 298 297 297 296 297 297 295 293 290 294 294 296 294 295 293 294 296 296 299 297 297
306 305 306 305 306 308 310 308 307 308 307 305 303 300 300 301 300 300 299 298 298 298 296 296 296 295 294 295 295 293 289 287 289 293 293 292 291 291 292 294 296 295 296
302 303 303 305 305 305 305 304 304 303 303 302 300 297 298 299 299 300 299 298 297 296 295 296 296 293 292 291 293 296 292 293 290 287 289 291 291 291 291 291 292 294 296
302 302 302 304 305 304 304 304 303 301 301 299 297 296 298 299 300 298 299 298 297 295 294 293 292 292 292 291 293 293 293 292 290 288 286 285 289 290 290 291 291 291 294
301 301 302 303 303 302 301 300 299 298 297 296 297 298 300 298 297 300 298 295 295 294 292 292 291 290 290 291 292 293 291 290 289 288 288 287 287 290 289 290 289 291 292

GFSSE_sfc_thetae_018.txt.gz
Theta_e
340 343 348 349 349 348 347 346 346 346 347 345 345 343 342 342 341 342 342 343 341 341 341 341 341 340 340 340 339 339 338 338 338 339 340 341 341 342 342 344 344 341 345
342 345 346 348 349 348 348 347 347 347 347 345 344 342 341 341 341 339 339 340 338 338 339 338 338 338 338 337 337 337 336 336 336 336 338 337 342 341 340 341 342 340 342
341 344 345 346 348 348 348 348 348 346 346 344 343 341 340 339 338 337 337 338 336 335 335 334 333 333 333 332 331 331 332 334 334 334 334 332 334 340 339 339 340 341 341
342 342 344 346 347 348 348 348 348 346 345 344 341 340 339 337 335 335 335 337 335 333 332 331 331 330 329 329 328 328 329 330 330 330 326 329 330 336 339 339 339 341 341
340 342 344 345 346 347 347 347 347 346 345 343 340 339 337 335 334 334 333 335 332 330 330 329 328 327 327 328 328 328 328 329 327 323 323 328 329 333 338 337 337 338 339
338 340 341 343 345 347 347 347 346 345 343 342 341 338 336 334 332 332 332 332 330 330 330 330 328 327 327 329 329 328 328 328 322 320 323 326 327 336 339 337 337 337 338
339 339 341 341 344 346 347 346 345 343 342 341 340 339 335 333 332 331 331 330 329 329 330 330 329 328 329 330 329 328 328 328 317 317 325 326 325 337 339 337 335 337 337
340 341 340 342 343 343 344 344 342 341 341 340 339 338 335 334 333 331 330 330 329 329 329 329 329 329 330 330 330 328 327 325 317 316 320 324 331 336 335 336 338 336 336
341 340 341 339 341 340 339 339 338 339 339 338 338 337 336 334 333 333 332 330 329 330 331 331 330 330 330 330 330 327 326 324 312 314 320 321 331 334 335 335 333 335 336
338 337 336 336 334 332 333 336 336 336 336 336 336 335 333 332 332 332 330 331 330 330 330 330 331 331 330 329 328 327 323 318 310 310 314 315 327 331 333 332 331 331 332
332 331 328 328 327 327 327 332 335 335 335 334 334 333 328 324 325 326 330 330 331 331 331 331 331 330 330 326 325 327 320 309 308 308 309 317 325 329 330 330 332 331 330
326 325 324 324 324 324 330 327 326 329 328 328 328 327 325 324 323 325 327 329 330 329 328 328 327 327 322 318 317 320 314 311 308 307 308 317 323 325 326 329 331 330 330
323 324 324 324 323 323 324 324 323 325 325 325 325 325 324 324 323 323 321 319 318 320 315 318 316 315 313 313 314 315 314 312 309 308 309 319 321 324 326 327 330 330 329
319 322 323 322 322 322 322 323 322 323 324 324 325 325 322 319 318 318 315 311 311 311 312 311 311 311 311 312 312 311 311 310 309 308 308 317 319 322 325 326 327 330 331
317 319 321 322 320 321 321 321 321 322 324 324 324 322 319 314 313 312 311 311 311 311 310 309 310 309 308 308 308 308 309 309 309 308 307 314 316 319 322 325 326 326 327
320 320 322 322 320 320 320 322 320 321 321 323 320 317 317 314 312 312 309 308 308 308 308 308 307 306 305 305 304 306 306 306 307 308 308 307 313 315 317 319 321 323 324
320 322 322 322 321 320 319 319 319 320 320 317 314 315 315 314 311 307 305 305 306 306 305 305 305 303 302 303 302 303 303 304 304 305 306 306 306 310 312 313 314 316 318
321 322 324 323 320 320 319 320 321 316 313 315 312 312 310 309 307 305 305 304 305 305 305 302 302 300 300 300 300 300 300 301 302 304 304 304 304 304 304 307 308 309 311
321 322 322 321 321 321 321 320 315 312 309 307 307 309 309 308 308 306 306 306 306 303 300 300 299 299 298 298 300 300 299 298 300 302 302 301 302 301 299 302 304 305 307
321 322 322 321 321 319 317 313 309 310 308 310 311 309 306 307 308 306 305 303 300 299 298 298 297 298 298 298 300 300 298 298 299 298 299 300 299 299 298 299 298 301 302
317 321 321 319 319 317 309 308 307 307 310 308 304 305 306 304 301 300 299 299 299 297 297 297 297 297 297 297 295 296 296 296 297 296 297 297 296 297 297 297 296 299 296
315 316 315 316 312 309 309 308 309 307 305 306 303 301 301 300 300 300 298 297 297 297 296 296 296 295 295 296 294 293 289 292 295 296 296 295 294 294 295 296 296 297 296
304 305 306 306 306 308 309 305 304 304 304 302 299 297 298 299 299 298 297 297 296 296 296 295 294 293 292 293 293 292 288 286 290 293 293 293 292 292 293 294 294 295 295
300 301 302 303 303 304 303 303 302 301 300 299 296 296 296 298 298 298 299 297 297 296 294 295 294 292 291 289 291 295 292 292 288 286 290 293 291 292 292 292 293 293 295
300 300 302 303 303 302 302 302 300 298 297 296 295 296 296 297 300 300 298 296 295 294 293 292 290 290 290 289 290 290 290 290 290 289 284 288 291 292 292 292 292 292 293
302 303 302 300 299 299 299 299 298 296 296 295 295 296 297 296 296 296 296 294 293 292 291 291 290 289 288 289 289 289 288 287 286 286 284 285 286 289 289 291 291 291 292

GFSSE_sfc_thetae_024.txt.gz
Theta_e
343 345 348 348 349 348 347 347 347 347 348 346 345 344 344 343 342 343 343 342 341 339 339 337 336 334 333 333 333 334 335 335 336 338 340 342 343 343 341 340 342 339 342
346 344 345 347 348 348 347 348 347 347 347 344 343 343 342 341 341 342 342 341 337 335 334 333 332 330 330 330 330 330 332 333 334 336 337 341 341 342 341 341 343 341 342
345 344 344 346 347 347 348 348 348 346 344 343 342 340 339 339 338 338 339 339 335 333 331 330 330 331 332 331 331 332 333 334 334 334 338 336 338 341 340 338 339 340 340
345 345 344 345 346 347 348 348 347 345 343 341 340 338 338 337 336 336 335 336 335 331 330 330 331 331 331 331 331 332 332 332 334 336 336 336 336 339 338 338 337 338 339
346 345 345 344 345 347 347 347 347 346 344 343 341 337 336 335 334 334 335 336 334 332 331 331 330 330 330 330 330 330 330 329 332 335 334 335 335 337 339 338 339 338 338
345 345 342 343 345 346 347 347 346 345 343 342 340 337 334 333 332 333 336 336 333 332 332 332 332 331 330 331 329 329 327 329 330 328 330 333 335 337 337 334 335 336 338
343 345 345 341 342 344 346 346 345 343 342 342 340 337 335 332 332 333 335 336 334 333 332 332 332 332 331 331 328 327 327 326 321 322 324 327 333 335 335 334 333 333 335
343 345 345 342 341 341 345 344 342 342 341 341 339 337 334 333 334 332 332 332 332 332 332 332 332 332 332 331 329 326 325 325 322 321 321 323 331 331 332 332 333 333 331
345 344 344 343 342 341 340 339 339 339 340 339 338 337 335 335 335 334 332 332 332 332 332 332 332 332 331 330 329 327 322 322 324 323 320 321 327 330 330 329 329 330 329
343 344 345 345 344 344 344 338 338 337 337 337 336 334 333 333 333 331 333 333 332 332 332 332 332 330 328 328 328 327 325 324 325 324 323 323 325 328 328 329 328 329 329
340 341 342 342 342 343 341 340 336 336 336 335 334 333 330 336 335 333 330 331 331 330 330 330 329 326 326 327 327 326 327 323 324 323 323 323 325 328 328 328 332 330 329
335 337 338 342 342 341 335 336 334 332 334 337 336 336 338 339 338 334 332 328 326 325 326 325 324 325 326 324 323 326 322 323 322 322 323 322 324 327 328 328 328 329 332
335 335 337 340 340 335 333 332 331 333 337 338 339 340 340 340 341 339 334 331 333 325 330 328 328 324 324 323 321 322 321 320 320 320 320 319 321 324 326 328 328 328 328
336 335 336 336 335 334 331 330 332 335 338 339 339 340 341 338 340 338 331 332 332 330 329 327 325 324 322 320 319 319 318 317 316 316 317 317 319 322 324 325 325 325 325
330 331 332 332 332 332 332 333 335 336 336 337 338 338 336 334 335 332 332 330 328 327 325 324 323 321 319 318 318 316 315 315 315 314 314 316 316 316 318 320 320 319 319
327 330 331 330 331 333 334 335 335 333 331 330 332 331 330 329 331 331 329 327 326 324 323 321 319 317 316 316 315 315 314 314 314 314 314 315 311 310 312 313 314 314 314
327 331 332 332 333 333 333 332 330 328 326 326 328 328 326 326 326 327 325 325 323 322 320 318 317 316 315 314 313 313 313 314 313 313 313 314 314 309 308 308 309 310 310
328 332 333 331 330 333 331 329 326 325 326 324 325 323 320 320 322 323 320 318 318 316 315 314 314 312 312 312 312 312 311 313 312 312 313 314 313 312 310 307 306 306 306
332 332 332 333 330 327 324 326 327 322 320 318 319 319 317 317 318 317 316 316 316 314 313 312 312 312 311 311 310 309 309 309 308 306 310 312 311 310 309 310 307 307 305
333 333 331 330 327 327 325 326 319 317 316 319 318 317 317 317 316 317 316 314 314 313 313 313 312 311 309 308 305 303 305 305 306 307 309 308 308 308 308 307 307 306 306
331 329 330 328 330 329 326 322 319 318 318 316 316 315 315 314 314 314 314 314 314 312 311 310 308 307 305 306 303 302 302 304 307 307 307 306 306 306 306 305 305 304 304
326 328 329 330 331 329 325 323 322 321 320 317 315 315 314 313 313 312 312 311 311 308 308 308 307 305 304 304 300 298 295 298 301 303 302 303 303 303 303 303 303 303 303
326 329 330 329 328 323 323 323 322 320 316 315 315 315 313 313 312 311 310 309 308 307 305 307 305 303 300 300 300 297 293 292 295 298 300 299 301 300 300 300 301 300 301
327 329 325 322 321 321 320 318 317 317 315 314 314 313 313 312 310 308 309 309 309 307 306 305 302 302 300 297 298 298 298 296 291 290 296 297 298 297 298 297 299 298 299
324 322 320 319 317 318 318 318 315 313 312 311 312 309 310 310 310 309 309 309 309 307 305 303 301 300 299 297 297 295 295 295 294 291 287 291 294 295 296 296 296 296 297
318 318 317 316 315 315 315 313 312 309 307 307 307 306 306 307 307 308 308 308 308 306 303 302 302 301 299 298 296 295 293 291 290 290 288 289 289 292 294 295 295 295 296

GFSSE_sfc_thetae_027.txt.gz
Theta_e
339 342 347 348 348 348 347 347 347 347 347 345 345 344 343 342 342 343 343 342 340 336 335 333 332 331 331 331 331 332 334 335 337 337 342 343 343 343 341 340 342 339 343
342 342 346 347 348 347 347 347 348 347 346 344 343 342 342 342 342 341 340 339 336 333 332 331 331 332 332 333 334 334 335 335 335 336 339 342 342 341 339 338 342 340 342
342 341 343 346 347 347 347 347 347 345 344 343 341 339 340 339 338 337 338 338 334 332 331 333 333 332 332 333 334 333 334 335 334 337 341 337 337 340 340 339 341 339 340
342 340 341 345 347 348 348 347 347 344 342 340 339 339 338 337 336 334 335 337 335 331 332 331 331 331 332 332 332 332 332 332 335 338 332 333 333 339 337 339 339 337 338
341 340 342 344 345 347 346 346 346 344 343 341 339 337 336 335 334 333 335 337 336 332 332 331 330 329 329 330 330 329 329 332 333 330 331 332 332 336 335 334 334 338 337
344 343 341 343 344 345 345 346 345 344 342 341 339 337 334 333 334 334 337 337 334 333 333 332 332 331 330 331 329 328 330 331 329 324 327 332 333 336 335 333 333 333 337
341 343 342 339 341 343 345 344 343 343 342 341 339 337 334 333 333 334 336 335 333 333 332 332 332 332 332 331 329 328 328 329 323 321 323 325 330 333 332 332 331 331 331
341 341 342 341 341 342 344 343 341 341 341 340 338 336 333 333 334 333 333 333 333 333 332 332 333 332 331 331 330 328 326 328 325 322 321 323 331 332 330 330 330 332 331
338 340 341 341 341 340 339 339 339 340 339 339 338 336 335 335 335 333 332 332 332 333 333 333 332 331 329 329 329 328 327 328 325 324 323 323 328 330 330 329 329 329 329
336 341 341 342 342 342 341 337 337 337 337 337 335 334 334 334 333 333 334 333 332 332 332 332 331 329 327 329 329 327 329 329 323 323 325 325 328 330 330 329 329 329 330
339 340 340 339 340 340 338 337 336 337 336 335 333 332 330 333 333 333 331 331 329 327 329 328 327 327 328 328 328 327 327 322 322 321 324 325 326 328 330 329 329 329 331
336 338 339 340 341 339 333 333 331 331 333 334 334 334 335 336 336 332 331 329 325 325 327 326 326 328 327 324 324 327 322 322 320 320 321 323 323 325 327 328 329 329 330
336 337 337 339 338 335 333 330 329 331 334 336 338 338 338 337 337 335 333 329 331 327 329 327 326 325 325 323 322 322 320 320 318 318 318 320 319 321 325 326 326 326 326
334 336 337 336 335 333 329 328 330 333 335 337 339 339 337 335 337 334 329 328 329 328 327 326 325 325 324 322 321 320 319 317 317 316 316 320 318 317 319 321 322 322 321
330 331 332 333 332 330 331 332 335 336 339 338 338 338 337 334 335 331 331 328 327 326 326 325 324 323 321 320 319 318 317 317 317 316 315 317 316 315 315 316 317 317 317
329 329 331 329 330 332 334 335 336 334 332 331 332 333 335 331 333 328 326 323 326 325 325 323 321 319 318 318 316 317 315 315 315 316 314 315 314 314 313 312 312 313 314
328 330 330 331 334 335 333 332 331 330 327 327 329 331 331 328 328 324 322 323 324 321 321 320 319 317 315 315 314 314 314 314 313 314 313 312 314 312 311 309 309 309 309
330 330 332 331 333 334 330 326 325 326 328 327 327 326 322 321 321 322 320 318 318 318 317 316 315 314 314 313 313 313 312 310 310 311 309 310 312 312 310 308 306 307 307
331 333 332 332 332 328 326 326 327 328 326 321 320 321 319 319 320 319 318 318 318 316 316 315 315 314 312 311 309 308 308 306 307 306 307 308 312 310 309 311 311 310 305
332 334 332 331 330 329 329 326 327 322 321 321 320 319 320 320 319 320 318 317 317 315 315 314 313 311 309 307 304 304 307 305 306 306 308 309 309 308 308 307 306 305 309
332 331 332 330 329 330 328 325 324 321 321 321 321 319 319 318 317 317 317 316 315 313 312 312 310 307 305 306 303 302 302 305 306 305 306 306 305 305 305 305 304 303 304
330 330 331 329 330 331 328 328 326 323 322 320 319 318 317 316 315 314 314 313 312 309 308 307 307 304 304 304 299 298 294 297 301 303 302 302 303 302 302 302 301 301 301
326 328 329 329 330 329 326 324 324 323 319 317 317 317 315 315 313 312 311 310 309 308 306 306 306 304 300 302 303 298 292 291 294 298 299 299 302 300 301 300 300 299 300
327 329 329 328 327 324 324 322 320 317 315 317 317 316 315 313 311 310 309 309 309 308 307 306 305 303 302 298 300 300 299 296 291 289 295 296 298 297 300 298 298 298 298
327 327 328 325 322 322 321 321 320 317 316 315 314 310 310 311 310 309 309 309 308 307 307 305 304 303 302 299 297 297 296 295 295 291 288 290 294 295 297 297 297 297 297
327 324 323 320 319 320 319 318 316 313 309 308 307 306 307 307 307 306 305 305 305 305 305 304 304 303 301 299 299 296 294 292 291 290 288 289 290 293 294 296 297 297 297

GFSSE_sfc_thetae_030.txt.gz
Theta_e
335 342 347 349 349 348 347 347 347 347 347 347 346 345 344 344 343 342 341 340 339 334 333 333 334 333 334 335 335 336 336 336 337 343 343 343 342 341 339 341 342 338 344
337 341 346 347 348 347 348 347 347 347 346 343 343 344 343 342 342 341 340 338 336 333 335 335 334 334 336 336 335 336 337 338 338 340 342 342 341 342 340 341 342 339 343
337 341 343 346 347 347 348 348 347 346 343 341 342 342 341 340 339 339 338 337 337 334 334 333 333 333 334 333 333 333 334 336 337 339 340 335 333 338 339 341 340 341 343
339 339 342 346 346 347 347 347 345 344 341 342 341 340 339 337 335 336 338 337 336 332 331 331 331 330 329 329 330 331 333 334 334 335 329 331 331 336 334 334 336 338 340
337 339 343 344 345 346 346 345 344 342 341 340 339 337 335 335 336 336 337 337 337 333 333 332 331 330 329 331 331 332 332 332 332 330 327 329 330 334 335 332 330 334 338
338 341 342 341 342 344 346 345 344 342 339 339 338 338 335 336 336 336 338 337 335 334 333 333 332 332 334 333 332 331 331 331 331 321 322 328 328 334 333 331 334 333 335
338 340 341 338 340 344 344 344 342 341 339 338 337 337 336 335 335 336 337 336 334 334 334 333 333 333 333 333 332 331 330 330 324 318 320 325 328 333 331 330 330 331 332
338 338 339 340 341 342 342 341 340 339 338 337 336 336 335 335 336 336 336 336 335 334 333 333 332 332 332 331 331 330 329 330 323 319 320 323 332 332 331 330 333 333 333
338 336 337 338 340 339 338 338 338 338 337 337 336 336 336 335 335 336 336 335 335 334 334 333 332 330 330 330 329 329 328 329 321 321 322 323 331 331 331 330 332 333 332
331 335 336 337 339 337 335 336 336 336 335 334 334 334 333 333 333 334 334 334 333 332 332 331 331 329 330 328 328 326 327 327 316 318 320 323 331 330 331 331 330 331 334
330 332 335 336 337 335 334 335 336 336 334 333 332 333 330 330 329 332 332 332 330 330 331 331 329 327 330 329 329 329 327 317 316 316 317 327 327 327 328 329 330 331 331
324 331 334 336 337 334 329 331 331 331 329 329 329 329 331 334 331 331 330 330 328 328 329 329 328 328 328 320 319 323 316 316 314 314 315 324 323 322 324 327 327 328 328
330 332 334 334 335 329 329 329 329 330 333 333 335 336 335 336 334 330 331 325 325 326 327 323 325 322 321 320 318 317 316 314 312 312 316 321 320 319 319 322 323 323 323
332 332 334 333 333 329 329 327 328 332 332 336 336 335 334 333 332 330 327 326 326 324 324 323 323 322 320 319 317 316 315 313 312 312 314 320 319 316 316 317 318 319 318
329 332 330 331 330 329 331 333 333 334 335 336 335 333 334 331 330 330 327 323 322 323 322 320 319 318 315 314 315 314 313 312 312 312 311 318 318 315 315 316 316 316 315
327 328 329 329 330 331 333 333 332 331 330 330 329 331 332 329 328 326 323 321 322 318 317 316 314 313 313 314 312 313 313 312 310 309 309 310 316 317 314 313 312 312 311
326 327 327 327 330 332 331 329 328 327 327 327 328 329 329 325 324 322 321 317 316 316 314 313 313 313 312 312 311 311 310 308 305 305 307 306 308 315 314 311 309 309 310
326 327 328 329 332 330 327 327 324 325 327 325 324 321 321 321 321 317 317 316 316 316 314 312 312 311 309 309 307 306 305 304 303 304 303 304 303 308 311 311 308 308 308
328 329 330 332 329 327 327 327 327 327 322 321 320 319 319 319 319 318 317 316 315 314 313 313 310 309 306 304 303 300 302 301 302 303 302 304 306 307 306 312 312 311 306
330 330 330 332 330 328 327 327 326 323 321 321 320 318 319 318 318 317 315 313 313 312 310 309 308 306 303 301 302 301 301 300 300 301 302 305 303 303 305 303 303 302 307
332 330 329 329 328 327 326 324 322 320 320 320 320 319 318 317 316 315 314 313 312 309 307 305 303 302 301 301 298 297 297 297 297 298 298 297 298 300 299 300 298 297 298
330 329 328 327 327 328 328 326 324 321 320 319 317 317 316 315 314 313 311 309 308 305 304 304 303 300 300 300 296 294 291 293 295 296 295 296 295 298 298 297 297 298 295
329 329 328 327 328 329 329 326 324 322 317 315 315 314 313 314 312 310 308 307 306 305 303 303 301 300 296 297 298 294 289 287 290 293 292 294 293 293 294 296 296 296 295
328 329 329 329 329 329 327 322 320 316 312 315 315 313 312 313 310 308 307 306 306 305 303 302 302 299 297 294 296 298 295 292 287 286 289 291 292 292 291 292 293 294 294
328 328 330 330 328 324 322 321 319 315 315 313 311 309 308 309 309 307 307 305 303 303 302 302 301 299 298 295 293 293 293 291 290 286 284 286 289 290 291 291 291 292 293
328 329 327 326 321 321 320 319 318 313 310 307 306 306 307 305 305 304 303 301 301 300 300 300 300 301 296 296 295 294 292 289 287 286 284 285 286 288 289 290 290 290 291

GFSSE_sfc_thetae_033.txt.gz
Theta_e
340 346 348 349 349 348 347 347 347 347 346 346 345 344 343 342 341 340 338 338 339 336 336 335 336 336 336 337 338 339 339 339 341 342 342 343 343 341 340 340 342 338 343
343 346 346 348 348 348 348 347 346 345 345 343 344 343 342 341 340 339 338 339 338 335 335 335 335 335 335 334 334 334 335 338 339 340 341 338 338 339 339 342 342 341 344
342 345 345 345 347 348 348 347 346 344 343 342 341 341 340 339 339 338 338 337 337 333 333 332 330 329 329 330 333 335 335 335 334 335 339 329 330 335 334 336 340 340 340
341 342 344 345 346 347 346 345 343 343 342 342 341 340 339 337 337 339 337 336 336 333 332 331 331 331 331 331 333 335 335 335 335 335 329 329 331 335 333 331 331 337 338
337 341 344 343 344 345 344 343 342 342 340 340 339 338 337 336 336 337 338 337 337 334 333 333 333 332 332 333 333 333 333 333 334 329 326 326 326 330 332 331 330 331 335
339 341 340 340 342 343 344 342 341 340 338 338 338 339 337 337 336 336 338 337 335 334 334 333 332 332 333 332 332 331 331 332 325 319 322 329 326 333 331 330 332 331 333
338 339 338 338 340 343 343 342 340 339 337 338 338 338 338 336 335 336 337 336 335 333 333 332 332 333 333 332 331 330 330 331 317 318 321 324 327 333 332 331 331 331 331
336 337 338 339 341 341 341 340 338 337 337 337 337 337 337 337 337 337 337 337 335 334 334 332 332 331 331 331 331 329 328 328 320 318 321 322 333 333 332 331 334 334 334
335 335 336 337 339 338 337 337 336 336 336 336 336 336 336 335 335 336 336 336 335 335 334 332 329 328 328 329 330 328 326 327 317 317 323 323 334 332 332 332 331 332 334
333 334 335 337 336 334 334 335 335 334 334 334 334 333 332 333 334 334 334 334 333 332 332 331 330 327 327 326 328 328 324 322 312 315 319 323 331 328 330 330 331 331 331
328 330 332 333 333 332 331 334 334 334 332 332 332 331 329 327 328 331 330 331 330 329 329 329 328 327 328 327 328 328 322 312 311 313 315 326 327 324 326 327 327 328 328
323 323 324 331 331 329 331 329 328 329 327 326 327 327 325 326 326 328 329 330 329 328 328 328 329 327 323 316 315 319 312 311 310 311 314 323 322 320 322 323 323 324 322
324 325 326 330 331 325 327 325 326 325 324 325 326 326 329 330 326 326 326 323 320 326 322 322 323 321 317 315 313 312 312 310 309 309 315 320 319 318 318 321 321 320 319
325 327 329 332 328 325 326 324 325 327 330 331 331 331 328 328 325 324 321 322 322 320 318 317 315 314 311 312 312 310 310 309 309 309 311 320 320 316 317 319 318 318 316
326 328 329 329 325 325 323 328 330 329 330 330 328 329 327 325 323 321 319 318 316 316 315 312 312 310 310 311 310 310 310 309 306 306 305 319 319 317 316 317 316 314 313
329 328 326 325 323 327 329 329 329 326 325 325 326 327 326 324 320 318 316 314 313 312 312 311 311 310 309 309 309 309 307 305 302 301 303 303 317 317 315 314 312 312 311
326 325 323 323 328 328 325 324 322 322 322 323 325 324 320 320 317 316 313 312 311 311 310 309 309 308 307 308 307 305 304 301 301 301 301 301 309 316 315 312 309 310 309
324 322 322 328 326 323 323 321 320 321 321 321 318 316 317 317 314 313 312 311 311 312 309 309 307 306 304 302 300 299 299 300 300 299 300 300 301 307 313 312 309 309 308
323 322 322 327 323 322 321 320 322 319 317 316 315 313 314 315 316 313 311 309 310 309 308 307 305 304 300 299 299 297 298 297 296 300 298 299 300 301 304 312 307 307 305
323 323 327 325 322 322 322 321 321 316 315 315 314 313 314 314 315 311 309 309 308 306 303 303 302 301 299 298 300 298 295 295 295 295 294 297 297 297 299 299 300 300 306
324 326 326 324 323 322 320 318 317 315 314 313 313 314 314 312 311 309 308 305 304 303 300 301 299 298 297 297 294 293 294 294 294 293 293 293 295 295 295 295 296 297 296
323 325 325 324 323 323 322 322 320 315 314 312 311 311 311 310 309 308 305 303 302 301 300 299 298 296 296 295 292 291 288 290 292 293 292 292 291 292 294 294 294 294 294
322 324 324 324 323 324 324 322 319 314 310 309 308 307 308 309 307 306 304 302 301 301 299 298 297 295 293 294 294 291 287 284 287 289 290 289 289 289 289 291 293 293 293
322 323 324 324 324 324 324 319 314 309 307 308 308 307 306 308 306 304 303 302 301 300 298 298 299 296 294 292 293 295 291 289 285 283 287 288 289 290 288 289 289 291 291
323 323 324 324 324 325 325 318 315 309 307 307 307 306 306 305 305 301 300 298 296 297 296 296 296 296 294 293 291 291 290 289 287 284 281 283 287 288 288 288 288 288 290
321 322 322 324 323 322 316 315 310 308 304 302 301 301 302 300 299 298 297 296 296 295 295 295 295 295 294 293 295 293 290 288 286 284 282 283 283 285 287 288 287 288 288

GFSSE_sfc_thetae_036.txt.gz
Theta_e
343 347 348 349 349 348 348 347 345 345 344 343 342 342 341 340 339 339 340 339 338 335 337 336 336 336 336 337 337 338 340 340 342 341 341 338 338 339 340 341 342 338 341
345 347 346 347 348 348 347 346 345 344 343 341 341 341 340 339 340 340 339 338 338 335 333 332 332 332 332 333 334 334 335 338 340 339 336 336 335 334 334 338 341 337 340
344 345 345 346 347 347 347 346 344 343 340 339 338 339 339 339 339 338 337 337 336 333 332 332 332 332 332 333 335 336 334 335 336 338 336 327 327 333 332 332 336 338 339
344 344 344 345 346 347 345 344 343 341 339 340 339 338 338 339 338 338 337 336 336 334 333 333 332 331 332 334 334 338 338 337 336 334 326 326 325 331 330 330 330 331 336
341 342 344 344 344 345 343 342 341 341 340 340 340 338 338 337 336 337 338 337 337 334 333 332 331 331 333 334 332 334 333 332 331 327 323 323 323 330 331 330 329 330 329
340 341 341 341 342 343 343 342 341 339 338 339 339 339 338 336 336 336 337 337 336 333 333 332 331 332 333 332 332 332 332 330 326 321 322 328 325 333 332 332 331 330 331
338 339 339 339 341 341 342 341 340 338 338 339 339 339 338 336 335 336 337 336 335 332 332 331 331 333 332 331 331 331 329 328 319 319 320 324 327 333 332 332 332 332 331
336 337 337 339 339 339 340 339 337 337 338 338 338 338 338 337 337 336 337 336 335 335 333 332 331 331 332 331 330 327 328 325 319 319 322 322 333 332 332 332 332 332 333
336 334 335 334 335 337 336 336 335 336 337 337 337 336 335 335 335 336 336 336 335 334 332 331 329 328 328 329 328 326 325 325 315 318 323 322 332 329 329 330 331 331 331
327 326 328 333 331 333 333 334 334 334 335 335 334 334 333 334 334 334 334 334 333 332 331 330 328 327 329 327 327 325 321 321 313 315 317 321 328 326 326 326 328 328 327
328 324 326 330 332 332 331 332 333 334 333 333 333 332 329 327 328 329 329 331 331 330 329 328 327 327 326 328 326 324 318 309 312 311 313 324 326 322 324 324 325 324 323
323 326 326 329 329 330 330 328 325 326 325 325 325 326 324 324 326 327 328 329 328 328 327 327 327 325 320 313 313 316 309 308 308 310 310 321 321 319 321 322 322 321 320
323 324 325 330 329 326 326 324 323 322 322 323 323 323 324 326 326 324 325 321 318 324 320 320 315 313 311 310 309 309 308 307 307 307 311 319 319 317 318 320 320 319 317
318 322 326 327 328 323 323 323 322 322 323 326 328 328 327 324 324 321 321 319 317 316 313 312 310 310 309 310 309 308 308 306 303 304 306 318 318 316 316 319 318 316 315
321 323 324 327 328 323 322 322 323 326 328 327 327 327 326 321 318 318 316 314 313 312 310 309 308 309 309 308 308 306 305 302 300 300 301 313 317 315 315 317 315 313 312
323 324 325 329 324 323 325 326 327 326 324 324 325 325 324 320 317 315 312 311 310 309 309 308 307 307 306 306 304 303 301 300 300 299 299 298 313 317 316 315 312 311 310
325 326 326 326 324 327 325 323 322 322 322 322 322 320 320 318 315 312 310 309 309 309 308 307 306 305 303 302 300 300 300 299 298 297 298 299 301 316 316 311 309 309 308
327 325 323 327 325 322 321 320 320 320 321 319 316 315 316 315 313 311 309 309 309 308 307 306 304 302 300 299 297 296 297 297 296 296 296 297 298 306 311 309 309 308 307
325 322 323 324 322 320 319 320 319 318 317 315 313 313 314 314 313 310 308 308 308 305 304 305 302 301 297 297 298 296 294 294 294 296 294 295 297 300 299 306 304 305 304
322 321 325 322 320 320 320 319 316 314 314 314 311 312 313 313 313 309 308 306 304 301 300 299 298 298 297 296 299 296 294 293 292 292 292 295 293 294 295 294 294 295 305
320 321 323 320 320 319 319 317 313 311 312 312 311 313 312 311 311 307 304 302 301 300 299 299 297 296 295 294 292 292 292 292 292 291 291 291 291 292 292 292 292 293 294
318 322 322 321 320 319 320 317 315 313 312 311 311 311 309 308 307 305 303 301 300 300 299 298 296 295 294 293 291 289 286 289 291 291 289 291 288 290 291 292 291 291 290
321 322 322 321 320 320 320 319 315 313 309 307 306 306 306 308 307 305 302 301 300 300 298 297 295 294 292 292 292 290 286 284 286 288 288 288 287 288 288 289 290 290 290
320 324 323 322 321 321 321 318 314 312 308 306 306 305 305 306 304 303 302 301 300 298 296 297 297 295 292 291 291 294 290 289 284 283 286 287 287 288 287 287 287 288 289
320 321 322 323 321 322 322 318 313 308 307 306 306 304 304 302 301 300 298 296 296 295 295 294 295 293 293 291 290 290 290 288 287 284 282 283 286 287 287 287 287 287 288
321 321 322 321 321 321 321 317 312 308 305 306 303 302 301 298 298 297 296 296 295 295 295 295 294 294 292 292 291 291 290 287 286 284 281 282 282 285 286 288 286 287 287

GFSSE_sfc_thetae_039.txt.gz
Theta_e
342 346 347 348 348 347 346 345 344 343 342 341 340 340 340 340 340 340 339 340 339 337 336 336 335 334 334 336 340 341 340 339 340 340 338 335 335 337 339 339 339 336 340
344 345 345 346 347 347 346 344 343 341 341 338 339 339 340 340 340 339 339 339 337 335 335 334 334 334 335 335 334 336 340 339 339 337 334 333 333 332 332 335 338 336 339
342 345 344 345 347 346 345 344 343 341 337 336 337 339 340 338 338 338 337 336 337 336 334 334 334 335 337 338 336 336 337 339 338 336 332 322 322 331 331 330 332 334 338
343 343 342 345 345 345 344 342 341 339 337 338 337 337 338 336 337 338 337 337 337 337 333 333 333 333 335 338 339 339 338 335 333 329 322 322 325 332 331 331 330 330 331
342 342 343 343 343 343 342 341 340 339 339 339 339 337 338 335 336 337 337 337 337 337 334 333 333 333 333 334 335 335 334 332 330 326 322 323 323 330 333 332 330 330 330
340 341 341 341 342 342 342 341 340 339 339 339 338 338 338 336 335 337 337 337 337 336 333 332 331 333 332 333 332 333 331 328 325 320 322 327 325 332 333 332 333 332 331
339 341 341 339 341 342 342 341 339 339 339 339 339 338 338 337 336 337 337 336 336 335 334 334 334 332 330 331 331 330 329 327 320 319 321 324 325 331 332 333 332 332 332
336 337 338 339 339 339 339 338 338 339 339 339 338 338 338 337 336 336 336 336 335 334 333 333 332 331 330 328 330 328 326 325 320 319 321 320 330 329 329 330 330 330 330
329 334 333 335 337 337 336 336 336 337 338 338 337 337 336 336 335 335 335 335 334 333 332 331 330 331 329 328 327 327 325 324 315 318 321 320 329 326 326 327 327 327 326
324 327 326 328 329 331 331 334 335 335 336 336 336 335 334 334 334 334 334 334 333 333 331 330 330 331 329 328 325 325 324 319 312 312 313 317 327 324 324 325 325 324 324
323 323 326 328 326 329 330 332 334 335 335 334 333 333 329 327 326 325 330 331 331 330 329 330 329 326 326 326 325 321 316 310 309 309 309 323 324 321 323 323 323 321 321
320 321 324 326 325 329 330 327 325 328 326 326 325 324 324 323 324 326 328 327 328 328 328 328 326 323 316 311 310 312 306 306 306 308 308 321 320 319 321 322 321 320 319
320 321 322 324 328 327 325 324 322 322 322 323 323 322 323 324 324 322 322 317 317 322 316 313 311 310 309 308 307 306 305 303 301 302 309 321 318 316 318 320 320 318 316
320 320 322 329 328 324 323 322 322 320 321 322 322 323 323 323 322 320 318 317 315 312 310 309 308 309 308 307 306 304 301 299 298 299 302 313 317 315 315 319 317 315 314
320 323 324 327 326 322 321 320 320 321 325 327 327 327 324 321 316 316 314 312 310 309 308 307 308 307 306 304 303 301 299 299 298 297 297 309 314 315 314 317 314 313 312
319 321 325 325 327 322 320 320 323 326 325 324 323 323 321 318 315 312 310 309 308 308 307 307 305 303 301 301 300 300 298 297 296 296 297 298 312 317 317 314 312 311 310
320 323 323 325 322 321 322 323 323 323 322 322 322 321 319 316 313 310 308 308 307 307 307 305 303 301 299 299 297 298 297 295 295 295 295 297 306 315 314 310 310 310 310
322 323 324 327 322 322 321 321 320 319 320 319 317 317 316 315 312 309 308 308 307 307 305 303 302 299 297 297 295 295 295 294 294 294 294 296 301 302 305 306 305 304 304
323 324 322 323 321 319 318 318 318 318 317 315 314 313 313 312 311 308 307 306 305 303 302 303 300 298 296 295 296 294 293 292 292 294 293 293 295 294 294 301 303 304 304
324 321 322 321 319 318 318 316 315 317 315 313 311 312 313 312 310 308 306 304 301 300 299 298 296 296 296 294 297 294 292 291 291 290 291 293 292 291 291 292 292 294 302
320 319 321 319 318 319 318 315 312 311 311 310 310 311 312 311 309 305 303 301 300 299 298 297 296 295 293 293 291 291 291 291 290 289 290 289 290 290 290 290 290 290 291
318 320 320 320 318 318 319 314 313 312 311 310 310 310 309 309 306 303 301 300 299 298 297 296 296 294 294 293 290 288 286 288 290 290 288 289 287 288 289 290 289 289 288
317 319 320 320 318 318 318 316 312 310 308 307 307 306 306 307 305 303 301 300 298 298 297 296 295 294 292 292 292 291 285 283 285 288 288 287 287 287 287 288 289 289 288
318 320 321 320 318 319 319 316 311 309 308 306 306 305 305 306 304 302 301 300 298 297 295 296 296 293 292 291 291 293 289 288 284 283 285 286 287 288 287 286 287 287 288
318 319 320 320 320 320 320 318 313 309 307 306 304 304 302 301 301 300 298 296 296 296 296 295 293 292 292 290 289 289 288 287 286 284 282 283 285 287 287 286 286 286 287
318 319 319 320 320 320 319 317 313 309 306 305 303 301 300 297 296 296 296 297 296 296 296 293 292 292 292 291 290 290 289 287 286 284 282 281 281 285 286 286 286 286 286

GFSSE_sfc_thetae_042.txt.gz
Theta_e
341 344 346 347 347 346 345 344 344 343 342 341 338 339 340 340 341 341 341 340 340 339 338 337 338 341 343 342 340 338 337 337 339 338 337 334 333 335 338 338 338 336 340
343 344 345 346 346 345 344 343 342 341 341 339 338 340 341 341 341 340 339 339 340 336 336 336 337 336 337 341 340 339 337 338 336 334 331 332 332 332 332 332 336 336 339
342 343 344 345 345 345 344 342 341 341 339 338 338 339 340 340 340 338 338 339 338 338 336 338 340 339 337 336 340 340 336 334 334 333 331 322 325 332 332 330 332 331 334
343 342 342 345 344 343 342 341 340 339 339 340 339 338 339 338 338 339 338 337 338 338 336 339 340 340 338 339 340 337 334 332 331 329 322 323 327 333 333 332 332 331 329
341 341 342 343 342 342 341 340 339 339 339 340 339 338 338 338 338 339 338 337 338 338 336 336 337 337 337 336 335 335 332 331 329 326 324 324 325 331 333 333 332 332 331
340 341 341 341 341 341 341 340 339 339 339 338 338 338 338 338 336 339 337 337 337 337 335 333 334 334 333 334 333 332 330 329 326 322 323 326 325 332 332 332 332 333 333
339 340 340 338 340 341 341 340 340 339 338 338 338 338 339 338 337 338 337 336 336 336 334 332 333 334 333 332 331 330 330 328 321 320 321 323 324 330 330 330 330 330 330
335 338 338 340 340 340 339 339 339 339 339 338 338 338 338 338 337 337 336 334 334 334 333 333 331 332 332 331 330 328 327 326 320 319 319 319 328 327 328 327 327 327 327
330 334 334 331 335 336 336 337 337 338 338 338 337 337 337 336 335 335 334 334 333 333 333 332 330 329 331 331 329 327 326 323 315 315 318 318 328 325 325 325 325 325 325
323 326 327 327 329 330 331 335 336 337 336 336 336 335 334 334 334 334 333 333 332 333 333 333 330 329 328 328 327 324 321 317 309 310 310 318 326 324 324 324 324 322 322
320 319 322 324 326 328 329 333 334 336 335 334 333 333 327 326 326 324 330 331 331 331 331 330 329 326 325 323 321 318 314 307 308 308 309 324 322 321 324 323 322 321 320
317 317 320 324 323 328 329 326 327 329 326 326 325 324 324 323 321 324 326 328 329 329 328 326 323 320 313 308 309 310 304 303 303 305 310 323 319 318 322 322 320 318 318
319 321 321 322 324 328 325 322 322 322 322 322 322 321 321 323 322 321 319 316 318 318 311 311 310 309 307 306 304 302 301 300 299 300 309 318 317 314 319 321 318 317 316
319 321 323 323 327 325 324 320 320 320 320 321 321 322 323 322 320 319 316 314 311 310 308 308 308 306 305 304 302 301 299 298 298 299 300 313 316 313 314 320 317 315 314
318 318 321 324 326 323 322 319 319 319 320 322 322 322 323 321 317 316 313 310 308 308 307 307 306 304 302 301 300 299 298 297 297 297 298 309 315 315 314 317 315 313 312
319 319 320 325 325 322 320 318 319 321 323 324 323 324 322 318 315 311 309 307 307 307 306 305 303 301 299 299 299 298 296 295 296 296 298 303 318 319 317 314 312 311 311
319 319 321 323 324 320 319 319 321 322 322 320 320 320 318 315 312 309 307 306 306 306 305 303 301 299 298 298 297 296 295 295 295 296 298 303 305 312 312 311 311 310 310
318 320 322 325 322 319 319 320 320 320 319 319 318 317 316 313 310 308 307 306 306 305 304 302 299 297 297 296 295 294 294 294 294 294 296 298 298 297 301 306 306 306 304
319 321 321 323 320 319 318 318 318 318 318 316 315 314 313 312 310 308 307 306 305 304 302 301 298 297 295 295 295 293 293 292 292 294 293 294 295 294 294 301 303 305 303
319 321 321 320 319 317 316 315 315 316 315 315 314 313 312 311 309 308 306 304 302 300 298 297 296 296 295 295 296 293 292 291 291 291 292 293 292 292 293 294 294 296 302
320 318 320 318 317 317 315 314 312 312 314 313 313 312 311 309 308 306 303 301 300 298 297 297 296 295 293 293 292 292 291 291 291 290 291 290 291 291 292 291 291 291 291
320 319 319 319 317 318 319 314 313 311 311 313 312 310 310 308 307 304 301 299 299 297 297 296 295 294 293 292 290 288 286 289 291 291 289 290 289 290 291 292 291 291 291
318 318 319 319 318 319 318 314 310 309 309 309 307 307 307 307 304 302 300 299 298 297 296 295 294 293 291 292 292 290 286 284 286 289 289 289 289 289 289 289 290 291 291
319 317 319 319 318 318 317 315 311 310 307 307 308 307 305 305 303 301 300 298 297 296 295 295 295 294 292 291 291 293 290 289 286 285 287 288 288 289 288 289 289 289 289
317 315 317 318 318 318 318 316 312 308 308 306 305 304 303 302 301 300 299 296 295 294 294 294 293 294 292 291 290 290 289 288 287 285 283 285 287 289 289 288 288 288 289
314 316 317 317 317 319 318 316 312 309 307 307 304 303 300 298 297 297 296 295 294 294 295 294 295 294 292 292 291 290 290 288 287 286 283 283 283 285 288 289 288 289 288

GFSSE_sfc_thetae_045.txt.gz
Theta_e
341 344 346 347 347 347 346 346 345 344 343 343 342 342 341 342 342 341 342 342 343 344 344 344 345 343 340 337 337 336 336 336 337 337 336 333 334 335 337 339 340 338 340
343 344 345 346 347 346 345 344 343 342 341 342 342 342 342 342 342 341 342 341 341 339 339 341 344 344 341 336 336 336 334 336 335 334 335 334 333 333 332 332 337 337 338
342 343 344 344 345 345 344 343 342 342 341 340 341 342 342 341 340 341 340 340 341 340 340 340 340 342 341 337 337 335 334 334 335 334 334 329 331 334 333 332 332 331 333
342 343 343 343 344 344 342 342 341 341 341 341 342 342 341 340 340 340 340 339 342 343 342 341 339 339 340 338 336 335 333 333 332 333 329 329 329 334 334 333 333 331 330
341 342 343 342 341 342 341 340 340 341 341 341 340 341 341 340 340 340 339 339 340 343 342 341 340 340 338 336 335 334 333 332 332 329 328 330 329 331 333 334 334 333 332
341 342 342 340 340 341 340 340 340 340 339 338 339 340 340 341 340 340 338 338 339 341 340 340 338 335 335 334 333 332 331 330 329 326 327 329 329 330 331 331 331 332 332
340 342 341 338 339 340 341 340 340 339 338 338 338 339 340 340 340 338 337 336 336 338 338 336 335 334 333 333 332 331 330 329 324 324 325 326 328 328 328 328 328 328 328
337 340 339 339 340 339 339 339 338 338 338 338 338 339 339 339 337 337 336 336 335 334 335 335 334 333 332 331 330 329 327 326 322 323 324 324 329 327 326 326 325 326 325
333 336 335 334 333 333 337 337 337 338 338 338 338 338 337 335 334 334 335 335 335 333 333 333 334 332 331 330 328 325 324 323 319 320 320 322 326 326 324 324 324 323 323
326 325 326 326 327 330 335 336 337 337 337 337 336 334 333 333 334 334 333 334 335 334 332 331 331 331 329 326 323 321 320 320 318 317 320 321 325 324 324 322 322 322 321
322 319 319 321 325 327 331 337 337 337 335 334 333 332 329 328 328 328 330 332 332 333 332 330 327 325 324 323 319 316 318 316 316 317 318 324 321 325 324 322 320 320 320
315 317 319 322 324 326 328 333 333 333 331 330 330 329 329 330 329 328 329 330 331 329 327 325 321 319 318 315 311 312 311 312 313 314 315 323 319 320 324 321 319 318 318
316 318 321 323 323 325 327 329 329 328 328 329 330 329 330 329 330 327 327 326 324 322 318 318 316 315 314 312 311 311 310 310 310 309 311 317 317 313 323 320 318 317 316
314 317 320 322 322 324 325 326 326 325 327 327 327 329 330 327 327 324 323 324 319 318 318 317 315 314 312 311 311 310 309 308 308 309 309 313 315 314 320 319 317 315 314
316 319 321 325 327 328 326 325 325 326 326 328 327 329 329 326 325 324 321 320 318 318 317 314 313 312 311 309 308 307 306 306 307 308 311 316 315 315 318 319 316 314 312
320 321 324 325 328 326 324 323 324 327 327 327 328 328 331 330 327 323 319 316 316 317 316 313 312 311 309 308 306 306 305 305 306 309 314 315 317 319 318 315 314 312 311
322 323 323 326 329 327 326 324 325 326 328 330 331 332 331 328 324 321 317 316 316 315 314 312 310 310 308 306 305 304 304 305 306 310 312 313 312 311 312 312 312 311 310
323 322 323 326 329 327 326 325 326 328 331 329 329 328 327 324 320 318 316 316 315 314 313 309 310 307 306 307 305 304 304 304 305 308 310 309 306 307 307 306 306 305 304
323 323 323 327 329 327 326 326 327 329 329 328 327 325 323 320 318 318 316 316 316 313 311 310 308 308 306 305 304 304 304 303 303 302 303 304 303 304 304 303 303 304 303
324 325 325 327 329 328 327 325 326 327 327 326 326 324 322 319 318 318 316 315 312 309 309 308 307 307 306 306 302 303 304 302 302 302 301 301 302 302 303 303 303 302 301
324 325 325 326 327 326 323 322 323 323 323 322 322 322 321 320 318 317 314 312 311 310 308 308 307 306 305 306 304 302 303 300 301 301 301 301 301 300 301 301 300 300 300
322 324 325 326 326 326 325 324 324 325 324 323 317 316 316 318 316 314 312 310 310 308 308 307 307 305 305 305 301 299 296 297 299 301 300 300 300 300 299 299 299 299 299
323 323 325 326 327 327 326 324 321 321 320 318 316 315 316 316 313 311 311 310 309 308 307 307 306 304 301 303 302 299 294 293 297 300 299 299 300 299 300 300 299 298 297
324 325 325 326 325 326 325 323 321 321 319 319 318 318 315 314 311 308 309 309 308 308 306 306 304 304 302 299 301 300 301 300 294 293 298 299 300 299 300 300 298 298 297
326 325 326 326 325 325 324 324 322 322 322 319 318 316 313 311 310 307 308 308 307 306 305 304 303 302 299 297 299 300 300 299 299 295 291 294 296 297 298 298 299 298 296
326 325 325 324 324 325 324 323 321 320 317 315 315 312 310 312 309 307 307 307 306 304 303 302 303 301 299 300 300 300 299 296 295 294 292 292 292 294 296 297 298 297 296

GFSSE_sfc_thetae_048.txt.gz
Theta_e
341 344 346 348 349 348 348 347 347 346 346 345 343 343 343 343 344 344 345 345 347 348 346 342 342 338 337 336 336 335 335 337 337 337 337 334 334 336 337 338 341 338 340
345 343 345 347 348 348 347 346 345 344 343 343 343 343 343 343 343 344 345 345 346 347 346 343 339 337 337 335 335 335 335 336 336 338 337 335 335 334 333 333 335 336 338
344 343 345 345 346 346 346 344 344 343 343 342 343 343 343 343 343 342 342 342 344 346 345 344 337 337 336 335 336 335 334 334 336 335 337 330 332 334 334 333 334 332 333
344 342 342 345 345 344 344 343 342 342 342 343 343 343 342 343 342 342 342 343 343 344 343 344 339 336 335 336 335 334 334 333 334 336 329 329 329 334 335 334 334 333 332
343 342 343 343 343 343 342 341 341 341 342 342 341 342 342 342 342 342 343 343 345 345 343 342 339 335 336 336 335 334 333 333 334 330 328 330 329 331 333 334 334 334 333
342 342 340 341 341 342 341 341 341 341 340 340 340 341 342 342 341 341 341 343 345 345 342 341 335 334 335 334 334 332 331 331 331 326 328 329 328 329 330 331 330 329 330
341 342 342 338 339 341 341 342 341 340 339 339 340 340 341 341 341 340 339 340 343 343 340 336 334 333 334 333 331 330 329 328 324 324 326 327 328 327 327 327 327 327 327
338 339 340 339 338 339 339 340 339 338 338 338 339 340 340 339 339 338 337 338 339 337 336 335 334 333 332 331 328 328 326 326 322 323 325 326 327 326 325 325 325 325 325
334 336 336 337 336 335 335 336 336 337 338 338 338 338 338 337 336 336 335 335 336 335 335 334 333 332 330 327 326 324 323 322 321 321 321 323 325 325 324 323 323 323 323
327 330 326 326 328 333 333 335 337 337 337 337 336 335 334 334 335 335 334 334 334 334 335 334 331 329 326 324 322 322 321 323 319 319 319 321 326 325 323 322 322 322 321
323 323 324 321 319 323 329 334 336 337 335 333 333 332 328 328 328 330 332 334 333 332 331 330 328 326 324 320 318 319 320 319 318 318 317 324 324 325 323 321 321 320 320
317 318 320 321 321 324 329 331 335 333 331 330 328 328 328 330 330 328 331 332 331 329 327 325 323 324 324 320 317 316 317 317 316 315 316 321 317 325 323 320 319 319 318
315 316 317 318 320 323 327 332 331 330 330 330 330 329 331 330 330 329 329 328 327 326 322 321 320 322 321 320 318 318 316 315 314 313 312 316 319 317 323 319 318 318 316
316 316 316 318 321 323 324 328 329 325 327 327 328 331 330 329 329 329 328 329 327 326 325 324 322 321 319 318 317 316 315 312 311 311 312 316 316 317 323 319 317 316 314
316 316 317 321 322 322 323 327 327 327 326 327 328 330 329 328 328 328 329 327 326 326 324 322 320 318 318 316 315 313 311 311 310 311 314 319 316 316 321 319 316 314 312
315 315 318 322 322 323 325 328 328 328 327 328 327 330 333 329 329 328 328 327 325 325 323 321 320 318 317 315 313 311 310 309 310 312 314 316 316 318 318 315 314 312 312
319 322 322 323 324 323 325 328 327 327 326 326 329 335 335 333 332 330 328 325 325 324 323 321 319 318 316 313 310 310 310 311 311 312 315 315 314 312 312 313 313 311 310
323 323 326 326 327 328 328 325 327 327 328 329 333 336 337 336 334 331 327 325 324 322 321 319 317 316 315 313 311 311 311 310 310 311 313 313 314 313 308 307 306 306 305
325 325 326 328 329 331 331 326 327 329 330 333 336 335 335 333 331 329 326 324 324 321 320 317 317 316 312 310 309 311 311 310 309 307 309 310 310 310 307 304 303 303 302
326 326 328 328 331 333 332 329 325 328 330 334 335 333 333 330 328 327 325 323 323 321 318 316 315 313 312 312 306 308 310 308 308 307 306 305 307 306 305 305 305 304 300
326 327 327 329 331 332 329 325 322 324 328 332 333 333 332 329 326 326 324 323 322 318 318 317 314 311 309 311 309 309 309 307 305 305 305 305 305 305 304 304 304 303 304
325 327 327 327 329 332 331 327 325 324 327 329 332 332 331 329 327 326 325 321 320 319 317 315 313 310 311 311 308 306 303 303 304 305 305 304 305 305 302 303 304 304 303
325 327 327 327 329 332 332 329 326 326 328 328 328 327 323 321 323 324 321 317 318 318 315 315 313 311 308 308 306 305 301 301 303 305 305 304 304 303 303 303 304 303 302
328 328 328 329 330 332 333 330 326 322 322 327 329 328 326 326 323 321 319 316 317 317 315 314 312 310 308 307 306 305 305 303 299 298 303 303 304 303 303 303 302 302 302
329 329 329 329 329 331 333 332 328 324 325 328 329 327 326 324 322 319 317 315 315 314 315 313 310 309 309 308 303 304 303 304 303 298 295 298 301 301 301 300 301 301 301
331 331 331 329 329 331 332 332 331 329 327 326 326 325 324 321 319 317 315 316 314 314 314 311 310 310 306 302 301 303 303 300 299 298 296 297 296 298 299 300 300 301 301

GFSSE_sfc_thetae_051.txt.gz
Theta_e
342 344 348 351 351 350 349 348 347 347 347 346 345 345 345 346 346 346 346 347 347 345 340 339 338 337 336 337 337 336 339 339 338 338 338 335 336 337 337 338 340 337 340
342 345 346 349 350 349 349 348 347 346 345 345 344 344 345 345 345 346 348 347 346 343 339 338 337 336 335 335 335 335 335 337 338 339 338 336 335 335 334 334 336 335 337
340 344 349 347 348 348 348 347 346 345 344 344 344 344 344 345 346 347 347 346 346 343 339 338 337 337 336 335 336 335 334 335 335 337 339 329 332 335 335 336 335 333 334
339 343 346 346 346 347 346 344 344 344 343 343 344 344 344 344 344 344 345 345 345 345 338 337 337 336 336 336 335 335 335 334 334 338 329 328 330 337 337 335 335 335 333
339 340 344 344 344 344 343 342 342 342 343 343 343 344 344 344 344 345 344 344 345 345 339 337 337 336 335 336 335 334 334 333 334 329 327 327 326 331 333 333 332 332 332
341 338 342 341 342 342 342 342 342 341 341 341 342 343 343 343 344 345 344 344 344 345 338 336 335 334 334 334 333 332 330 331 333 327 326 327 326 329 329 328 328 328 329
343 342 341 339 341 341 342 342 341 341 340 341 341 341 342 343 343 344 344 343 343 343 337 334 333 332 333 332 331 329 329 328 324 325 326 325 326 327 327 327 327 327 326
339 338 338 340 339 340 340 340 340 339 340 340 340 340 341 340 340 342 342 342 340 338 336 335 334 332 330 329 327 327 326 328 323 324 325 324 326 326 326 325 324 324 324
337 335 336 337 337 337 337 337 337 338 339 339 339 339 338 337 337 338 339 338 337 336 335 334 333 331 328 326 325 323 322 324 322 321 321 323 325 325 324 324 323 323 323
331 333 332 332 333 335 337 335 336 337 337 337 337 335 335 335 335 335 336 336 336 335 334 332 331 329 326 323 323 322 321 324 320 319 318 324 326 324 323 322 322 322 321
324 323 328 328 329 332 334 334 334 337 336 334 334 332 329 326 326 329 332 333 335 334 332 330 328 327 324 322 321 320 321 318 317 317 316 323 326 325 322 321 321 321 319
319 318 319 321 324 324 329 331 332 334 332 331 330 331 327 331 331 327 331 331 331 331 330 328 326 325 324 320 318 319 318 317 315 314 314 320 322 325 322 321 319 319 318
318 318 317 320 321 320 323 325 327 329 330 329 330 330 332 330 329 330 328 325 326 326 322 321 321 324 324 323 320 319 317 315 312 312 312 315 317 323 322 320 319 318 316
313 316 318 321 321 324 323 324 325 327 328 327 330 334 333 330 331 329 327 327 326 325 324 324 325 324 323 321 319 317 315 312 311 312 313 316 314 317 323 320 318 316 314
312 315 316 319 319 322 324 324 326 325 323 327 330 332 331 329 332 330 330 328 328 328 327 326 324 322 321 319 317 315 312 312 312 312 317 320 315 315 323 320 318 316 313
315 315 317 320 320 321 321 322 324 325 326 328 330 331 333 332 333 328 329 327 327 328 327 325 323 322 321 318 315 312 311 311 312 313 314 315 318 319 321 318 316 314 313
315 316 318 319 320 318 318 321 323 326 326 327 328 334 334 332 332 331 330 329 328 328 327 326 323 322 319 316 313 312 311 311 311 312 313 315 315 314 315 314 314 312 311
318 318 320 320 321 319 321 322 323 327 327 326 328 333 334 332 332 331 329 328 329 328 325 323 322 320 318 315 313 311 311 311 310 311 313 312 312 313 312 311 309 306 305
319 318 320 321 319 322 327 328 330 329 325 323 328 331 333 334 335 335 330 329 329 326 324 323 321 321 316 313 312 311 312 311 309 308 310 310 310 308 308 309 307 304 302
324 326 325 325 325 328 329 327 324 326 326 328 330 332 334 335 334 333 330 329 328 325 323 322 321 319 316 314 309 309 312 311 310 309 308 307 307 307 307 306 305 305 305
326 326 326 327 329 329 326 324 320 323 325 327 330 333 333 333 333 331 329 328 327 325 324 322 320 316 313 313 311 311 311 311 309 308 308 307 307 306 307 305 305 304 304
325 326 327 327 327 330 329 326 324 323 324 325 329 333 333 333 331 330 329 327 326 324 322 321 319 314 314 314 310 310 306 308 307 307 308 307 307 307 306 304 304 305 305
325 326 327 328 329 331 331 329 326 324 325 324 326 329 331 332 331 329 329 327 326 324 321 320 318 316 312 312 312 309 305 303 306 308 307 307 307 306 306 305 305 305 304
325 328 328 328 329 329 331 329 326 322 319 323 325 328 330 331 328 327 327 326 324 323 320 319 318 317 314 310 311 310 310 307 301 301 306 306 306 305 306 305 304 303 303
327 329 330 328 328 329 331 331 329 325 324 325 328 329 330 330 328 327 326 325 322 320 321 319 319 316 313 311 310 308 305 305 306 302 298 301 303 304 304 303 302 302 302
329 330 331 328 328 329 330 331 331 329 326 323 328 328 329 329 328 326 323 323 321 320 318 318 318 315 313 310 304 304 305 304 303 302 299 300 300 301 302 302 301 302 302

GFSSE_sfc_thetae_054.txt.gz
Theta_e
339 346 350 350 350 350 349 348 347 347 347 347 347 347 347 347 347 347 347 344 344 343 340 338 337 337 337 337 337 338 340 339 338 338 338 336 337 338 338 339 339 336 340
340 347 348 349 350 350 349 348 347 346 346 346 346 346 346 346 347 347 345 343 343 340 338 337 336 335 335 336 336 337 338 339 338 338 338 336 336 336 336 335 337 335 337
338 347 349 347 349 349 349 348 347 346 346 346 346 346 346 347 348 347 344 342 342 341 338 338 336 335 335 335 337 337 337 336 338 339 337 331 331 336 337 336 336 334 334
341 345 348 347 347 348 347 346 345 345 345 345 345 346 346 347 348 347 345 341 341 340 338 337 336 334 334 335 336 336 336 336 337 334 324 326 329 335 335 334 334 333 332
340 344 345 344 345 346 345 344 344 344 343 344 344 346 346 346 347 346 344 341 341 340 337 337 335 333 333 334 333 332 332 333 333 325 321 322 323 329 331 331 330 331 330
340 345 342 342 343 344 344 344 343 342 342 342 343 344 345 345 345 345 343 342 341 339 336 335 333 332 333 332 331 331 331 331 330 321 320 324 323 328 329 328 328 327 328
338 343 341 339 341 343 343 343 342 341 341 342 342 342 344 345 345 344 343 342 339 338 335 333 331 331 332 330 329 328 328 329 322 320 320 321 321 327 327 326 326 326 325
336 340 340 340 340 340 341 341 340 340 341 341 341 342 344 344 344 343 342 340 338 337 336 334 333 331 330 328 326 325 326 327 323 320 320 320 324 326 326 325 324 324 324
337 336 335 337 338 337 337 337 338 339 340 340 340 339 339 340 341 341 340 338 337 336 335 333 332 330 328 325 324 323 324 326 315 316 321 320 325 325 324 324 323 322 322
333 333 332 333 332 331 331 334 335 337 337 337 337 335 335 337 338 337 336 336 335 335 333 332 330 328 326 323 321 321 323 324 314 315 319 321 325 324 323 323 322 321 321
327 330 331 330 329 327 327 331 334 337 335 334 334 332 330 332 332 331 333 334 334 333 332 330 328 326 324 322 322 322 321 312 312 311 314 327 326 324 322 322 321 320 319
318 322 327 327 327 324 325 327 329 332 330 329 327 326 324 325 327 330 332 332 332 330 329 328 327 325 322 313 313 319 312 312 311 309 313 323 326 324 322 321 320 319 318
316 318 321 324 325 326 325 326 326 327 327 328 328 327 328 326 326 326 326 325 324 325 319 321 320 318 319 318 315 314 312 309 308 307 313 319 323 324 323 321 319 318 317
315 317 320 320 321 321 322 322 323 323 324 325 330 330 327 326 326 323 322 322 320 320 317 319 319 321 318 317 315 312 310 308 307 307 311 317 318 323 323 320 318 317 316
314 316 319 320 318 318 318 320 321 322 324 326 328 329 330 326 326 325 324 323 322 323 320 322 320 318 317 315 313 310 309 307 308 311 310 317 317 317 323 321 318 316 314
314 315 318 318 319 318 316 318 319 321 324 325 328 328 330 328 328 327 328 326 325 325 324 323 320 318 316 314 310 308 307 307 307 308 310 314 319 322 323 321 319 317 315
315 316 318 318 320 319 318 321 321 322 325 326 327 329 328 329 328 327 326 326 325 325 324 322 319 319 315 315 310 308 307 306 307 307 310 310 313 317 318 317 316 314 312
315 316 318 319 318 317 317 318 317 319 326 325 326 327 329 329 328 327 326 326 327 326 322 320 318 316 315 312 308 306 305 306 305 306 308 308 310 310 315 316 313 310 308
316 317 317 317 315 314 315 316 320 321 324 324 324 327 329 330 329 328 328 327 327 324 321 320 318 317 314 310 308 307 306 305 305 306 307 306 305 305 308 314 313 310 307
317 318 318 317 317 317 316 318 320 323 324 324 322 326 329 330 331 329 328 327 324 322 321 319 317 317 314 310 309 306 307 306 305 303 303 305 304 302 301 303 302 302 308
318 319 318 318 319 317 320 319 319 320 321 321 323 328 330 330 330 329 328 326 324 322 320 320 317 314 310 308 306 305 307 306 305 303 304 303 303 302 302 301 300 299 301
318 319 320 320 317 319 323 323 320 320 323 323 324 328 330 330 330 329 326 324 323 321 321 318 316 311 310 310 305 305 300 302 303 304 303 303 302 302 303 302 300 300 299
321 322 323 323 322 323 325 325 323 321 321 321 322 326 328 328 328 328 327 325 323 322 318 318 316 312 308 310 307 304 300 298 299 302 303 302 302 300 301 301 301 301 301
323 325 325 325 325 326 327 326 323 319 316 319 321 325 327 329 328 328 326 325 324 321 318 317 316 314 313 307 308 307 305 301 296 297 300 301 302 302 300 300 300 299 299
324 324 325 326 326 326 328 328 325 321 320 320 323 323 327 328 328 326 325 323 321 320 318 316 314 314 312 309 307 305 301 301 302 299 293 298 299 300 300 302 297 297 298
323 325 325 326 325 326 329 329 327 324 322 320 322 323 326 326 325 325 324 323 321 318 318 317 316 313 311 308 304 302 302 301 300 300 296 295 296 298 299 298 296 296 298

GFSSE_sfc_thetae_057.txt.gz
Theta_e
326 345 348 349 350 349 348 347 347 346 347 348 347 348 348 348 346 344 344 344 343 341 338 338 339 340 339 338 338 340 340 339 338 339 339 336 337 338 339 338 339 336 340
328 335 344 348 349 350 349 347 346 346 347 348 347 347 347 347 344 344 344 342 341 339 337 336 337 338 338 338 339 340 340 339 338 338 337 337 337 336 336 336 337 333 337
328 331 341 345 348 349 348 347 347 347 347 347 346 347 347 346 344 343 342 341 341 340 336 335 336 337 336 336 338 338 337 336 337 338 336 328 328 336 337 334 335 333 333
330 334 343 345 346 348 347 346 346 347 347 346 346 347 348 345 343 343 341 340 341 340 336 334 336 336 335 334 335 335 335 332 331 330 324 324 326 333 333 332 332 332 331
340 345 345 345 345 347 346 345 345 345 345 345 345 348 348 346 344 343 340 340 340 339 335 334 335 333 332 333 332 332 333 331 329 325 320 320 323 328 330 329 329 330 331
339 343 341 342 343 344 345 344 344 343 342 343 344 347 347 346 344 342 340 340 340 338 333 333 332 331 332 331 330 331 331 329 326 319 318 323 322 328 328 327 327 327 328
339 340 341 340 342 342 342 344 343 342 342 342 344 344 346 345 344 341 340 339 338 336 333 331 329 330 330 328 329 329 331 327 320 318 317 318 320 327 327 327 326 325 326
339 339 340 342 341 341 341 341 340 341 341 342 342 343 344 344 343 341 339 338 337 336 334 332 331 329 328 328 328 327 327 326 321 318 317 317 325 326 326 325 324 324 324
338 337 337 338 338 337 337 337 338 340 340 341 342 342 342 341 341 339 338 337 336 335 333 331 330 328 327 326 326 325 325 325 318 319 320 317 325 325 325 324 323 322 322
333 333 333 334 334 333 332 334 336 337 337 338 339 339 339 339 339 337 336 336 335 334 332 330 328 326 324 323 322 322 323 322 317 318 318 320 325 324 323 323 322 321 321
330 330 330 328 328 327 328 332 337 337 335 335 336 334 333 333 332 331 333 334 333 332 331 329 327 324 323 321 320 322 318 309 311 314 318 327 325 324 323 321 321 320 320
321 327 327 326 325 325 324 330 331 332 329 327 326 325 329 327 330 331 332 332 331 331 329 328 326 324 319 310 311 316 308 307 308 311 317 327 325 323 322 320 319 319 318
318 324 325 324 323 323 324 325 326 328 327 324 324 324 326 328 327 327 326 325 324 326 321 322 320 315 315 312 310 307 306 305 303 305 317 325 325 323 321 320 319 318 316
317 319 322 322 321 321 323 323 324 325 325 323 326 324 324 323 322 321 320 320 318 318 314 315 314 316 313 312 309 307 305 304 303 303 312 320 325 322 322 320 318 317 315
316 319 319 320 320 320 320 321 321 322 324 325 326 326 325 322 320 320 320 318 318 318 314 316 316 315 312 311 309 306 305 304 305 306 306 318 319 324 322 321 319 316 315
316 316 316 316 318 319 318 319 319 321 322 323 325 327 325 324 321 321 321 318 318 319 317 319 315 314 312 309 306 305 304 304 307 307 309 312 318 320 324 321 320 317 315
315 316 316 316 317 317 317 317 318 320 322 321 324 326 325 325 324 323 324 322 321 321 319 317 316 314 312 310 306 304 304 304 304 306 308 310 314 320 322 323 319 316 314
315 315 318 319 315 316 316 316 318 320 320 321 323 323 324 325 325 323 322 322 321 322 319 316 315 312 311 307 303 303 303 303 303 304 307 308 309 311 317 319 317 314 312
314 315 316 317 315 315 318 318 318 318 320 321 321 322 324 326 327 322 323 322 323 320 318 316 314 313 311 308 304 303 302 302 301 304 304 306 307 307 307 316 315 314 312
313 315 315 316 315 316 317 315 314 315 316 319 319 320 325 326 326 325 324 324 322 319 317 315 313 314 312 307 308 305 302 302 301 300 302 304 301 305 305 306 306 304 311
313 314 314 313 312 312 312 311 312 313 314 319 319 320 324 325 327 326 325 323 321 318 317 315 313 312 309 307 303 301 302 302 301 300 300 300 301 299 299 300 299 297 301
312 314 313 313 311 311 311 313 315 315 316 318 319 320 326 326 327 326 324 322 320 318 317 315 313 309 308 305 301 302 300 300 301 301 300 301 300 299 299 300 298 298 297
313 314 313 314 313 313 314 316 317 315 316 318 318 318 325 326 326 326 324 322 320 319 317 314 312 309 306 306 304 303 298 296 297 299 300 303 301 298 298 299 299 298 297
313 315 315 316 315 315 317 318 317 315 313 317 318 319 323 325 325 326 325 322 320 320 316 315 314 310 307 306 304 307 305 301 296 296 299 300 301 299 297 297 298 299 297
315 315 316 318 315 315 316 320 319 319 317 316 318 317 322 324 325 325 324 322 320 319 316 314 312 310 312 308 305 304 302 301 301 298 294 298 300 300 299 299 297 296 296
318 318 319 318 318 317 319 320 321 321 316 314 314 316 320 323 324 324 322 320 319 316 315 315 315 313 313 309 306 305 302 300 300 300 297 296 296 298 298 297 296 295 297

GFSSE_sfc_thetae_060.txt.gz
Theta_e
334 346 346 350 349 348 347 347 347 347 348 348 348 348 347 346 345 344 343 343 342 341 339 340 340 340 338 338 338 339 340 339 338 339 338 337 339 339 339 338 338 335 340
336 343 345 346 349 348 348 347 346 346 347 348 348 346 345 344 344 343 342 341 341 341 340 340 340 339 339 338 340 340 339 338 337 337 338 335 335 336 335 335 335 335 338
332 342 343 343 344 347 347 347 347 347 348 348 347 346 345 344 343 342 341 340 340 341 339 339 338 338 338 337 338 339 339 337 335 334 333 328 328 333 334 333 334 333 334
329 330 340 337 343 345 347 346 346 347 347 347 346 345 344 343 342 342 341 339 339 340 338 338 338 334 332 335 337 336 334 331 331 328 323 324 325 332 332 332 331 333 331
330 330 329 335 340 344 346 346 345 345 345 346 345 345 344 343 343 342 340 339 338 339 337 337 334 331 331 334 334 333 332 330 329 323 318 319 322 328 330 330 329 331 331
337 341 339 337 342 344 346 345 344 344 343 344 344 344 344 344 343 341 339 338 338 338 335 334 331 330 331 333 333 332 330 328 324 316 316 323 321 328 328 328 328 327 328
337 339 341 339 341 342 342 343 342 343 343 345 344 343 343 343 342 340 338 337 336 335 332 330 330 331 330 333 331 329 328 326 318 315 315 317 321 327 327 327 326 326 325
337 338 339 340 340 339 340 339 338 341 342 343 343 342 342 341 340 339 338 336 335 334 332 331 330 330 329 330 330 328 327 325 319 316 316 317 325 326 326 325 324 324 323
336 337 337 338 339 338 336 334 334 339 341 341 341 340 340 339 338 338 337 336 334 333 331 330 329 328 328 327 329 327 325 324 316 317 318 316 326 325 325 324 324 323 322
334 334 335 335 336 333 332 332 332 336 339 340 340 339 337 337 337 336 335 334 333 332 330 328 327 327 326 326 327 326 325 322 314 315 316 320 325 325 324 323 322 322 321
331 332 333 332 332 331 332 333 335 338 338 337 336 336 334 334 332 330 333 333 332 331 329 327 327 324 321 324 324 322 318 312 314 316 317 326 325 324 323 321 321 320 319
325 326 326 326 326 328 330 332 333 335 335 334 330 331 330 329 329 330 331 331 331 329 328 326 325 323 317 309 311 314 307 309 313 316 319 326 325 323 322 320 320 319 319
323 324 324 323 324 325 327 330 329 329 328 326 327 327 329 329 327 327 326 324 324 325 320 319 314 313 313 308 305 304 304 305 307 312 322 326 324 324 322 320 319 317 318
319 323 323 323 323 323 325 325 326 325 324 324 325 326 326 324 323 322 321 320 318 316 316 314 312 313 311 308 306 304 303 302 302 306 318 325 326 323 322 320 319 317 317
317 320 320 321 321 322 322 322 322 323 324 324 324 323 323 321 320 320 319 317 315 315 313 313 315 312 310 309 307 304 303 302 301 303 307 322 324 324 322 321 320 318 315
317 317 320 319 320 321 320 320 320 322 323 325 324 323 321 320 319 318 317 316 314 316 313 315 314 311 310 306 304 304 303 304 305 303 305 311 321 325 324 322 320 318 315
316 316 317 318 319 319 319 319 319 320 322 323 324 324 322 320 318 318 318 315 315 316 314 316 314 312 310 308 304 303 303 304 306 304 307 308 313 320 323 324 321 319 317
315 315 317 319 317 318 318 318 317 319 320 320 322 324 324 322 320 321 321 320 319 318 317 316 314 312 310 306 303 302 301 302 303 305 306 308 310 313 319 322 322 319 316
316 317 316 317 316 316 316 317 317 319 318 319 320 320 322 322 324 322 321 321 320 320 317 316 313 311 309 305 303 301 301 301 301 305 305 306 308 309 310 318 318 317 315
316 317 315 315 315 315 315 316 317 317 318 319 319 318 322 322 324 322 322 321 321 319 316 314 312 312 311 309 308 304 300 300 300 299 303 307 306 307 306 308 309 308 314
315 313 314 312 313 315 315 314 313 313 316 318 318 319 321 322 324 322 321 322 320 319 316 314 312 311 310 306 302 300 300 301 299 299 300 301 300 303 304 304 303 300 302
312 313 313 313 313 315 315 314 313 315 315 315 318 318 318 323 324 323 322 321 319 317 314 313 312 309 309 305 302 301 300 303 301 300 298 299 298 298 302 301 299 298 297
311 312 313 312 312 313 313 312 311 312 313 313 314 315 318 321 323 323 323 322 319 318 316 313 312 309 308 305 303 302 296 296 297 298 298 298 298 297 297 299 299 297 297
311 313 313 313 312 313 312 311 311 311 310 312 313 314 316 322 323 324 323 322 320 319 317 316 314 311 310 308 306 305 303 302 296 297 301 301 302 300 298 299 299 297 296
312 312 312 312 312 312 311 312 312 311 312 313 315 316 316 319 323 324 323 322 320 319 318 316 313 313 312 311 308 304 303 301 301 298 296 300 301 301 301 300 299 297 297
312 313 311 311 313 311 312 313 314 313 314 313 313 315 316 318 320 323 324 323 321 320 318 316 316 313 311 311 309 307 304 301 298 300 298 298 295 300 300 300 299 297 296

GFSSE_sfc_thetae_063.txt.gz
Theta_e
340 345 347 347 346 347 347 347 347 346 347 348 348 347 347 346 346 345 344 343 343 343 340 340 339 338 339 340 339 338 339 338 338 339 339 339 339 338 339 339 339 335 339
339 344 344 344 343 341 343 347 347 347 348 348 347 346 345 344 344 343 342 342 343 342 340 340 339 338 338 337 337 337 337 337 337 336 336 335 336 335 335 337 339 335 338
339 342 339 340 340 340 339 343 347 348 348 347 346 345 344 344 343 342 341 342 343 343 340 340 339 340 338 337 338 337 334 333 334 334 332 325 328 334 332 333 334 336 336
334 342 337 339 337 337 338 341 346 348 347 346 345 344 343 343 342 341 340 340 342 341 339 338 337 337 338 338 335 333 332 331 330 328 322 322 325 333 334 333 333 333 332
328 333 338 338 337 340 341 341 344 346 345 345 344 343 343 343 342 340 339 340 341 341 336 334 334 336 338 335 334 332 330 329 327 322 317 319 322 328 332 330 330 328 329
327 331 335 338 339 342 340 341 345 345 343 343 342 343 343 342 341 339 338 339 341 339 333 330 333 335 334 333 332 330 328 327 322 315 317 323 320 329 329 327 328 326 325
329 334 333 333 339 340 342 342 342 342 342 342 342 342 342 342 340 338 337 338 338 336 332 331 334 335 333 331 330 328 327 324 316 314 315 317 320 328 328 327 326 325 324
335 336 337 336 338 339 339 336 336 339 340 340 341 341 341 340 338 337 336 335 334 333 332 332 335 333 331 330 329 328 326 324 317 315 315 317 325 326 327 326 324 323 323
334 335 336 336 338 336 335 334 334 335 338 338 340 339 339 338 336 336 335 334 332 331 330 330 331 332 331 329 328 326 325 323 314 315 318 317 325 325 326 325 323 322 322
331 334 334 334 334 332 332 331 330 332 336 337 339 338 336 336 335 334 333 332 330 330 329 329 329 330 331 328 327 326 325 321 314 314 316 320 324 325 325 324 322 321 321
331 332 333 332 331 329 327 327 329 332 334 335 336 336 333 332 330 327 330 330 330 329 329 327 325 328 328 328 327 324 320 314 314 314 316 326 324 324 323 322 321 320 320
326 328 330 329 327 326 326 326 324 325 327 330 332 332 331 327 326 327 328 329 328 327 327 327 324 321 316 314 318 318 312 314 314 315 318 326 324 323 322 321 321 320 318
323 325 326 327 328 326 325 324 323 324 327 330 330 329 328 326 326 323 323 322 320 322 316 314 313 310 307 307 305 307 309 311 313 316 322 325 324 323 322 320 319 319 318
322 323 324 325 326 326 327 326 329 329 329 330 328 328 327 324 322 321 319 319 317 315 313 312 313 310 307 305 304 304 304 306 309 313 321 324 325 323 322 320 319 319 318
319 320 322 323 324 324 325 325 325 325 326 326 327 328 325 321 320 319 318 316 314 314 312 313 311 309 307 305 303 302 300 301 305 310 314 324 324 323 322 321 320 318 317
318 319 321 322 322 323 323 323 322 323 323 324 324 324 323 321 319 318 316 314 312 312 312 313 311 309 307 305 302 302 302 300 301 303 308 316 323 324 323 321 320 318 316
316 319 319 319 321 321 321 321 321 323 324 323 323 321 320 320 318 317 315 314 313 314 312 314 311 309 305 304 303 302 302 304 302 302 304 308 314 322 323 324 321 319 317
316 317 319 320 320 319 319 319 320 320 322 323 323 321 319 318 318 317 316 315 315 315 313 313 312 309 307 304 301 300 302 304 304 302 304 306 309 313 320 323 323 321 319
316 316 317 318 318 317 317 317 318 318 318 320 321 321 320 320 320 318 317 316 316 315 315 314 312 310 307 305 302 300 300 301 302 305 303 305 308 310 312 320 321 320 319
317 317 316 316 317 317 316 316 317 317 317 318 318 320 321 321 322 319 319 319 319 317 315 314 312 310 308 306 306 303 300 300 299 300 302 305 306 308 308 310 311 311 316
315 315 314 315 314 314 313 314 314 315 315 317 317 319 321 321 323 321 319 319 319 318 316 314 310 309 309 307 302 300 299 299 299 298 299 302 303 305 306 306 306 304 307
314 314 313 312 311 312 314 314 313 316 315 315 317 318 318 320 320 321 320 319 319 317 315 312 310 308 309 305 302 299 296 298 300 300 297 299 300 300 304 304 303 302 298
312 313 313 311 312 312 312 314 311 312 313 312 313 315 316 317 320 321 321 320 318 317 315 312 311 310 308 306 303 304 297 295 296 298 298 297 299 297 300 302 300 300 298
310 313 312 312 311 313 313 309 309 309 310 312 313 312 313 317 318 320 321 320 319 318 315 314 314 312 310 307 306 305 304 302 298 297 299 301 299 300 299 300 299 300 299
310 311 311 312 311 312 312 311 310 309 311 310 309 309 311 313 318 319 319 318 318 318 318 316 313 311 312 310 309 304 304 303 301 299 299 299 303 302 301 300 300 300 299
310 310 311 311 311 312 312 310 310 310 310 309 308 309 312 313 314 317 319 319 319 319 318 317 317 315 314 313 309 308 305 302 301 298 298 300 300 300 301 301 300 299 299

GFSSE_sfc_thetae_066.txt.gz
Theta_e
339 345 347 348 348 348 347 346 347 347 348 349 349 348 348 348 347 347 346 345 344 345 343 342 342 342 341 340 339 338 340 341 340 341 340 339 339 340 340 339 338 336 340
342 344 344 345 346 347 348 347 347 347 348 349 348 347 347 347 346 345 344 344 343 343 340 339 339 340 340 338 338 338 338 337 336 338 337 337 336 339 340 338 339 335 337
341 342 340 342 343 344 346 347 346 348 348 348 347 346 346 345 344 343 343 342 343 342 339 338 338 337 337 337 336 335 335 335 334 334 333 327 328 334 336 335 336 334 334
341 336 337 340 341 342 343 344 346 347 347 346 346 345 345 344 343 343 342 341 342 342 341 339 339 338 337 335 335 334 332 331 330 328 322 326 330 335 335 333 332 331 329
338 336 335 339 340 340 341 342 344 344 345 345 344 344 344 343 343 343 341 341 342 342 340 341 340 338 336 335 333 332 330 329 327 323 319 322 327 330 332 330 328 327 327
331 335 337 336 339 340 341 342 343 342 341 343 342 342 342 342 343 342 340 340 340 339 338 338 339 335 333 332 331 330 328 327 323 317 319 325 324 330 329 326 326 325 325
328 331 336 336 338 340 342 342 341 339 341 341 341 341 341 341 341 340 339 338 335 335 337 337 336 333 332 331 329 328 327 324 317 316 317 318 323 328 328 326 325 324 324
327 330 333 335 339 338 340 339 338 339 339 341 341 340 340 339 339 339 338 335 334 335 337 336 334 332 331 329 328 327 326 324 318 316 317 319 327 327 327 325 324 323 323
332 331 332 333 336 336 336 336 336 335 337 339 339 339 338 337 336 337 335 333 333 336 336 334 332 331 330 328 328 326 325 323 315 316 318 319 327 326 326 325 324 322 321
330 332 332 332 333 329 331 333 333 332 336 338 338 337 336 335 335 333 331 331 331 334 334 333 331 330 329 328 327 326 325 322 315 315 316 321 326 327 325 324 323 322 321
329 332 331 331 330 329 329 329 330 333 333 335 337 335 332 330 327 324 327 329 330 330 331 332 331 329 327 327 326 325 320 315 315 316 317 326 326 326 324 323 322 321 320
326 329 330 330 328 328 328 328 327 329 330 329 332 330 329 326 323 325 327 328 327 327 329 331 330 328 324 320 321 320 314 314 315 316 319 325 325 325 323 322 321 320 319
323 324 328 327 326 325 323 323 325 328 328 328 330 329 326 325 325 322 321 319 320 320 316 319 317 313 311 311 310 311 314 314 315 317 322 325 324 324 323 322 321 319 318
321 323 326 326 325 324 322 320 323 324 326 327 327 328 325 323 320 319 317 315 312 311 311 311 307 307 307 307 309 310 312 312 314 316 321 324 324 323 322 322 321 319 318
320 322 323 326 325 325 322 321 321 322 324 325 326 327 324 321 318 316 316 314 312 311 312 309 307 306 306 304 305 307 308 310 312 315 317 324 324 324 323 321 321 320 318
319 320 322 323 326 326 323 324 325 327 326 327 328 327 323 320 318 316 315 313 312 311 312 310 308 306 304 303 302 302 302 304 308 311 314 319 323 324 323 322 320 320 318
318 320 320 321 324 323 324 323 324 325 326 326 326 324 321 319 316 316 313 312 312 312 314 311 309 307 303 303 302 302 301 301 301 305 310 313 318 322 323 324 321 319 318
317 319 320 322 321 321 321 320 323 324 324 323 323 322 320 319 317 315 314 313 314 313 314 312 309 307 304 302 301 301 302 305 303 302 304 308 312 316 321 323 323 321 319
316 318 319 320 319 319 319 320 320 320 322 322 322 320 318 318 318 316 315 314 315 315 313 313 311 309 306 305 302 301 301 302 305 304 303 304 308 311 314 320 322 322 322
316 318 318 318 318 318 318 318 318 318 318 321 321 319 319 319 319 318 317 316 316 315 314 312 311 310 309 307 305 303 301 301 301 302 303 304 306 309 311 313 317 316 319
316 316 316 316 316 316 316 315 315 315 316 317 318 320 320 320 320 319 318 318 318 316 314 313 311 310 309 307 303 302 302 301 300 299 300 302 304 306 309 310 310 309 313
314 315 315 315 314 315 316 317 316 316 315 316 317 318 320 321 322 321 319 318 318 317 316 313 311 309 309 306 304 300 299 300 300 300 299 299 302 304 306 307 308 307 306
312 314 313 313 313 313 314 314 313 316 313 312 313 315 317 319 321 320 320 319 318 317 315 312 311 310 308 306 304 306 299 297 298 300 300 299 299 301 303 305 305 306 304
311 313 313 312 311 311 311 310 309 313 313 313 313 314 315 317 318 319 320 319 318 317 316 315 313 311 309 307 305 305 303 301 298 299 301 301 300 300 300 302 303 303 302
311 311 313 313 310 312 311 310 310 308 314 312 312 311 312 314 316 316 317 318 318 318 317 315 312 311 311 309 307 304 304 303 302 303 300 300 301 301 301 301 301 300 301
308 310 311 311 311 311 311 310 309 309 309 309 306 307 308 309 311 314 316 316 316 315 315 316 315 313 313 312 310 308 305 303 301 301 300 300 301 302 303 302 301 301 301

GFSSE_sfc_thetae_072.txt.gz
Theta_e
344 350 348 349 351 351 350 348 348 349 349 350 349 349 349 349 349 348 348 348 349 349 347 346 345 345 344 344 343 343 343 343 343 344 344 343 343 343 341 342 341 339 341
346 349 346 348 350 352 350 349 349 349 350 350 349 349 349 349 349 349 348 348 347 347 346 345 344 343 343 341 341 342 342 342 342 342 343 342 341 341 340 340 340 338 338
345 348 349 347 349 350 350 350 349 350 350 349 349 349 349 349 349 348 347 346 346 346 345 343 342 341 340 338 339 339 338 338 338 340 341 336 337 338 337 336 336 335 335
345 345 346 345 346 349 349 349 349 350 349 349 349 349 349 349 347 347 345 344 344 345 343 342 340 340 338 337 337 337 336 336 335 337 336 335 333 335 334 333 333 333 332
344 345 344 341 342 343 347 348 348 348 347 348 347 349 348 347 346 345 343 342 343 344 341 339 338 338 335 336 335 335 334 334 334 334 331 332 332 331 332 330 330 330 330
342 346 340 339 339 342 343 346 348 347 346 346 346 347 347 346 345 343 341 341 341 341 339 338 338 336 335 334 334 333 333 333 334 331 330 330 329 330 330 328 328 327 327
339 341 337 338 339 342 343 345 346 345 344 344 344 344 345 345 344 342 340 340 340 340 339 336 336 334 333 333 332 331 331 331 329 328 328 328 329 329 329 327 326 326 325
338 341 344 339 340 342 341 344 343 343 343 343 343 343 344 343 341 341 340 340 340 339 337 335 334 333 332 331 330 329 328 329 327 327 328 328 329 328 328 327 326 324 324
334 336 343 343 341 337 338 338 338 341 341 341 341 341 340 339 339 340 339 339 339 338 336 334 333 332 331 330 329 328 327 330 328 327 326 326 328 328 327 326 325 324 323
335 334 337 341 341 341 343 335 337 337 338 339 339 338 337 338 336 336 337 339 338 336 334 333 332 331 330 329 327 327 326 327 327 327 326 327 328 327 326 325 324 323 323
333 336 336 339 340 340 339 337 336 337 337 336 336 336 334 337 336 334 335 337 336 334 333 332 331 330 329 328 327 326 326 326 326 326 326 328 328 327 326 324 323 322 322
331 335 338 338 339 335 334 333 332 332 334 332 332 333 334 337 335 330 335 335 333 332 331 331 330 328 326 325 325 325 325 326 326 326 326 328 327 327 325 324 323 322 321
332 335 336 332 333 330 328 327 327 327 326 331 331 331 334 335 332 332 336 335 332 329 326 327 326 325 325 324 324 324 326 325 325 325 326 327 326 326 325 323 322 321 320
328 331 333 333 330 330 328 326 326 324 324 326 328 331 333 331 330 331 332 331 330 328 327 326 325 326 325 324 324 325 325 325 325 325 325 326 327 325 324 323 322 321 319
328 329 329 332 331 328 329 328 326 324 322 326 328 330 332 328 328 327 330 331 330 330 329 327 325 324 323 322 324 324 324 325 326 325 325 325 326 325 325 324 322 321 319
325 326 327 327 328 326 328 326 326 324 323 326 327 328 332 328 327 323 325 327 330 331 330 326 323 322 321 321 322 323 323 324 325 326 325 325 324 325 325 324 323 321 320
323 325 326 325 324 324 324 325 325 326 326 326 326 327 328 327 325 325 323 323 325 327 327 325 323 321 320 320 320 321 322 323 324 325 326 325 324 323 323 325 324 322 320
323 324 325 326 324 324 324 324 325 326 327 327 326 328 326 325 325 324 322 322 324 324 322 321 320 317 318 317 316 317 319 321 322 324 324 325 325 323 322 324 324 324 321
325 326 324 326 323 324 324 324 325 326 326 327 326 325 325 325 326 324 322 323 325 321 321 321 320 319 316 315 315 315 315 315 318 319 322 323 325 324 324 322 323 323 323
324 324 323 324 323 323 323 325 324 325 327 326 325 323 323 323 324 323 322 325 325 322 322 321 320 320 319 316 314 314 316 316 317 316 316 318 322 323 324 324 323 322 321
322 322 323 320 321 322 322 321 319 321 322 324 324 324 324 323 323 324 322 324 325 323 324 324 323 321 319 319 316 315 315 318 317 317 317 316 316 317 321 323 323 323 322
321 321 322 320 320 322 321 322 322 321 324 325 323 323 322 325 323 323 322 323 325 324 326 325 323 320 322 322 318 319 314 316 318 317 318 317 318 317 316 317 318 322 323
319 321 321 321 322 323 324 325 322 320 320 320 321 321 321 322 324 322 321 320 322 324 323 324 324 323 321 322 322 320 315 313 320 321 319 318 317 316 316 313 315 317 319
321 320 322 320 322 322 322 320 322 321 316 321 319 320 321 321 322 321 320 320 322 324 324 326 325 325 325 322 321 322 324 322 315 313 317 318 317 315 311 313 315 315 317
322 321 320 321 323 321 320 321 320 321 317 319 320 319 319 320 322 322 322 322 322 323 326 327 325 326 326 324 324 322 320 319 319 316 313 316 316 314 311 309 310 312 313
323 322 322 322 322 322 322 320 319 318 318 317 316 318 317 318 319 321 322 324 325 324 327 327 326 327 327 326 324 325 322 319 318 317 316 316 315 315 313 310 309 311 312

GFSSE_sfc_thetae_075.txt.gz
Theta_e
343 352 349 350 351 352 350 349 349 349 350 351 349 349 350 350 349 349 348 348 348 348 346 346 346 346 346 345 344 345 345 345 344 344 344 344 344 343 342 343 342 338 341
346 351 347 349 350 352 350 349 349 349 350 350 349 349 349 349 349 349 348 348 349 349 347 345 345 345 344 343 344 344 344 343 342 342 343 342 342 342 341 341 340 337 338
346 349 349 347 348 350 349 350 350 350 350 350 349 349 349 349 348 349 348 347 348 347 345 345 344 343 342 341 341 342 343 342 342 342 342 336 337 339 338 337 337 336 336
345 347 347 346 348 347 347 349 349 350 350 349 349 350 350 349 349 348 346 345 345 346 344 344 343 340 339 339 339 339 338 339 339 339 335 333 334 337 337 335 335 334 334
347 347 347 344 340 337 333 333 346 348 348 348 348 349 350 349 348 347 345 344 345 345 343 343 340 338 337 337 336 337 336 336 337 335 332 333 332 332 333 333 332 332 332
347 346 341 336 336 335 332 328 341 346 346 346 347 348 349 348 347 345 343 344 344 344 341 340 338 336 335 335 335 334 334 334 334 330 329 331 331 332 331 330 329 329 328
346 348 344 336 337 337 334 336 332 344 345 346 346 346 346 346 344 342 341 342 342 341 340 337 335 334 334 334 333 333 333 332 329 327 327 328 328 330 330 329 327 327 327
344 347 341 338 337 336 340 330 331 341 343 344 344 344 344 343 341 340 340 340 340 339 338 337 334 333 333 333 331 330 328 330 328 326 327 327 330 329 329 327 326 325 325
342 344 347 345 340 338 338 333 331 339 341 343 343 342 341 340 339 340 340 340 338 337 337 335 334 333 332 331 329 329 327 330 327 326 325 326 328 328 328 326 326 325 325
340 340 342 345 343 341 342 337 336 337 338 339 341 340 338 338 339 339 338 338 337 336 335 333 333 332 330 329 328 328 326 327 326 325 326 326 328 328 327 326 325 324 324
338 337 336 343 343 344 343 340 337 337 337 337 338 337 334 336 337 337 336 336 335 334 333 333 332 330 329 328 327 327 327 326 326 325 326 328 328 327 326 325 324 324 323
334 337 340 340 340 340 336 335 335 337 339 336 335 334 332 332 337 336 336 334 333 332 331 331 330 328 325 323 324 325 326 326 326 325 325 329 327 327 326 324 323 323 322
333 335 337 339 340 338 337 337 336 334 334 334 330 330 331 331 334 335 335 333 331 329 325 326 326 323 324 322 324 326 326 326 325 325 325 328 327 326 325 324 323 322 321
332 333 336 335 334 333 332 329 332 333 330 328 327 329 330 329 332 336 332 332 326 325 324 323 323 327 325 324 325 326 326 325 325 324 325 327 327 326 325 324 323 321 320
330 331 335 335 333 332 329 325 325 326 327 329 328 328 329 328 330 331 332 331 327 328 326 324 325 324 324 324 325 325 325 326 326 324 324 326 326 326 324 324 323 321 320
329 330 332 334 332 331 329 327 325 323 324 325 326 327 328 328 328 331 332 330 330 330 327 325 325 323 322 323 324 325 325 326 326 325 324 324 325 326 325 324 323 322 320
327 328 330 329 333 329 329 328 325 322 323 325 325 327 327 327 329 331 332 331 330 331 331 328 324 323 321 321 322 323 324 325 326 325 324 323 323 323 325 326 324 322 321
327 326 328 329 327 327 327 325 324 323 322 324 326 326 326 327 328 329 328 329 331 331 328 324 322 320 320 320 320 321 322 323 324 325 324 325 323 322 322 324 325 325 322
328 327 327 325 324 324 325 325 325 323 324 325 326 325 325 326 327 327 326 327 330 327 327 324 322 320 318 318 318 319 320 320 322 322 323 324 327 324 323 322 323 323 324
327 328 327 325 325 323 323 325 324 324 324 325 324 324 326 327 327 327 325 326 325 323 323 322 323 321 320 318 315 315 317 318 319 320 321 322 323 324 325 325 322 321 321
326 325 327 324 324 323 323 321 321 320 322 325 324 323 324 325 326 325 325 327 327 323 323 326 323 323 320 321 316 316 317 320 320 318 319 319 321 322 325 323 324 322 321
325 323 325 324 325 324 322 323 323 322 323 324 324 322 322 324 324 324 325 325 326 323 326 327 326 322 322 323 316 316 312 315 318 320 321 319 321 319 319 322 324 325 324
324 324 325 324 322 324 325 325 324 324 323 322 322 323 322 323 323 323 325 326 327 326 325 326 327 325 321 322 324 322 315 312 320 321 321 321 321 321 320 320 320 321 323
324 326 324 323 324 323 325 322 320 318 317 319 321 321 320 322 324 323 324 325 326 327 324 328 328 327 324 319 321 322 325 324 314 314 321 321 323 320 321 320 317 316 319
326 324 326 322 324 323 324 324 320 319 319 322 321 319 319 320 322 323 323 322 321 323 323 326 326 326 325 322 320 325 321 321 323 317 312 317 320 321 320 320 317 315 315
327 325 325 323 323 324 323 326 324 325 322 320 319 318 317 318 319 321 321 321 320 321 320 324 327 326 326 325 320 325 321 319 318 318 317 318 318 320 319 316 314 314 311

GFSSE_sfc_thetae_078.txt.gz
Theta_e
346 347 350 352 353 351 350 349 349 349 350 350 350 351 350 349 348 348 348 348 348 349 346 347 349 347 347 346 347 347 346 344 344 345 345 345 344 344 343 343 342 338 343
349 348 349 350 351 352 350 349 349 350 350 350 350 350 349 349 348 348 348 348 348 349 348 347 347 346 346 345 345 345 344 343 343 344 344 343 343 342 341 341 340 337 339
349 347 346 348 349 351 351 350 350 351 351 350 350 350 349 349 349 348 348 348 348 349 347 346 345 344 344 344 344 344 343 342 342 341 341 334 335 340 339 339 338 337 337
344 349 346 345 347 349 348 341 346 348 350 349 349 350 349 349 349 348 347 346 346 347 345 345 344 342 342 343 342 342 343 342 338 337 332 333 333 338 338 337 336 335 334
345 348 346 344 339 341 334 333 333 337 348 348 349 349 349 349 349 348 346 345 345 347 345 344 341 340 339 338 339 340 341 339 338 333 329 330 331 334 335 334 332 332 332
345 348 340 338 339 339 335 335 334 334 334 346 347 349 349 349 348 347 344 343 345 346 343 341 339 337 337 336 336 336 335 334 333 327 328 330 328 334 332 331 330 330 330
345 349 340 337 338 336 336 336 334 333 330 340 346 347 347 347 346 345 343 342 343 343 341 338 336 336 335 334 334 332 331 331 327 323 324 325 326 331 331 330 328 328 328
345 348 346 337 336 339 336 337 333 331 331 335 344 345 346 345 343 342 341 341 340 340 338 336 335 335 334 333 331 328 328 329 325 323 323 323 329 329 329 328 327 326 326
346 344 345 341 339 337 336 335 332 330 329 335 343 343 342 340 340 341 340 340 339 337 336 335 334 333 333 331 328 327 327 330 323 322 323 323 329 328 328 327 326 326 325
340 342 344 346 342 339 339 334 332 332 330 334 341 340 338 338 339 339 338 338 338 337 335 333 333 333 331 329 327 327 327 330 321 321 322 324 329 328 328 327 326 326 325
337 339 340 342 342 341 341 338 334 335 328 335 339 337 334 336 337 336 335 335 335 335 334 333 331 330 328 327 327 327 327 321 322 322 322 328 328 328 327 326 325 324 324
333 336 338 338 339 338 338 337 335 334 334 333 335 335 335 334 334 334 334 333 333 333 332 331 330 328 325 319 320 324 320 323 322 321 322 328 328 327 327 325 324 324 323
334 335 338 339 339 337 334 336 333 334 334 333 333 331 330 331 331 332 331 330 329 330 327 326 324 320 318 318 319 320 322 323 321 321 324 327 327 327 326 325 324 323 322
332 334 335 335 334 333 332 333 335 334 333 330 329 328 327 327 329 330 328 326 323 323 322 321 319 320 318 318 321 322 320 322 321 321 323 326 327 326 325 325 323 322 321
331 332 333 334 332 330 327 326 331 330 331 328 328 328 327 327 327 328 328 321 320 320 320 318 319 320 320 318 321 321 321 322 320 321 321 326 326 326 325 325 323 322 321
330 331 334 333 332 329 327 325 323 325 328 326 326 328 327 328 328 328 327 320 321 321 319 318 321 320 319 320 320 321 322 321 320 320 320 321 324 326 326 324 324 322 321
328 331 332 332 332 329 327 325 324 324 324 325 325 327 327 327 327 327 326 323 324 322 320 321 321 319 318 319 319 320 321 323 321 320 319 320 321 323 324 325 324 323 321
327 327 330 330 330 328 328 326 324 324 324 323 325 326 326 326 327 327 326 325 326 323 323 322 319 317 317 316 316 317 318 319 321 320 320 319 319 320 323 324 325 324 323
327 326 328 327 326 327 327 324 323 322 323 323 323 322 322 325 325 325 325 327 328 325 324 320 319 316 316 315 316 316 316 316 318 321 320 318 319 319 320 323 324 323 323
327 327 327 326 324 324 325 323 322 321 323 324 324 323 324 324 325 324 324 326 324 323 321 319 318 318 315 315 315 314 314 315 317 317 318 321 319 319 318 319 320 320 322
327 326 325 323 322 323 322 321 320 319 321 322 323 323 324 323 323 323 321 322 322 320 317 318 319 316 315 316 312 311 311 313 313 312 317 317 318 320 319 320 318 318 319
324 325 324 324 323 322 323 322 322 321 322 322 323 321 322 322 322 322 321 320 319 318 318 320 319 316 316 316 311 310 307 310 313 315 313 314 314 317 318 319 318 318 318
324 323 324 324 324 323 323 323 322 322 321 320 321 319 320 321 322 322 322 322 321 320 321 320 320 318 315 315 317 314 309 307 310 313 314 314 312 314 313 316 317 319 319
323 324 324 324 323 323 323 322 320 318 316 319 319 321 319 321 321 319 322 322 322 322 321 321 323 321 320 315 316 318 319 317 309 308 315 315 315 315 314 314 314 314 315
325 324 323 323 322 323 323 322 321 319 319 320 321 321 320 319 320 321 320 323 322 322 323 323 322 322 320 318 316 317 316 316 316 311 308 313 315 316 315 314 314 312 312
325 324 323 322 323 322 323 323 322 321 319 318 319 318 317 318 319 320 321 322 322 322 322 323 324 322 320 319 317 317 315 313 313 312 310 311 311 314 316 314 313 310 310

GFSSE_sfc_thetae_081.txt.gz
Theta_e
343 348 350 351 351 350 349 349 349 350 350 352 352 350 349 349 349 349 349 349 349 350 350 349 349 350 348 348 349 347 346 346 345 346 346 345 344 344 343 342 342 339 344
344 347 349 351 351 350 350 349 349 350 350 351 351 350 348 348 348 349 348 348 348 349 348 348 347 346 347 346 346 345 345 344 343 344 344 343 343 342 342 341 342 340 343
344 346 349 349 350 350 350 350 350 350 350 351 350 349 349 349 348 348 347 347 348 349 348 346 345 345 346 346 344 344 343 341 340 340 340 335 336 340 339 339 340 339 339
344 343 344 347 350 350 349 349 350 351 350 351 350 349 349 349 348 348 348 347 348 349 347 344 345 344 345 344 343 343 341 339 338 337 333 334 335 339 338 337 337 337 337
343 344 344 344 347 343 341 341 345 346 343 348 349 350 349 349 349 349 346 346 346 347 346 345 343 343 343 341 341 341 338 337 335 332 330 331 332 335 336 334 333 332 332
340 343 339 341 341 340 339 340 339 337 335 333 338 348 349 349 349 347 345 345 345 346 345 342 342 341 340 339 339 338 335 335 331 325 328 331 330 334 333 331 332 330 330
339 339 337 338 339 341 339 340 338 337 336 333 331 339 346 348 346 345 344 343 344 344 342 340 340 338 338 336 335 333 331 331 325 323 322 327 328 332 331 330 329 329 328
338 337 337 338 339 338 339 338 336 337 334 335 332 330 343 345 344 343 342 341 342 341 339 338 337 337 336 334 332 329 329 328 325 322 321 323 329 330 330 329 328 327 327
336 336 334 335 337 337 335 336 334 333 334 330 328 333 340 342 341 341 341 341 340 339 337 337 336 335 334 332 330 327 328 327 322 322 323 323 329 329 329 328 327 327 327
335 333 335 336 334 332 332 333 332 331 331 329 329 330 339 339 340 339 339 338 338 337 336 335 334 333 332 329 327 328 327 326 321 320 321 324 328 329 328 328 327 326 326
332 332 332 337 337 332 332 331 333 332 331 331 332 332 335 337 337 336 336 335 336 335 334 334 333 331 329 327 327 327 324 321 321 321 321 328 328 329 328 327 326 326 325
327 329 331 332 332 334 336 331 330 331 328 328 329 335 335 334 333 333 334 334 334 333 333 331 330 328 323 318 319 322 320 320 320 321 322 328 328 328 327 325 325 325 324
327 331 331 332 331 332 332 330 330 330 328 327 331 332 333 333 332 331 331 330 329 330 326 325 323 319 316 316 316 317 320 320 320 321 324 324 327 327 327 326 325 324 323
326 328 332 332 330 331 330 328 328 330 330 329 331 331 329 329 329 329 327 327 326 322 320 318 317 316 314 317 318 319 319 319 320 320 323 326 327 327 326 326 325 324 323
325 326 328 330 329 326 324 323 326 329 331 330 330 330 328 328 328 327 326 324 322 322 318 316 316 315 315 316 318 318 319 319 319 320 320 325 326 327 326 326 325 323 322
326 325 327 329 327 323 323 323 326 328 329 329 328 327 327 329 329 326 321 319 319 319 316 316 317 315 314 316 317 318 319 319 319 319 319 321 324 326 326 325 324 324 322
325 326 326 326 327 323 321 323 324 326 327 327 327 326 327 328 328 324 319 317 317 317 314 317 318 317 316 317 316 318 319 318 318 319 318 318 320 323 324 325 324 323 323
325 325 326 329 326 325 321 321 323 325 325 326 326 326 327 327 327 325 318 319 318 319 315 318 318 315 314 315 314 315 317 318 317 318 318 318 317 318 322 324 325 325 323
324 324 324 325 326 325 323 321 322 323 324 324 326 325 325 326 326 326 321 322 320 320 317 319 317 315 314 313 314 313 314 317 317 318 317 317 316 317 318 322 323 323 323
322 323 323 324 326 325 323 322 321 322 323 324 324 324 325 325 325 325 324 324 323 320 319 317 316 314 314 315 316 314 313 314 316 316 316 317 317 317 318 319 320 319 321
322 321 321 322 323 323 321 319 318 319 321 321 321 321 322 323 323 324 323 323 323 321 317 316 314 313 311 313 310 309 309 310 312 313 315 316 316 316 317 318 319 319 319
320 320 319 321 322 323 322 321 320 320 321 321 321 319 322 321 321 320 321 321 320 318 316 314 315 314 312 313 309 308 303 307 309 310 309 314 315 317 316 317 317 318 318
319 320 319 320 321 322 323 322 321 321 321 320 320 319 320 320 321 321 320 320 318 319 316 316 316 314 312 313 312 311 306 304 306 309 309 308 310 311 315 317 317 316 317
318 321 320 321 320 321 323 321 319 318 316 319 319 318 319 320 320 320 319 319 317 317 316 317 318 316 315 311 313 317 315 313 306 305 311 310 311 310 310 311 316 317 317
319 318 319 321 322 322 322 322 320 318 319 319 320 317 317 318 319 317 319 318 317 318 318 318 318 318 318 314 311 312 312 312 312 309 306 310 314 313 313 312 313 313 316
318 317 319 319 320 321 322 322 320 319 318 317 317 317 317 317 315 316 319 320 320 319 319 319 320 320 319 317 315 315 313 311 311 309 307 307 309 313 315 314 312 312 310

GFSSE_sfc_thetae_084.txt.gz
Theta_e
342 348 349 350 350 350 349 349 349 350 351 351 351 351 351 351 350 351 350 350 351 352 350 350 351 351 351 349 349 348 348 347 346 346 346 345 345 344 343 343 343 339 344
344 348 347 349 350 350 350 349 349 350 351 351 350 349 349 350 349 350 349 350 351 351 349 349 349 349 347 347 347 346 345 344 343 344 345 344 343 343 343 342 342 340 343
343 347 348 348 350 350 350 350 350 351 351 351 350 349 349 349 349 349 348 349 349 350 349 348 347 347 346 346 345 344 343 342 341 341 342 336 336 342 342 342 342 341 340
343 345 348 348 348 350 349 349 350 351 351 350 349 349 349 349 348 348 347 347 348 349 348 346 346 345 346 344 342 341 341 340 338 338 334 334 335 339 339 339 338 338 337
340 342 345 347 347 349 349 349 349 349 349 349 348 346 347 348 348 348 347 346 347 346 343 346 345 345 343 341 340 339 338 337 335 333 331 333 333 336 337 336 335 334 333
340 341 342 343 345 346 345 348 346 341 339 336 334 333 339 343 349 348 346 346 346 346 346 346 344 343 341 338 337 337 334 333 332 329 331 332 330 335 333 332 332 331 332
337 338 340 341 341 343 343 343 341 340 338 336 332 331 337 340 344 346 345 345 345 344 344 344 343 341 339 337 335 334 332 331 324 324 327 329 329 333 333 331 329 329 329
335 335 338 340 339 340 342 341 340 339 338 335 334 333 339 338 341 343 343 342 342 342 342 341 340 338 336 334 332 332 330 328 324 322 325 326 331 332 331 330 328 327 327
335 333 333 335 338 338 337 337 335 336 337 335 336 335 337 337 338 340 340 341 341 340 340 339 338 335 334 332 331 329 328 327 321 321 322 324 330 329 329 329 328 327 327
332 332 331 334 336 332 332 335 334 335 333 332 335 334 337 337 337 339 338 340 339 338 338 337 335 334 332 330 329 328 327 327 320 318 320 324 330 329 329 328 328 327 327
329 329 332 334 334 331 329 331 333 333 332 331 333 333 332 330 335 336 336 337 337 336 336 335 333 331 329 330 329 328 325 320 320 320 321 328 329 329 329 327 327 326 326
325 327 330 334 333 332 331 329 328 330 329 327 328 327 330 334 334 336 335 335 335 334 333 332 331 329 323 320 324 325 320 320 320 320 321 328 329 329 328 326 326 326 326
326 327 328 330 331 332 332 328 329 326 327 325 327 329 333 333 334 332 332 331 331 331 327 326 324 317 316 317 319 319 319 320 320 320 324 328 329 329 328 326 326 325 324
325 327 328 329 328 327 330 330 328 328 325 325 331 332 332 331 330 330 329 328 326 322 320 318 315 314 314 316 319 319 319 318 319 319 322 327 328 327 327 327 326 325 324
324 326 327 327 327 329 327 327 328 328 327 329 330 331 331 329 329 328 327 326 324 322 318 314 313 313 314 316 319 318 317 318 318 319 319 325 326 327 327 327 326 325 323
325 325 325 324 325 323 321 324 327 330 328 329 330 329 330 329 327 326 325 323 322 320 318 316 315 312 313 315 318 318 318 318 318 318 320 322 325 326 327 326 325 325 324
325 325 324 322 321 319 319 322 326 328 329 328 329 329 329 328 326 323 321 319 320 317 316 316 314 313 313 315 317 317 317 317 317 318 317 317 321 323 325 326 325 323 323
325 324 324 325 320 319 320 323 324 326 328 328 327 327 328 328 326 321 318 317 318 313 314 314 315 313 314 314 315 316 316 317 317 317 317 317 316 319 322 324 325 325 323
325 325 325 323 321 320 320 322 323 325 324 326 326 326 327 328 325 319 317 317 317 312 313 316 314 314 313 313 314 315 315 315 316 318 316 315 315 316 316 323 323 323 324
324 325 325 325 324 321 320 321 322 323 324 325 325 325 326 327 326 321 318 319 319 312 314 316 314 314 315 314 315 314 315 315 314 315 315 317 315 315 316 317 319 319 321
322 322 322 324 324 322 319 318 318 319 321 322 324 325 326 326 326 323 321 320 320 315 316 316 313 314 312 313 309 308 308 313 313 313 314 314 315 316 315 316 317 317 318
321 321 320 322 324 322 321 320 320 320 321 322 322 323 324 324 324 324 321 322 320 320 316 315 312 310 310 311 310 306 303 306 310 311 313 313 313 316 316 317 317 317 317
319 319 319 320 323 323 322 321 320 320 320 319 319 319 321 322 322 324 322 321 321 319 316 314 313 313 310 311 311 309 304 302 304 307 308 313 312 313 314 315 316 317 317
318 318 318 320 321 322 322 320 318 317 314 317 319 319 320 320 319 320 321 320 320 318 316 315 315 313 312 310 310 315 313 311 303 302 308 307 309 312 314 314 315 315 316
318 318 317 320 320 320 322 321 319 318 319 320 317 313 317 318 319 318 319 318 318 321 317 317 315 314 313 312 310 312 311 312 310 307 304 307 310 310 310 312 315 315 315
318 318 318 318 318 319 321 321 320 318 318 318 317 315 316 317 317 317 318 318 317 319 319 317 317 316 316 313 312 313 312 311 309 308 304 305 307 310 313 311 310 312 315

GFSSE_sfc_thetae_087.txt.gz
Theta_e
342 346 348 350 350 350 349 349 349 349 351 352 353 352 352 351 351 351 350 350 351 352 351 352 352 351 351 348 348 348 348 347 346 346 346 346 346 345 344 343 343 339 344
342 346 347 349 350 349 349 349 349 350 351 352 352 351 351 351 351 350 351 351 351 351 349 350 352 350 349 347 347 347 346 344 344 345 346 344 344 343 342 342 343 340 343
342 346 346 347 349 350 349 349 350 351 351 350 350 350 351 350 350 350 350 349 350 348 348 350 350 348 347 346 345 345 344 343 342 342 342 337 337 342 342 341 342 341 340
343 345 345 347 348 349 349 349 350 350 350 350 350 350 347 347 348 347 348 348 348 348 349 348 348 347 346 344 343 342 341 341 339 339 334 334 336 341 341 340 339 339 338
341 344 346 346 347 348 349 349 349 349 348 348 348 348 347 346 345 347 347 347 348 348 345 347 347 345 343 341 340 339 339 337 336 334 332 333 334 337 338 336 336 334 334
339 340 343 344 346 348 348 348 348 347 342 341 343 343 343 343 343 344 344 344 346 346 346 347 344 343 340 338 338 337 336 335 333 330 331 333 332 336 335 333 334 333 332
336 338 340 342 345 347 348 347 346 340 337 335 337 338 336 338 338 339 341 343 344 344 346 345 343 340 339 337 336 334 333 333 328 327 327 329 330 334 333 331 330 329 328
335 335 340 342 343 343 345 344 341 339 336 335 335 336 335 336 339 338 340 341 343 342 343 341 341 338 336 335 334 332 330 329 325 325 327 328 333 333 331 329 329 328 327
333 332 337 338 339 340 339 339 336 338 336 335 335 336 338 336 336 337 339 339 341 340 340 340 339 335 335 334 332 330 328 327 321 322 324 327 332 332 330 329 328 327 327
331 330 331 333 336 336 333 336 335 334 335 336 336 335 336 336 335 336 337 337 338 340 339 338 336 333 334 332 330 328 327 326 319 320 322 325 330 330 329 328 327 326 326
328 328 328 334 334 333 330 332 335 336 334 334 335 336 333 331 335 333 334 335 337 337 337 335 333 331 332 330 329 328 325 319 319 319 321 329 328 330 329 327 327 326 326
324 326 329 329 330 331 331 328 326 329 328 328 330 331 333 331 333 333 333 334 335 335 335 333 330 330 328 325 325 324 319 319 319 319 320 328 328 329 329 327 327 326 326
324 325 327 329 331 329 329 327 327 328 328 326 325 326 327 328 332 333 333 333 332 332 329 327 322 320 322 321 318 317 319 319 320 321 323 328 329 329 328 327 326 326 325
322 324 326 327 330 331 329 327 326 326 326 324 327 326 326 329 329 331 331 330 328 327 323 320 315 315 317 318 318 317 319 319 319 320 323 327 328 328 328 328 327 326 324
322 324 325 326 326 327 329 328 327 326 324 325 329 328 328 329 329 331 329 328 325 323 321 317 313 314 316 317 317 317 318 319 317 319 320 326 327 328 328 328 327 326 324
324 325 325 326 326 325 326 328 328 327 325 326 329 329 330 331 330 329 327 324 323 322 318 316 313 313 315 317 316 317 318 318 317 316 319 322 325 327 328 327 326 325 324
325 327 325 323 321 321 321 325 328 328 327 328 328 329 330 330 328 327 325 322 321 321 318 317 312 312 314 317 315 316 317 317 316 317 317 318 321 323 325 327 326 324 324
324 325 323 324 318 317 320 322 325 328 328 328 329 329 328 328 327 325 322 320 319 317 316 316 313 312 314 316 314 316 316 317 316 316 316 316 317 318 322 325 325 325 324
324 324 323 319 317 318 319 320 323 326 327 328 327 328 328 327 325 322 320 318 315 314 315 315 313 313 313 313 314 314 314 314 315 317 315 315 315 316 316 323 323 323 323
324 325 324 319 317 318 320 322 322 324 324 327 326 327 328 326 323 319 318 317 316 312 314 313 312 312 312 314 315 314 313 313 314 314 314 316 315 315 315 316 317 317 321
325 324 322 321 319 318 318 318 319 319 322 323 325 326 327 326 322 318 318 316 315 312 314 314 312 311 310 312 309 308 309 312 312 313 314 314 314 315 315 315 316 315 318
323 322 322 321 319 318 319 318 319 320 321 322 323 325 326 326 322 319 319 316 315 312 315 313 312 310 310 311 310 306 304 307 309 312 312 314 314 315 315 315 315 316 315
321 320 320 321 321 319 319 320 320 318 320 319 319 322 322 325 324 321 320 318 317 313 315 314 313 311 309 310 312 308 302 302 305 308 311 312 312 313 315 315 316 316 316
321 321 320 321 320 321 320 318 318 316 316 318 319 320 321 321 323 322 320 320 319 318 315 315 314 314 312 310 309 312 311 309 304 302 308 310 313 312 313 314 315 315 316
321 319 318 319 320 320 320 320 319 318 317 318 319 318 319 319 320 322 321 320 320 319 317 315 313 312 312 311 308 311 311 311 309 306 303 306 308 312 314 313 314 314 315
318 318 317 318 320 320 319 320 319 318 317 316 316 316 317 318 318 318 320 319 319 319 316 316 315 313 312 312 312 312 311 310 309 308 305 306 306 308 311 312 313 314 314

GFSSE_sfc_thetae_090.txt.gz
Theta_e
338 342 347 349 349 348 349 349 350 351 353 353 352 352 352 352 352 351 351 351 351 353 353 352 352 352 351 349 349 349 347 346 345 346 347 347 347 346 345 344 344 341 345
339 343 346 349 349 349 349 349 350 351 353 354 353 352 352 351 351 351 351 351 352 353 352 352 352 352 349 348 347 347 346 345 344 344 346 345 345 345 344 343 343 342 344
340 344 345 347 349 349 349 349 350 351 352 353 352 352 352 351 351 351 350 350 351 352 351 350 351 349 347 347 346 346 345 344 344 344 344 338 338 343 344 342 343 343 343
341 343 343 347 348 348 348 349 349 350 348 349 352 351 349 349 349 348 348 348 349 350 351 350 350 348 346 345 344 344 343 342 340 340 336 336 337 342 342 342 341 341 340
341 343 344 346 346 348 348 348 349 349 349 349 350 348 348 348 348 348 347 347 348 349 349 348 348 346 344 342 342 341 340 339 337 334 332 333 336 339 340 339 337 337 336
339 342 342 343 345 348 348 348 348 348 347 347 346 347 348 347 346 345 345 345 346 347 346 347 347 344 341 340 339 339 337 336 333 330 332 336 334 338 336 335 336 335 334
335 338 342 341 344 347 348 347 347 345 344 343 343 344 344 343 344 342 342 342 342 345 345 345 344 341 339 338 338 336 335 334 328 327 328 330 332 335 334 332 333 332 331
334 335 341 344 344 345 345 343 341 340 340 341 341 341 340 340 339 340 341 340 340 341 343 343 341 340 338 337 335 333 332 331 327 326 328 330 335 333 333 331 329 329 328
332 336 340 342 344 342 340 340 337 337 337 338 338 337 337 337 338 339 340 340 341 341 341 341 339 337 336 335 333 331 329 328 322 325 327 329 334 331 331 331 329 328 327
330 333 336 337 340 340 340 337 337 336 335 335 336 337 335 334 334 338 338 337 338 340 340 339 336 336 334 332 330 329 328 325 319 321 323 329 332 332 331 329 327 327 327
330 329 333 335 335 335 335 337 337 337 335 335 336 336 333 332 333 333 335 336 338 336 337 336 334 334 332 330 330 328 324 318 319 319 322 331 332 331 329 328 327 326 327
326 329 330 333 332 330 333 329 329 331 330 329 330 330 334 330 329 331 332 333 335 335 335 332 332 332 329 325 325 324 319 319 319 320 322 329 331 329 328 327 327 327 325
325 327 330 329 330 327 329 327 324 326 327 326 327 331 331 328 331 329 329 332 334 334 329 327 329 326 324 323 318 318 318 319 319 320 324 328 331 330 328 327 328 327 326
321 325 328 331 330 329 329 328 327 327 326 326 326 327 330 327 330 329 329 331 332 330 324 320 320 322 321 319 317 317 318 318 318 320 324 327 327 329 328 328 328 327 326
320 322 325 329 330 330 328 327 326 325 325 324 326 325 327 329 328 329 330 331 328 327 322 316 316 319 317 317 317 317 317 318 318 320 321 326 327 329 328 328 328 327 325
322 322 324 327 327 328 329 327 327 326 325 324 326 327 326 328 328 328 329 328 325 325 322 316 316 317 316 317 315 316 317 317 317 319 320 323 325 327 328 327 327 326 325
323 324 326 327 323 325 326 326 327 327 326 325 326 328 327 327 328 328 328 325 324 321 316 313 313 315 315 316 315 315 316 317 317 318 318 320 322 324 326 327 326 325 324
323 325 327 327 322 319 318 325 328 328 326 326 327 329 329 329 329 328 325 323 323 320 317 313 313 314 315 315 314 315 315 316 316 317 318 318 319 320 323 325 326 325 325
324 326 324 323 321 321 322 322 325 327 327 327 328 328 328 327 327 325 323 320 320 319 318 314 313 315 314 314 314 314 314 315 315 317 316 316 317 318 319 323 323 323 324
323 326 324 321 319 319 319 320 322 324 325 327 327 328 327 325 324 322 320 317 318 317 316 314 313 314 315 315 315 312 312 313 315 315 315 316 316 317 317 319 320 319 321
324 324 323 319 318 318 318 317 318 319 322 324 326 327 327 325 321 319 318 316 315 315 314 313 311 312 311 314 311 308 309 311 313 313 314 315 315 316 316 317 318 317 319
323 324 323 320 317 317 318 318 316 321 322 323 324 325 327 324 321 319 317 316 313 313 314 312 312 310 310 314 309 307 304 308 311 312 313 314 314 316 316 317 316 317 317
322 323 322 321 319 318 318 318 318 320 320 319 321 323 325 323 321 320 318 316 313 313 313 313 311 310 311 311 314 309 303 304 307 310 311 313 313 313 316 316 316 317 317
322 323 322 321 319 318 319 318 317 316 315 318 320 321 322 322 320 320 318 316 314 313 314 314 314 311 312 309 310 311 311 309 306 303 308 311 313 313 314 315 316 316 316
322 321 321 321 320 319 318 318 316 315 314 319 319 319 319 321 320 320 318 316 316 315 315 315 313 312 313 312 310 311 311 310 309 305 303 306 310 313 314 314 315 316 316
322 320 319 319 319 319 318 318 316 316 314 317 317 317 318 318 320 320 320 318 316 315 315 315 315 313 313 313 313 312 311 309 308 308 306 306 307 309 314 315 314 314 315

GFSSE_sfc_thetae_093.txt.gz
Theta_e
344 348 347 346 348 349 350 350 351 352 353 353 353 353 352 353 352 352 352 353 353 353 353 352 353 352 352 350 351 349 348 348 347 348 348 348 348 347 346 347 345 344 346
346 349 346 347 348 349 350 350 351 351 351 353 352 352 352 352 352 352 352 352 352 353 352 351 354 353 351 349 349 348 347 346 345 345 347 347 346 346 345 346 344 344 345
346 349 348 346 348 348 350 350 351 352 354 353 352 352 352 352 352 351 352 351 351 352 353 351 352 351 349 348 347 347 346 345 345 345 345 344 343 345 345 345 344 344 344
346 347 348 346 347 349 349 350 349 350 353 353 353 352 352 352 351 352 351 350 350 352 352 350 350 348 348 346 345 345 345 344 342 342 341 341 340 343 343 343 343 343 342
345 345 347 344 346 347 349 349 349 347 349 351 350 350 349 348 348 348 347 348 350 351 352 351 349 348 346 343 343 342 341 340 339 339 338 340 341 342 342 341 341 341 340
343 345 344 343 345 347 348 349 349 347 347 348 348 348 349 348 348 345 345 345 346 349 350 349 348 345 343 342 341 340 338 337 338 339 340 341 340 339 338 336 338 337 337
342 344 343 341 344 346 347 348 347 346 346 346 347 348 348 347 346 345 343 342 344 345 347 347 345 343 341 339 339 337 336 336 339 339 339 338 337 337 337 335 334 334 334
345 343 342 345 344 344 345 345 345 344 343 343 344 344 344 344 343 342 342 341 340 342 344 344 342 341 339 338 336 334 333 334 336 336 336 335 336 334 333 334 332 332 331
344 344 342 345 345 342 341 340 340 341 340 341 340 341 341 339 339 340 340 341 341 341 342 342 340 339 338 336 334 332 331 332 335 334 333 333 336 335 332 330 330 328 328
342 340 340 344 346 348 346 338 338 338 338 338 339 338 335 335 336 337 336 339 339 339 341 340 338 337 336 333 331 330 329 329 333 333 333 333 335 333 332 330 330 329 328
335 336 339 340 342 345 341 339 338 337 336 336 337 336 333 336 336 336 334 335 338 337 338 338 336 335 332 331 330 329 328 330 331 330 331 332 333 333 331 329 328 327 327
333 333 336 338 341 342 340 341 337 336 336 336 338 338 338 338 338 336 337 335 336 334 336 335 334 332 332 333 330 327 329 329 328 329 330 332 332 331 330 329 327 327 327
332 333 333 334 337 341 337 338 335 335 334 334 334 336 338 338 338 337 338 340 338 334 333 333 333 334 333 331 329 329 328 329 328 328 329 330 331 330 329 327 327 328 328
331 331 333 333 332 336 337 336 334 332 332 332 335 337 337 335 335 335 334 337 337 333 329 331 333 332 331 329 328 328 328 326 326 327 327 328 330 329 330 329 328 328 327
331 334 332 333 332 332 331 332 332 333 331 333 331 333 336 331 332 335 332 335 331 328 325 328 329 330 329 327 326 327 326 327 327 327 327 326 328 329 328 329 330 328 327
331 331 335 331 334 331 329 329 330 330 329 329 330 330 334 332 334 334 332 332 332 326 323 326 329 328 327 327 326 326 326 326 327 327 327 326 326 328 330 330 329 328 327
330 331 331 331 333 331 329 329 329 330 330 328 328 331 332 333 333 333 329 329 330 328 322 324 326 326 326 325 325 325 325 326 325 326 327 327 325 324 326 329 329 328 326
330 329 332 331 328 329 329 329 329 329 329 330 330 330 329 329 330 328 328 327 326 321 319 321 324 323 324 324 323 324 323 324 325 326 327 327 326 324 324 326 327 327 326
330 330 331 330 326 327 327 328 329 329 328 330 331 330 330 329 328 328 327 326 324 320 319 322 322 323 322 322 322 322 322 323 325 325 326 326 326 324 324 324 324 323 325
329 331 332 328 326 327 327 325 327 329 329 330 329 329 329 327 327 328 325 324 324 321 320 322 321 322 322 322 319 320 322 323 324 324 325 325 325 325 325 325 324 323 322
327 329 330 324 323 323 320 320 322 323 325 328 329 331 328 325 323 321 322 322 324 322 321 322 320 321 320 322 319 318 319 321 321 322 324 323 323 324 325 325 325 324 323
325 328 327 322 322 322 322 323 323 322 324 326 327 327 326 323 322 322 322 321 322 320 317 318 321 319 320 320 318 316 311 315 317 320 321 321 322 323 323 324 324 324 324
324 327 325 323 322 322 322 322 323 324 323 323 325 326 325 323 322 321 322 320 320 320 317 319 320 320 315 319 320 318 312 311 313 317 319 320 321 321 321 322 322 322 323
324 328 325 323 322 322 321 320 322 319 318 322 323 324 324 323 322 320 318 316 316 318 317 317 318 320 320 316 318 317 320 318 313 309 314 316 318 319 320 320 320 321 323
326 327 325 323 322 320 320 320 320 319 320 323 323 322 323 323 322 320 318 316 314 316 316 315 316 319 320 320 317 316 316 315 316 314 310 312 315 318 319 319 321 321 322
326 326 324 323 321 321 319 320 321 318 318 322 321 320 320 319 320 319 318 317 315 314 316 316 316 316 318 321 319 319 315 314 313 314 312 313 314 316 317 319 320 321 322

GFSSE_sfc_thetae_096.txt.gz
Theta_e
343 350 347 348 349 350 352 352 352 353 353 353 353 353 353 353 353 354 354 354 353 354 354 352 351 351 350 349 350 351 350 349 349 349 348 349 349 348 347 348 347 346 346
344 352 346 348 349 349 351 351 352 353 353 354 351 353 353 353 353 353 353 353 353 354 352 352 352 351 350 352 350 349 348 347 346 347 348 348 348 347 347 346 346 345 346
347 352 350 347 348 350 350 351 352 353 354 353 352 351 351 353 353 353 353 352 353 354 353 352 352 351 350 349 348 347 347 346 345 345 346 346 345 346 346 346 345 345 345
345 349 351 346 347 349 350 351 351 354 354 353 353 350 353 353 353 352 352 350 351 353 354 352 352 351 349 347 347 346 346 344 344 344 344 344 343 345 344 344 344 342 342
345 349 350 345 346 348 349 350 349 351 352 352 352 352 350 351 351 350 350 349 351 353 353 352 351 349 346 345 344 344 343 342 341 343 342 344 343 343 343 343 341 342 341
346 348 345 343 345 347 349 350 349 348 349 350 349 348 350 349 347 347 346 347 350 350 350 350 349 347 344 342 341 340 340 339 339 341 339 342 341 342 342 339 340 339 338
347 350 350 341 344 346 349 350 348 347 347 348 348 348 349 349 348 346 345 346 344 344 346 347 347 344 342 340 340 338 338 338 340 338 339 338 339 339 338 338 337 337 336
349 350 350 344 344 344 346 347 346 345 346 344 346 346 347 347 345 344 343 343 341 340 340 343 342 342 340 339 337 336 336 337 338 337 337 338 338 338 336 335 334 334 333
352 351 350 349 346 342 342 342 342 343 343 343 344 344 344 342 342 342 341 341 341 338 338 340 340 339 338 337 335 334 334 336 337 336 335 334 336 336 335 333 333 332 331
351 352 347 347 347 350 350 339 340 341 341 341 341 339 338 339 339 340 339 339 340 341 340 340 339 337 336 335 333 332 332 334 336 336 334 335 336 334 333 331 330 331 330
346 348 345 345 349 351 350 346 340 340 339 339 339 336 335 343 342 339 337 338 340 339 338 337 337 336 333 333 332 331 331 336 335 333 333 334 335 333 332 331 330 329 328
341 342 343 344 348 349 348 349 347 346 344 345 345 342 343 344 342 338 336 334 335 335 336 335 335 333 333 336 335 331 334 335 335 334 332 333 335 333 332 329 329 328 329
341 341 341 342 345 348 345 346 343 342 342 341 343 342 342 341 339 339 339 340 340 337 340 333 332 336 337 337 333 334 334 335 332 331 330 332 334 332 331 330 328 329 329
339 340 340 340 340 346 346 342 341 340 338 337 338 341 340 340 339 339 338 340 340 341 338 336 332 336 337 336 335 334 333 332 331 330 329 330 331 332 330 329 330 330 329
337 340 340 339 339 344 344 341 340 339 338 339 336 338 338 338 337 337 339 340 339 338 336 335 331 334 335 334 333 332 332 331 330 329 329 328 329 331 330 330 329 330 329
336 339 342 336 338 341 341 340 337 337 340 339 337 336 338 338 337 337 338 338 337 335 334 331 333 334 334 333 332 332 330 330 329 328 328 328 326 328 330 330 330 329 328
334 338 342 339 339 337 339 338 339 335 338 337 334 334 335 339 338 336 337 335 332 330 332 330 332 333 332 331 331 331 330 328 327 327 327 327 327 325 328 330 330 329 328
332 336 339 339 336 336 338 334 334 334 334 335 335 334 334 336 336 335 333 335 332 328 329 326 329 329 330 329 329 329 327 326 327 327 327 328 328 327 326 327 328 329 328
331 335 338 340 336 336 336 335 334 336 332 333 334 334 335 334 334 332 331 331 326 325 325 326 329 330 328 327 327 328 326 326 327 326 325 327 328 327 326 325 326 325 326
328 334 337 339 336 334 334 333 332 333 331 334 335 334 334 334 331 329 329 327 324 321 321 323 327 329 330 327 324 324 325 327 327 325 325 326 327 327 326 325 326 324 323
324 330 335 337 334 331 329 328 328 328 329 331 335 333 333 330 328 328 327 325 323 321 320 323 327 327 326 328 322 321 322 324 324 324 325 326 325 326 327 327 326 325 324
323 329 333 336 331 331 333 333 330 328 329 331 332 331 332 329 324 326 326 324 323 321 320 322 327 325 324 326 321 320 314 317 321 324 323 324 324 324 324 325 326 325 325
325 328 331 335 329 330 335 333 329 329 328 328 329 328 324 323 323 323 324 324 323 322 321 325 327 325 322 324 326 321 314 312 318 322 322 324 324 323 323 324 325 325 325
325 329 331 333 326 329 333 331 330 326 323 326 325 329 326 326 323 323 321 322 322 324 325 324 326 328 325 321 324 325 324 322 315 313 320 323 324 322 323 322 323 325 326
325 329 332 329 326 327 329 333 329 328 326 326 327 328 327 325 325 321 322 323 324 324 324 327 327 328 326 325 321 321 321 322 323 317 313 317 321 322 323 323 323 323 324
324 330 331 325 324 326 329 330 330 328 325 324 325 326 322 322 321 321 319 319 321 323 322 322 321 321 321 324 323 324 321 318 318 316 313 316 316 320 322 323 323 323 324

GFSSE_sfc_thetae_099.txt.gz
Theta_e
338 349 348 350 350 351 352 353 353 353 353 353 354 354 354 354 354 354 354 354 354 355 355 353 353 351 350 349 350 351 351 350 349 349 350 350 349 348 348 348 347 345 347
342 350 347 349 350 350 351 352 353 353 353 354 354 353 353 353 354 354 354 354 354 355 353 352 351 351 350 350 351 350 349 347 347 347 349 349 348 347 346 346 346 344 346
344 352 350 348 350 350 351 351 352 355 354 354 353 352 351 353 353 354 353 353 353 355 353 352 352 351 350 350 349 348 347 347 346 346 346 344 345 347 346 346 345 345 345
343 350 350 347 348 350 350 351 352 354 355 354 353 352 352 353 351 353 352 352 353 354 354 352 352 350 349 348 347 347 346 345 344 344 344 343 343 346 345 344 344 342 342
342 347 351 346 347 349 350 351 351 353 353 352 352 352 353 353 350 350 348 349 352 354 352 351 350 349 347 345 345 345 344 343 342 343 341 342 343 344 344 343 343 342 340
343 346 344 343 346 348 350 350 350 351 350 348 349 351 350 350 351 349 346 346 349 348 350 348 348 347 345 344 343 343 342 342 341 340 341 342 341 343 342 341 340 339 338
343 348 350 343 344 347 349 350 348 348 349 349 349 348 348 350 349 348 346 344 344 342 342 342 345 344 341 339 339 340 339 340 339 338 340 342 342 341 341 339 338 338 337
346 349 350 344 344 345 347 348 346 346 346 344 346 346 347 348 347 346 346 344 343 342 341 341 340 340 338 338 337 337 337 338 338 337 340 340 340 340 339 337 337 336 335
351 351 352 349 346 342 343 344 344 345 345 344 345 345 345 344 343 344 343 342 342 341 341 338 337 337 337 336 335 335 335 336 338 337 337 337 339 337 337 335 334 333 333
352 352 351 351 349 349 349 341 342 342 343 342 342 341 341 340 341 341 340 341 340 339 339 337 337 338 337 335 333 332 333 333 336 336 334 335 338 336 335 334 333 332 331
348 350 350 350 350 350 350 347 342 342 341 340 341 339 338 347 343 340 338 339 340 338 338 337 338 336 334 334 332 331 333 337 334 332 334 334 336 334 331 332 331 330 329
343 347 347 349 349 349 347 350 349 347 346 346 345 346 349 346 345 341 338 337 338 338 337 337 335 334 333 335 337 332 336 336 333 332 334 334 335 333 333 331 330 329 329
341 344 346 346 349 348 347 348 347 347 345 346 346 346 346 342 347 345 341 337 337 335 337 336 335 333 333 334 338 336 337 333 332 332 332 333 335 333 332 331 330 329 331
338 342 345 346 347 348 346 345 345 345 345 344 345 346 345 343 343 341 339 341 343 343 336 337 336 333 331 334 336 337 333 333 329 332 330 331 333 333 331 330 330 330 330
333 341 345 345 344 347 345 343 343 342 342 342 340 343 344 341 341 341 341 342 341 340 340 338 333 333 330 332 336 333 332 331 330 331 330 329 330 332 330 331 330 331 330
330 338 346 343 342 346 344 345 342 343 343 343 339 339 341 342 341 340 339 339 340 339 339 333 332 331 330 331 334 332 330 329 329 330 329 327 327 330 331 331 331 331 330
327 334 344 344 341 344 344 343 341 340 341 340 340 342 338 339 339 338 340 339 338 339 336 335 332 330 329 333 331 330 329 329 327 327 328 327 327 326 328 330 331 330 329
326 331 341 343 339 340 343 342 340 339 340 339 340 341 339 340 337 334 335 336 339 337 336 332 332 328 328 331 328 328 327 326 326 327 326 327 327 326 326 328 330 330 329
325 329 337 344 342 338 340 341 340 340 339 338 338 338 339 338 338 338 336 336 338 333 333 330 331 328 326 328 326 326 326 323 325 324 326 326 328 327 326 326 326 326 328
325 329 335 341 343 340 338 338 335 335 335 337 338 335 335 337 336 336 336 332 332 330 330 327 328 327 328 326 323 324 325 327 327 326 325 325 326 327 327 328 327 325 324
323 327 333 339 342 338 334 332 332 332 332 335 334 336 336 336 336 334 330 327 326 324 324 326 328 324 324 329 323 323 324 327 325 325 326 325 326 325 326 325 326 325 324
321 322 328 334 339 338 333 334 335 333 333 336 335 334 335 335 335 331 328 326 324 323 322 323 324 324 327 327 322 319 314 317 322 323 324 324 328 324 324 325 325 325 325
321 323 324 330 336 338 336 336 336 335 332 332 331 333 334 334 334 329 326 325 323 323 321 322 324 323 322 326 325 320 313 311 316 321 323 323 325 323 323 324 326 325 327
321 324 327 329 334 336 338 336 334 330 327 329 331 330 331 330 325 325 325 325 323 322 321 323 326 324 325 322 325 324 324 321 314 313 321 321 323 322 325 323 324 325 325
321 324 329 330 333 334 337 337 334 332 331 330 329 328 327 325 325 323 323 323 322 322 322 323 324 326 327 324 323 322 324 323 323 318 313 316 322 323 323 324 324 324 324
322 324 329 330 334 333 333 336 334 333 331 327 326 326 327 325 322 322 324 322 322 322 323 324 328 327 326 325 325 326 322 320 318 318 316 318 318 321 323 324 325 325 326

GFSSE_sfc_thetae_102.txt.gz
Theta_e
339 346 350 352 353 353 354 354 353 352 353 354 354 354 354 354 354 354 355 354 355 356 356 354 353 351 351 351 352 351 351 350 348 349 351 352 349 349 348 348 347 345 348
344 346 348 350 352 352 353 354 353 353 353 354 354 354 354 354 354 354 354 354 355 356 354 353 352 350 351 351 351 350 349 347 347 348 349 349 349 347 347 347 346 345 347
345 346 347 348 350 351 351 352 354 354 354 354 354 354 354 354 354 354 353 353 354 353 353 352 352 351 351 350 348 348 347 347 346 346 347 342 343 347 347 346 346 346 346
346 347 347 348 349 351 351 352 353 354 355 354 352 352 353 353 353 353 353 352 352 353 352 352 352 351 349 348 347 347 346 345 345 344 342 342 343 346 346 344 345 344 343
346 347 346 346 347 350 351 351 352 353 353 353 351 353 352 351 352 353 350 350 349 348 351 350 350 350 347 345 345 344 344 344 343 342 340 340 341 344 345 343 343 342 341
343 350 343 344 346 349 350 350 351 352 352 351 350 351 351 351 351 350 346 345 344 343 345 346 347 346 344 343 343 343 342 341 338 338 338 341 339 343 343 341 340 340 339
346 349 344 343 345 348 349 350 348 349 350 350 349 349 350 350 350 348 347 344 343 342 340 341 342 342 340 340 342 341 338 338 338 336 337 338 338 343 342 339 339 339 338
349 350 345 344 345 345 347 348 346 346 347 347 347 348 349 349 347 346 346 345 342 339 337 337 340 339 338 337 337 336 334 337 338 336 336 337 340 341 340 338 338 337 336
352 349 346 345 344 344 343 344 344 344 345 344 345 345 346 345 344 343 343 343 342 341 341 341 340 338 337 337 335 334 332 334 335 335 336 335 340 340 338 337 335 335 334
351 352 348 348 345 345 345 341 342 343 343 342 344 343 342 342 342 342 341 342 342 342 341 340 339 337 337 336 335 332 331 332 333 333 334 334 339 339 337 335 334 332 333
348 349 351 350 347 348 347 344 342 342 342 341 342 341 339 343 342 341 340 340 340 339 338 337 337 336 335 334 334 334 331 332 332 332 333 336 338 337 336 334 333 332 331
345 346 348 349 348 350 345 345 345 345 343 343 344 342 344 343 341 340 338 338 338 337 337 336 336 334 334 333 332 333 331 332 330 331 332 335 337 335 333 332 331 330 330
342 345 344 346 349 349 345 347 346 345 344 343 344 344 343 340 340 338 336 337 335 336 335 335 333 332 332 332 331 331 333 330 331 331 331 333 335 334 332 331 329 329 330
339 343 344 344 346 347 348 347 345 343 343 341 344 344 342 340 339 337 336 334 335 335 334 332 332 332 330 331 331 331 330 330 330 330 330 331 333 334 332 329 329 330 331
336 340 342 343 344 346 348 343 344 343 342 340 343 343 341 339 338 337 336 336 335 335 333 332 331 331 330 330 332 331 331 330 329 328 329 330 331 332 330 330 330 331 331
332 339 343 342 343 345 345 343 342 341 341 341 339 340 342 339 337 336 334 334 336 334 334 333 332 330 328 330 330 330 329 329 329 327 327 327 328 330 330 330 331 331 330
325 339 342 342 341 342 344 344 341 339 341 340 339 339 340 339 339 336 334 334 335 334 334 332 330 330 328 329 329 329 328 325 325 326 325 325 325 326 328 331 332 332 330
322 330 343 343 340 340 343 343 339 338 339 339 339 338 337 337 337 336 334 334 333 334 333 330 327 327 327 327 327 327 324 324 322 324 325 324 323 325 326 328 330 330 330
319 328 341 342 339 338 340 342 341 338 337 337 338 338 338 337 336 335 333 333 332 332 331 330 328 325 325 325 326 326 323 320 321 324 323 323 323 323 323 326 326 327 328
319 326 342 342 339 338 338 340 338 338 336 336 336 335 335 337 336 335 333 332 331 331 330 329 327 327 326 325 327 325 320 319 319 319 322 324 323 323 322 323 323 323 324
322 327 336 341 341 337 334 333 332 332 332 332 335 335 334 334 333 333 331 330 331 329 328 329 327 325 323 325 321 320 321 322 320 320 320 323 323 323 323 324 323 322 322
322 323 327 338 341 339 335 334 332 331 332 332 332 334 334 333 333 332 330 328 329 327 327 327 325 323 323 324 319 315 311 315 318 320 319 320 322 322 323 323 323 322 321
324 325 322 330 339 339 336 334 333 333 332 330 332 331 332 332 332 331 329 327 326 325 324 324 324 322 320 322 322 316 311 308 313 318 319 318 318 321 320 321 321 322 320
322 325 324 323 330 339 335 332 331 329 327 329 330 330 331 331 331 330 328 327 325 325 323 324 325 323 322 318 321 321 318 317 311 309 317 318 319 320 319 320 320 320 320
323 324 325 324 325 337 334 334 332 331 330 330 329 329 328 328 327 325 325 325 323 324 323 323 323 323 323 320 319 318 317 318 316 312 309 312 316 318 317 318 318 317 320
321 323 326 327 325 336 335 334 333 332 329 328 327 326 325 323 325 323 323 323 325 323 322 322 323 323 323 322 321 320 318 315 314 313 311 312 311 314 318 317 317 318 318

GFSSE_sfc_thetae_105.txt.gz
Theta_e
339 347 349 351 353 353 352 351 351 351 352 354 354 353 353 354 354 354 354 355 356 357 355 354 354 353 353 352 353 352 350 349 349 350 351 352 349 349 349 349 348 345 348
342 347 348 350 352 353 353 352 351 352 353 354 354 353 353 353 354 353 354 354 355 356 354 352 353 351 352 351 350 349 349 348 347 348 349 351 350 349 348 348 347 345 347
342 346 348 348 350 352 353 353 352 353 354 354 354 353 353 353 353 353 353 353 354 353 353 352 351 351 351 350 348 348 348 346 345 346 347 342 343 347 347 347 346 347 347
341 344 345 347 349 350 351 352 353 354 354 354 353 353 353 353 352 351 352 352 353 352 351 351 351 350 348 348 347 347 346 345 344 344 342 342 343 346 346 345 345 345 345
341 344 345 346 347 349 350 351 352 352 353 352 352 353 353 352 353 351 350 348 347 348 347 347 349 348 346 344 344 344 343 343 342 341 339 340 341 344 344 344 344 342 343
342 343 342 343 346 348 350 350 350 351 350 350 350 352 352 352 350 350 346 346 345 343 343 343 343 344 341 340 342 341 340 340 338 337 337 342 340 344 343 341 341 341 340
341 341 342 342 344 347 349 349 349 350 349 349 349 350 350 351 350 347 345 345 342 339 342 342 341 341 339 340 340 339 337 335 337 335 336 337 339 343 342 340 339 340 339
340 340 341 344 344 345 347 346 346 347 348 348 348 348 349 348 346 346 344 343 337 339 341 340 336 338 340 339 337 335 334 336 336 335 335 336 342 342 341 339 338 338 337
342 339 339 341 343 343 343 343 342 344 344 344 345 345 346 344 343 343 343 343 341 339 338 340 337 338 339 338 337 334 333 334 334 334 335 336 342 341 339 337 335 335 335
340 339 337 337 339 338 338 341 341 342 342 342 343 342 341 342 342 342 342 342 339 338 338 341 339 337 336 335 335 333 332 332 334 333 334 335 339 340 338 336 334 332 333
342 340 339 338 338 338 338 340 341 342 341 340 341 340 338 340 340 340 340 340 339 339 340 339 337 336 334 334 333 333 332 330 332 332 333 337 340 339 338 335 333 333 332
337 339 341 339 339 340 342 337 336 339 336 336 338 337 338 337 338 339 338 338 339 338 337 337 336 334 333 330 332 333 330 330 330 331 333 336 339 339 337 333 331 330 331
340 340 340 340 340 341 341 337 338 337 335 335 336 337 337 336 335 335 336 336 336 335 333 333 332 330 329 329 330 329 331 330 329 330 333 334 337 337 335 333 330 329 329
340 340 339 339 339 339 342 340 339 338 336 335 335 337 334 334 333 332 334 334 332 332 330 330 329 327 327 328 328 329 330 329 328 329 331 331 334 334 333 332 330 330 330
337 340 339 339 339 340 341 341 339 336 337 336 336 337 336 334 333 332 331 334 332 332 330 329 328 328 326 327 329 331 330 330 329 329 330 330 331 333 332 331 330 331 330
337 339 339 339 339 339 338 337 336 338 336 335 335 335 335 333 334 333 332 333 333 331 330 330 329 327 326 326 327 330 330 329 328 328 328 328 328 330 331 330 330 332 330
332 339 338 338 338 339 337 336 334 335 335 333 333 338 334 333 333 332 331 330 331 330 329 329 328 327 325 327 327 329 329 329 327 327 327 326 326 326 327 330 331 331 329
316 336 338 340 338 337 336 336 334 333 333 334 333 333 334 333 332 331 330 330 331 329 330 328 329 326 324 325 326 327 328 327 326 326 325 325 323 323 325 328 330 331 331
310 337 337 338 336 336 335 336 333 332 332 335 335 334 334 333 332 330 330 331 330 328 329 328 326 327 323 324 326 326 326 324 324 325 323 323 322 321 322 326 327 327 328
307 337 338 337 335 335 336 334 333 332 330 330 333 334 334 334 333 330 328 328 327 328 327 328 325 325 324 323 326 326 325 322 322 321 321 322 322 321 321 322 325 323 325
307 335 337 335 334 333 333 330 331 329 328 327 329 332 333 333 332 331 329 327 326 326 326 326 325 322 321 323 322 321 320 320 317 320 320 320 320 321 321 322 322 321 322
310 329 336 335 333 333 333 333 330 332 330 331 328 328 330 331 331 330 328 327 326 327 326 326 325 323 323 324 320 317 312 315 317 317 319 320 319 321 321 322 322 321 320
312 314 333 336 333 333 332 332 328 328 329 328 329 328 327 328 329 328 326 326 327 328 327 327 326 324 320 323 322 316 310 308 311 315 316 318 320 320 321 321 321 321 320
314 317 316 334 335 333 332 330 327 326 325 327 328 328 326 328 326 328 326 325 327 327 326 326 326 324 323 320 321 322 317 316 310 307 314 315 317 319 320 321 320 320 320
312 314 316 318 326 334 331 330 328 326 326 326 327 328 325 324 326 326 328 326 325 325 325 325 325 324 323 321 320 318 316 316 315 311 307 310 313 316 317 318 318 318 319
307 309 311 313 317 328 331 330 328 326 326 324 325 323 322 323 322 324 324 324 325 324 324 324 325 324 322 322 322 319 317 314 313 311 310 310 311 313 316 315 316 318 317

GFSSE_sfc_thetae_108.txt.gz
Theta_e
342 346 350 351 351 351 350 350 350 351 352 353 353 353 354 354 354 354 355 355 355 356 355 353 354 354 354 351 353 351 349 349 348 350 350 350 350 350 349 349 348 345 349
343 347 348 351 352 351 351 350 350 351 353 353 352 352 353 353 353 354 354 355 355 355 353 352 353 353 352 351 350 349 348 347 348 348 349 350 349 349 348 347 347 345 346
343 347 348 349 351 352 352 351 352 352 353 353 353 352 353 353 353 353 353 354 354 353 352 351 351 349 351 350 349 348 348 347 346 346 347 343 343 347 347 346 346 346 346
344 346 346 348 350 351 351 351 351 353 353 353 353 353 352 352 353 352 352 351 350 350 351 350 350 350 349 348 347 347 346 345 344 344 341 340 343 346 347 345 345 345 345
342 344 345 347 347 349 350 350 351 352 352 352 352 353 352 353 353 352 349 348 349 350 351 349 349 348 346 345 344 345 344 343 342 340 338 339 342 344 346 345 345 344 343
339 342 343 344 346 349 349 351 351 350 349 349 350 352 352 353 352 351 347 346 347 347 347 347 348 346 343 343 342 342 340 340 339 336 339 342 341 345 344 342 343 343 342
338 341 342 342 345 348 349 350 350 349 348 348 349 350 351 351 351 347 345 345 345 346 346 346 346 344 342 340 340 340 338 338 336 336 335 338 340 344 342 341 341 341 340
337 340 341 343 344 345 347 347 346 347 347 347 347 348 350 349 347 345 343 342 343 343 342 342 342 342 341 340 339 337 336 337 336 333 336 336 342 342 341 340 338 338 338
338 338 339 340 343 342 341 342 342 344 346 346 345 345 346 344 343 344 341 338 339 342 341 338 338 338 339 339 337 335 334 336 333 334 336 337 342 341 340 338 336 335 336
336 336 336 337 338 338 340 339 341 341 341 342 344 343 342 341 342 342 340 339 340 341 339 338 336 337 337 336 335 333 332 334 332 331 332 337 341 340 338 336 334 333 334
334 334 334 335 335 335 336 340 341 342 341 340 342 341 338 341 339 340 339 337 338 337 338 338 337 335 335 334 334 332 332 334 333 331 331 338 340 340 338 335 333 332 331
332 333 334 334 335 334 339 336 335 338 336 335 337 338 339 337 337 339 338 337 337 337 337 338 336 334 333 329 331 333 332 332 332 331 333 336 340 340 338 335 332 331 332
336 336 336 335 336 336 337 335 335 333 332 333 334 336 335 336 337 337 338 337 335 336 335 334 332 329 327 327 330 329 331 330 331 331 334 334 338 339 337 334 331 330 331
337 338 337 337 337 338 337 335 335 334 332 332 333 335 334 333 332 333 335 335 334 331 328 328 326 326 326 326 328 329 330 330 330 331 332 332 336 338 336 334 331 329 329
336 338 338 338 337 338 337 336 336 335 334 333 334 335 334 332 331 332 332 333 333 330 329 327 325 325 325 325 326 328 328 330 330 331 331 330 332 335 334 333 331 330 329
338 338 339 338 339 339 339 337 336 336 335 334 335 335 332 333 331 331 331 331 331 331 329 328 326 325 324 325 324 328 329 330 329 329 330 329 329 331 332 332 331 330 330
337 339 338 338 339 337 339 338 336 336 335 333 335 334 333 333 332 330 330 329 329 331 330 327 325 325 323 325 324 326 328 328 328 328 328 328 327 326 328 330 331 332 330
335 337 338 339 337 338 337 337 336 336 335 333 334 336 333 332 332 330 329 329 330 328 328 327 327 327 325 325 324 324 325 327 327 328 328 326 326 325 325 327 329 331 330
328 336 337 337 335 338 337 336 334 334 333 333 332 332 335 332 331 331 330 329 329 328 327 327 328 328 325 324 324 323 325 325 325 328 326 325 323 320 321 325 326 327 328
311 334 336 336 335 337 335 333 331 331 331 333 332 331 333 333 331 330 329 328 328 327 328 328 328 327 324 324 324 324 323 323 324 325 324 324 322 321 320 322 325 324 324
306 330 334 334 334 335 333 331 329 329 328 330 332 332 332 333 331 330 328 327 326 326 327 327 326 324 322 324 322 321 321 320 320 322 323 322 321 320 319 321 322 324 324
307 327 333 334 333 334 336 335 332 332 329 329 330 332 332 331 331 331 328 327 325 324 324 325 325 322 322 324 320 319 314 315 317 320 319 319 319 320 320 320 321 321 321
312 316 330 331 332 334 335 333 327 326 326 325 326 327 329 331 330 330 329 328 325 326 325 326 325 323 320 323 322 317 310 309 313 315 317 318 317 318 319 320 320 321 320
307 311 313 329 332 332 329 331 328 328 325 328 328 327 328 329 328 328 326 326 325 327 327 327 327 325 321 319 321 321 316 315 310 309 314 316 318 318 318 319 319 320 320
302 304 308 309 317 322 329 330 328 328 328 324 325 325 327 327 327 328 325 325 325 327 327 326 325 325 323 322 321 319 316 315 314 313 309 311 314 319 318 319 319 319 319
300 300 303 303 306 310 316 330 329 327 324 323 324 324 325 326 326 327 326 326 326 325 324 325 325 325 324 323 322 320 317 314 312 312 309 310 312 312 315 318 318 318 318

GFSSE_sfc_thetae_111.txt.gz
Theta_e
339 345 349 351 352 351 350 350 349 350 351 352 353 354 354 354 354 353 353 354 354 354 354 353 354 354 354 352 353 351 350 349 348 350 350 350 350 350 349 349 348 345 348
342 346 348 350 351 351 351 350 350 351 352 352 353 353 352 353 354 354 353 354 354 355 353 352 354 353 351 350 350 349 349 348 347 348 349 350 349 348 348 347 347 345 347
341 346 348 349 350 351 351 351 351 352 352 352 352 353 353 353 354 354 354 353 352 353 352 351 351 351 351 350 348 348 348 347 346 347 348 342 343 347 347 347 347 347 346
343 345 347 348 349 350 350 350 351 353 352 352 352 353 353 353 354 354 353 350 351 352 352 351 350 350 350 348 347 347 347 345 345 344 340 342 343 346 346 346 346 345 345
342 344 346 347 348 350 349 350 351 351 351 351 351 353 353 353 353 353 351 349 351 352 352 350 350 349 347 345 345 345 344 343 342 340 339 342 342 344 346 345 345 344 344
341 343 344 344 347 349 350 350 350 350 349 349 350 352 353 353 352 351 347 347 349 351 351 350 349 347 344 343 343 343 342 341 339 336 339 342 341 345 345 343 343 343 342
337 341 343 342 345 348 350 350 349 348 347 348 349 350 351 352 351 347 346 346 347 348 349 349 347 344 343 342 341 340 339 338 336 335 338 339 340 345 344 343 343 342 342
336 339 342 344 344 345 348 347 346 346 346 347 348 348 350 349 347 345 345 344 345 345 345 345 344 343 341 341 339 337 337 337 336 335 338 338 343 343 342 341 341 339 339
336 337 339 341 343 343 342 343 343 345 345 345 345 346 346 344 343 344 343 343 343 343 342 342 341 341 340 339 337 335 335 335 333 333 337 338 342 342 341 339 338 337 336
334 335 336 336 338 338 339 340 341 342 343 343 343 343 342 342 342 341 340 341 341 341 341 339 337 338 339 337 335 334 334 335 333 332 333 337 342 341 339 338 336 335 334
332 333 334 336 335 335 335 339 342 343 342 341 342 341 338 340 341 339 335 338 340 340 338 337 336 335 335 335 334 332 334 332 332 332 333 337 341 340 338 336 334 333 333
329 330 333 334 334 334 338 335 334 339 338 339 340 340 338 337 338 338 336 337 337 337 336 336 335 334 332 329 332 332 332 333 332 332 334 337 341 339 337 335 333 332 332
331 331 331 333 333 334 336 336 332 332 332 333 334 337 335 335 337 336 336 334 332 335 331 333 331 327 326 326 328 328 329 332 332 333 334 335 338 339 338 335 332 331 331
330 330 331 332 333 334 334 335 333 332 329 330 333 334 335 334 333 335 336 335 333 333 331 328 327 325 324 325 326 327 329 329 330 332 333 332 336 339 338 335 333 331 329
332 332 332 332 333 334 334 333 332 331 330 330 332 334 334 333 332 334 335 334 333 331 328 325 324 324 323 323 324 326 327 329 330 331 331 330 333 337 336 335 333 331 330
334 335 334 333 334 335 334 333 333 333 331 330 332 333 333 333 332 333 332 332 332 329 326 326 324 322 322 323 325 327 327 327 329 330 331 330 329 332 335 334 332 331 330
334 336 336 335 335 335 335 334 334 334 333 332 332 332 332 332 330 331 331 330 330 329 325 324 322 322 321 323 322 324 326 326 327 330 329 329 329 327 329 332 331 331 330
335 335 336 338 336 336 336 335 335 335 334 332 333 333 331 331 330 329 329 329 328 328 327 324 324 324 325 323 320 322 324 325 326 328 328 328 327 327 326 328 329 331 330
334 336 336 336 335 335 337 337 335 334 334 332 333 333 331 331 330 329 328 328 327 327 327 325 326 324 324 323 324 323 323 322 325 328 327 327 326 323 322 325 326 327 328
327 334 336 336 335 336 335 333 330 332 332 332 332 333 332 332 330 329 328 326 327 326 325 325 324 326 325 323 325 324 324 321 324 326 326 327 325 321 320 320 322 324 324
303 328 334 334 334 335 333 331 330 330 331 331 332 332 332 331 329 329 328 326 326 326 326 326 326 326 324 324 321 321 322 321 323 324 325 325 323 321 320 320 321 323 324
309 311 325 333 333 335 334 333 333 333 329 331 331 330 331 331 330 329 328 326 325 325 326 326 325 323 323 323 319 319 313 315 319 321 322 322 321 321 320 320 320 320 323
302 305 321 329 332 333 333 333 327 327 326 323 329 330 330 330 331 330 328 328 326 327 326 326 325 323 321 322 323 317 311 310 314 317 318 319 319 319 319 320 319 320 319
299 302 306 323 332 333 333 333 329 329 327 328 328 331 332 330 329 331 330 328 327 327 327 327 326 325 323 320 321 323 317 315 311 308 316 317 318 318 317 318 319 319 318
297 298 302 306 309 312 329 333 330 329 329 324 324 324 328 329 329 329 329 329 328 328 328 327 326 325 324 323 321 320 317 316 316 312 310 312 316 317 318 318 318 319 319
296 296 298 300 303 306 308 316 329 328 327 323 324 323 324 326 328 329 328 327 327 327 326 327 327 326 325 323 323 322 320 315 313 312 311 312 313 315 318 318 318 318 318

GFSSE_sfc_thetae_114.txt.gz
Theta_e
336 345 349 351 352 351 350 349 350 350 352 354 354 354 354 354 353 353 353 354 355 356 354 354 355 354 354 356 353 352 351 350 349 351 351 351 351 350 349 350 349 346 349
338 346 348 350 351 351 350 350 350 351 352 353 354 354 353 353 353 353 353 354 355 354 353 353 354 354 353 354 351 350 349 348 348 349 350 351 350 349 349 348 347 347 348
341 345 347 349 350 351 351 350 351 352 353 353 353 353 353 353 353 353 353 353 354 355 353 352 353 351 351 350 349 349 348 348 347 348 349 343 345 348 347 347 347 347 347
342 345 346 348 350 350 350 350 351 352 352 352 352 353 353 354 354 354 352 351 352 354 354 352 351 351 350 348 348 347 347 346 345 345 342 344 345 348 347 346 346 347 346
341 344 345 347 348 350 350 350 350 350 350 351 351 353 353 354 354 353 350 350 352 353 353 352 351 350 347 346 346 346 345 344 342 341 342 343 343 345 347 346 347 346 345
341 344 343 344 346 349 349 350 350 349 348 349 350 352 353 354 354 352 349 349 351 353 352 352 351 348 344 344 344 343 342 341 339 338 341 343 342 346 346 345 344 343 343
339 341 343 343 345 348 350 350 349 348 347 348 349 350 351 352 352 349 347 348 350 351 351 350 348 345 343 343 343 341 340 339 337 337 340 341 341 345 345 344 343 343 342
338 340 342 344 345 346 347 347 346 346 346 347 348 349 350 350 347 346 346 346 347 347 348 347 344 343 342 341 340 338 337 338 337 337 340 340 342 344 344 343 342 341 340
336 339 342 343 344 343 343 343 343 344 345 345 346 346 347 345 343 344 344 345 345 344 344 344 342 341 341 340 338 336 335 336 335 336 339 340 343 344 342 341 339 339 338
333 337 338 340 341 340 342 341 341 342 342 343 343 343 342 342 342 342 342 343 343 342 343 342 340 340 339 338 336 335 334 335 334 335 335 338 342 343 342 339 338 336 337
332 334 336 337 339 337 337 341 343 343 342 341 342 341 338 340 340 340 338 340 340 340 339 338 338 337 336 336 335 334 334 334 333 333 334 337 342 343 340 338 336 335 334
327 331 334 336 337 336 338 340 341 343 343 342 340 339 338 338 337 336 335 337 338 337 336 335 334 335 333 330 331 334 332 332 332 332 332 336 341 341 338 336 335 333 334
327 330 333 334 335 336 337 337 338 340 339 339 337 337 335 338 337 333 331 333 332 335 331 332 330 328 326 328 328 328 331 332 333 333 333 334 339 341 338 336 334 333 332
326 328 331 333 333 334 336 336 336 336 334 335 336 335 336 336 336 336 333 331 330 329 328 328 326 325 324 326 327 327 329 330 331 333 333 332 336 340 338 336 334 332 330
327 328 329 331 332 333 333 334 333 334 332 332 333 335 336 335 334 336 335 332 332 332 330 326 324 324 323 324 325 326 327 328 330 331 333 331 331 337 339 337 334 332 330
331 329 329 330 331 333 332 332 332 332 329 330 333 336 333 334 334 334 334 333 333 331 326 325 324 323 322 323 323 325 326 327 329 329 331 331 328 332 336 336 334 332 330
333 332 329 329 330 331 331 330 331 331 330 329 331 334 332 332 332 333 333 331 332 330 324 324 322 322 322 323 322 324 325 326 327 329 329 330 330 327 330 333 334 332 330
333 333 333 332 331 331 332 331 331 331 331 330 331 333 331 331 330 331 331 330 331 329 325 323 323 323 322 324 322 321 324 325 326 328 329 329 329 330 328 329 331 331 330
333 334 334 334 332 332 333 333 331 331 331 330 331 332 331 330 329 330 331 330 329 328 327 326 324 322 321 323 323 322 322 322 326 329 328 328 328 327 326 326 326 327 328
332 334 335 335 334 333 335 335 334 333 332 332 331 331 330 331 329 328 327 327 328 327 327 326 325 325 321 323 324 324 325 324 325 325 327 328 328 326 324 324 325 324 324
307 329 334 334 334 335 334 332 331 330 331 331 332 331 330 330 329 328 327 325 328 327 326 325 324 323 323 324 322 321 323 323 323 326 327 327 326 325 323 322 323 323 324
303 308 320 332 333 335 335 334 333 333 333 333 333 331 331 329 329 329 328 326 327 327 326 325 325 324 324 324 319 319 314 316 320 324 325 325 325 323 322 321 322 322 324
298 300 309 326 332 333 334 334 328 329 328 329 330 330 330 329 329 328 329 328 327 327 326 326 326 325 321 322 322 319 312 311 314 318 321 323 322 321 322 321 321 322 322
295 299 301 312 326 333 335 333 330 329 327 330 331 332 331 329 331 330 329 328 327 328 327 327 327 325 324 319 322 323 319 317 313 308 316 319 321 320 319 320 320 320 321
295 297 299 306 307 309 314 333 331 330 329 325 327 330 330 330 330 330 330 329 328 328 328 327 326 325 325 323 321 320 320 317 316 312 309 313 317 320 319 319 320 320 320
294 296 298 302 302 304 308 310 325 330 328 325 325 327 328 329 328 330 330 330 329 328 328 327 327 326 325 325 324 323 320 317 314 313 312 314 314 316 319 318 318 319 320

GFSSE_sfc_thetae_117.txt.gz
Theta_e
340 350 349 352 352 351 350 350 350 352 354 355 354 353 353 354 353 354 355 355 356 356 356 355 355 356 356 356 355 354 353 351 351 352 352 352 351 351 350 351 349 348 350
344 351 348 351 351 351 351 350 350 352 354 355 354 353 353 353 353 354 354 355 353 356 355 355 355 355 356 353 352 351 350 349 349 350 351 351 350 351 349 349 348 348 349
346 350 351 349 351 351 351 351 351 353 354 355 354 354 353 353 353 353 354 354 355 356 355 354 354 354 354 351 350 349 349 348 348 349 349 348 347 349 349 349 348 349 348
347 349 351 348 349 350 350 350 351 353 354 354 354 354 353 353 353 353 353 352 353 354 355 353 352 352 352 349 348 348 348 347 346 346 348 346 347 348 348 348 348 348 347
347 349 351 347 348 349 349 350 350 351 351 352 353 354 354 354 354 353 351 351 353 354 354 353 352 351 348 346 346 346 346 345 343 345 345 346 348 346 347 347 347 347 346
346 348 347 345 347 349 349 350 350 349 349 349 351 353 354 354 354 352 350 351 353 354 354 354 352 348 345 345 345 344 343 342 342 346 343 345 345 347 347 346 344 345 345
346 348 349 343 346 348 350 350 349 348 348 349 350 351 352 353 352 349 348 349 351 352 353 352 349 346 344 343 343 342 341 340 346 344 342 345 345 346 346 344 344 344 344
345 348 349 345 345 346 348 348 346 345 347 348 348 350 351 351 349 348 347 348 348 349 349 347 345 344 343 342 341 339 338 339 343 343 344 343 345 345 345 344 343 341 342
345 346 348 349 348 343 343 343 343 343 345 346 346 347 348 346 345 345 346 347 347 346 346 345 343 342 342 341 339 337 336 337 344 343 342 344 343 344 344 343 343 341 341
342 343 344 345 347 349 350 341 341 342 342 343 345 344 343 343 343 343 343 344 345 345 344 343 341 341 340 339 337 336 335 335 344 342 343 344 341 344 343 341 340 340 338
336 339 341 341 343 347 345 346 343 343 342 342 344 342 341 350 348 346 342 341 342 341 341 340 340 339 337 337 337 335 334 343 342 342 344 339 341 343 342 340 338 338 337
333 335 337 338 340 342 342 344 346 346 348 348 349 349 351 350 349 346 341 338 339 338 338 338 337 336 337 344 342 336 339 339 340 337 340 334 340 343 341 339 337 336 336
333 335 334 336 339 340 341 342 342 344 345 346 348 349 348 346 346 345 344 342 343 338 340 338 338 342 342 343 342 342 341 338 340 338 335 334 338 341 340 337 336 334 334
331 333 334 336 336 338 340 339 339 341 341 342 345 348 344 340 341 343 341 342 341 341 340 338 336 337 339 340 340 340 340 337 340 338 335 333 336 339 339 337 335 333 332
331 333 334 334 334 335 337 337 337 338 339 339 342 343 344 340 339 342 341 340 339 340 339 338 336 335 335 338 339 338 337 339 339 340 340 331 333 337 338 338 336 333 331
335 334 335 334 333 335 335 336 336 337 338 338 339 341 343 341 339 338 339 339 339 339 335 337 336 335 334 336 336 337 336 338 339 339 340 337 329 331 335 337 336 334 332
333 336 335 336 337 335 334 335 334 335 338 341 339 340 341 340 337 338 338 338 339 338 334 337 336 336 333 333 334 334 335 336 336 336 337 338 333 328 330 334 334 334 332
323 336 336 335 336 336 335 334 334 336 339 340 339 337 337 339 339 337 336 336 339 334 333 335 332 332 333 332 331 332 333 334 335 336 336 336 337 333 329 330 331 332 332
317 334 337 337 335 337 337 337 337 337 338 339 339 336 335 338 339 337 335 335 335 334 331 332 329 331 329 331 330 331 332 332 332 333 333 334 335 335 332 328 328 328 330
314 333 339 337 337 337 337 336 336 335 336 337 338 338 336 337 338 337 335 334 333 331 329 331 329 331 332 332 327 327 329 330 332 331 331 332 334 334 332 328 329 328 324
315 330 337 337 336 335 334 332 330 329 331 332 337 338 336 335 336 337 333 332 331 330 329 330 329 328 328 332 327 324 326 328 327 328 329 329 331 331 331 327 328 329 327
307 313 335 338 338 335 335 335 336 334 334 333 334 335 336 337 335 335 334 330 330 329 329 328 328 325 326 328 322 321 316 320 323 327 329 328 329 330 327 325 325 328 328
303 306 313 332 339 338 337 336 336 335 335 333 332 332 333 337 336 336 334 333 330 330 328 328 327 328 323 325 326 322 315 313 318 322 325 326 327 326 327 327 323 325 328
300 304 310 317 335 337 336 336 333 332 329 332 333 333 332 334 335 336 334 333 332 331 330 328 328 329 328 324 324 325 325 321 315 313 319 323 326 324 325 326 323 323 326
299 300 304 309 309 313 328 335 332 333 334 334 334 332 333 333 334 335 334 332 332 331 331 330 329 328 330 329 325 323 325 323 322 315 312 316 321 324 325 324 324 323 325
297 298 301 305 305 307 311 314 328 333 333 330 332 331 332 333 332 334 334 333 333 333 333 333 331 330 330 329 326 325 323 320 317 316 314 315 316 319 323 322 322 322 323

GFSSE_sfc_thetae_120.txt.gz
Theta_e
342 354 350 352 352 352 351 351 352 353 354 355 354 354 354 354 354 355 355 356 357 359 358 356 356 355 355 354 355 354 354 353 352 353 352 352 351 350 351 351 350 348 350
346 355 349 351 351 351 351 351 352 354 355 355 354 353 354 354 354 355 355 356 356 357 356 355 355 357 356 356 354 353 352 350 350 351 351 350 350 349 349 349 349 348 350
349 354 354 349 350 351 352 352 353 355 356 355 354 353 354 354 354 355 355 355 353 356 356 354 354 356 355 353 351 351 350 350 349 349 350 349 350 350 349 349 349 349 350
349 354 354 348 349 350 350 350 352 355 356 355 354 354 354 354 354 354 354 353 355 356 356 353 353 356 353 350 349 349 349 348 348 347 350 348 348 349 349 348 348 348 348
349 353 354 348 348 349 349 350 351 353 353 354 353 354 354 354 354 354 353 352 353 355 356 353 352 352 349 347 347 347 347 346 345 346 348 348 348 348 348 348 347 347 346
349 353 349 346 347 349 349 350 350 351 350 351 352 353 354 354 354 353 351 352 354 355 354 354 353 349 346 345 345 345 344 343 342 347 347 348 347 348 348 347 346 346 346
349 353 354 343 346 348 349 350 349 348 349 350 352 352 353 353 353 351 350 351 353 352 353 353 349 347 345 344 344 343 342 341 348 345 345 347 348 347 347 346 345 345 345
350 353 354 347 346 347 348 348 346 346 347 348 350 351 352 351 350 349 349 350 350 350 349 348 346 345 344 343 343 341 339 340 344 343 345 346 346 346 346 345 344 343 343
352 354 355 354 351 344 344 344 343 344 346 347 347 348 349 347 346 347 347 348 348 348 348 346 344 343 343 342 340 338 337 339 346 345 344 343 344 345 345 344 343 343 343
351 353 354 355 354 354 353 342 342 343 343 344 345 345 344 344 345 345 345 346 347 346 345 344 343 342 342 340 339 337 335 336 346 344 344 347 343 344 344 342 342 343 342
346 349 352 352 350 353 353 350 344 343 343 343 345 343 343 351 351 349 344 343 344 343 343 342 341 340 339 338 337 335 336 346 346 345 346 337 341 343 343 342 342 340 340
340 344 347 348 346 349 346 351 352 350 349 350 350 352 351 351 350 346 343 340 341 340 340 340 339 337 338 345 344 338 345 345 346 345 342 335 340 342 342 340 339 339 338
333 340 342 342 343 343 348 346 347 347 348 349 351 351 351 350 350 348 347 345 346 340 344 342 343 344 343 343 342 343 344 344 344 345 339 335 338 337 338 338 337 336 336
326 336 341 343 342 342 346 346 347 344 347 347 348 350 350 349 348 347 345 344 345 344 343 343 342 343 343 343 343 342 343 343 342 344 340 332 335 337 340 339 337 336 334
316 329 339 342 341 339 346 344 344 344 345 346 346 350 350 345 346 346 345 343 343 342 343 342 341 340 341 341 341 341 341 342 342 344 342 331 333 336 339 339 337 335 332
315 322 338 341 342 340 343 344 343 343 344 344 344 347 351 346 345 346 344 343 342 342 343 342 341 339 338 339 339 340 339 340 341 341 342 341 330 333 336 337 336 336 333
313 316 330 341 342 340 339 343 342 341 341 341 343 346 346 346 344 346 344 344 342 342 343 343 341 340 338 338 338 339 339 340 340 340 341 340 338 328 331 334 335 334 334
310 313 319 336 341 340 341 341 340 340 340 346 346 344 344 344 344 343 341 340 344 341 340 340 339 338 337 337 336 336 336 337 338 338 340 340 340 337 330 330 332 332 334
309 313 316 329 340 340 341 341 341 341 342 342 344 342 342 343 342 341 340 341 344 341 338 339 338 338 335 335 335 335 336 335 335 334 336 338 339 339 337 329 328 328 330
309 314 316 320 341 341 342 341 339 339 340 341 342 343 340 341 340 340 340 340 340 339 337 335 335 338 336 335 332 332 334 334 335 335 335 336 337 338 337 336 332 329 326
310 315 317 318 335 341 338 336 335 334 337 338 340 342 343 340 340 340 338 338 338 336 334 334 334 334 334 336 331 330 331 332 331 331 333 335 334 335 335 336 335 331 328
313 315 319 322 327 339 340 338 336 336 336 337 339 341 343 338 339 339 338 337 335 335 334 334 331 331 332 334 329 327 323 327 328 331 331 331 334 335 333 334 333 330 328
311 313 316 326 328 338 338 339 337 338 337 335 336 338 340 341 338 338 339 336 335 334 334 333 331 331 328 330 332 329 322 319 324 329 331 331 333 334 333 333 331 330 328
304 307 314 323 330 337 337 337 334 335 332 336 336 337 336 339 340 337 338 337 336 334 334 333 333 331 332 325 329 332 332 328 320 319 324 330 330 330 332 331 330 329 331
298 300 307 312 312 316 336 337 334 338 338 339 338 337 336 337 340 339 338 336 335 336 335 335 331 331 332 331 330 328 330 329 329 323 318 320 325 329 332 331 330 331 330
296 297 301 306 306 310 315 326 335 333 337 338 336 336 335 335 335 336 340 338 337 335 334 334 333 333 332 332 331 331 329 326 325 323 321 321 321 323 327 331 331 329 331

GFSSE_sfc_thetae_123.txt.gz
Theta_e
340 356 351 352 353 353 352 353 354 354 354 355 354 354 355 355 355 355 355 356 357 360 358 357 356 355 352 351 352 353 353 353 352 353 353 353 352 351 350 350 349 347 350
344 357 349 351 352 353 352 353 354 354 355 355 354 354 354 354 355 355 356 356 357 359 357 356 355 354 353 355 354 354 353 351 351 351 352 352 349 348 348 348 347 348 350
345 357 354 350 351 352 353 353 354 355 356 356 354 354 354 354 355 355 356 356 356 358 357 354 353 353 355 354 352 352 351 351 349 350 351 346 346 349 349 349 348 349 349
346 355 354 349 350 351 351 352 354 356 356 355 355 354 354 355 355 355 355 354 354 357 355 353 353 355 354 351 350 350 350 349 349 348 349 345 345 349 350 348 349 349 349
347 353 354 348 348 350 350 351 353 355 354 354 353 355 355 355 355 355 353 352 353 355 354 353 352 354 350 348 348 348 348 347 346 346 347 347 346 348 349 349 348 347 347
347 353 347 346 347 349 350 350 352 353 352 352 352 354 355 355 355 354 352 353 353 354 355 354 352 350 347 346 346 346 346 345 344 349 344 347 347 348 349 347 345 346 346
346 353 355 344 346 349 350 350 351 350 350 351 352 352 353 354 354 352 351 352 353 354 354 351 350 347 345 345 345 344 343 343 347 345 345 347 347 347 347 346 346 345 346
346 352 357 348 346 347 348 348 347 348 349 350 350 351 352 351 349 350 350 351 351 351 350 349 347 346 345 344 344 342 341 341 345 344 345 346 346 346 346 345 345 344 344
353 353 356 355 350 345 344 344 344 345 347 348 349 349 349 347 347 348 349 350 350 349 348 347 345 344 344 343 342 340 339 341 346 346 343 347 345 345 346 344 343 343 344
350 355 356 356 354 352 352 343 343 343 344 345 347 347 345 345 346 346 346 347 348 348 347 345 343 343 343 341 340 338 336 339 345 343 344 346 343 344 345 344 343 343 343
343 351 355 355 354 354 353 350 344 344 344 344 346 345 343 350 351 350 346 344 346 345 344 343 342 341 340 340 339 337 337 343 344 346 347 337 342 342 343 342 342 342 341
321 342 350 353 353 353 349 353 351 349 348 350 350 351 350 349 350 347 344 342 343 342 341 341 340 339 338 344 344 338 343 343 344 346 344 338 340 341 342 342 342 341 340
317 321 345 349 350 348 350 348 349 348 347 349 350 353 351 349 353 348 351 346 347 342 344 342 342 344 343 343 342 341 341 343 342 346 340 336 340 339 339 337 338 338 339
315 318 332 346 346 346 348 346 347 345 347 346 348 351 352 350 350 348 345 346 348 345 344 342 341 342 343 344 342 344 342 341 340 343 341 333 337 338 337 338 336 336 336
311 317 325 339 345 345 347 346 346 347 346 346 347 351 352 349 349 346 347 345 345 344 344 341 343 343 341 342 343 339 340 340 342 341 346 332 334 336 336 338 338 336 335
311 313 325 329 346 345 344 350 348 349 346 347 348 348 353 350 350 348 346 344 344 345 344 343 341 339 340 341 340 340 339 341 341 342 343 338 331 333 337 339 337 337 334
310 311 319 328 344 346 344 344 346 344 345 344 346 348 351 350 351 350 345 345 344 345 344 343 343 341 339 338 338 339 338 340 340 340 341 342 336 328 331 336 336 336 334
309 310 315 317 326 347 345 343 344 343 344 344 345 345 348 349 347 349 345 344 345 343 343 342 341 338 338 337 337 337 337 337 338 338 339 339 341 338 330 331 333 334 334
309 310 313 319 323 337 346 344 346 347 343 342 345 344 345 346 346 345 344 344 348 343 343 341 341 340 336 336 335 338 339 337 337 334 336 338 340 340 339 329 329 329 331
309 311 313 315 322 326 345 343 342 342 341 341 343 344 346 344 344 344 342 342 344 342 338 341 340 340 338 335 332 333 338 336 337 335 335 335 336 338 339 337 334 331 326
309 309 310 313 321 324 340 340 340 338 339 340 340 345 345 343 342 342 341 341 342 341 338 338 339 338 336 339 334 333 334 335 335 335 336 336 335 336 337 339 335 334 330
313 314 315 315 317 322 324 341 341 339 339 340 340 344 347 343 341 342 340 339 339 337 337 338 337 335 337 339 332 329 324 327 331 332 333 333 335 335 334 335 335 333 333
305 308 312 314 316 320 326 337 337 341 339 337 337 340 344 343 340 340 341 339 338 338 335 337 336 335 332 336 336 329 321 319 324 332 330 332 333 334 334 334 333 334 333
299 302 305 309 314 319 325 328 334 335 333 334 337 339 342 345 340 340 340 338 337 336 335 335 337 336 335 328 331 334 336 330 321 319 328 330 331 330 333 333 332 333 332
296 296 298 303 312 314 318 326 337 333 338 338 339 339 342 344 342 339 339 338 336 335 335 336 334 335 336 331 328 330 331 332 332 324 319 324 328 329 332 335 333 333 332
295 295 296 300 305 307 314 329 340 333 337 333 337 339 339 339 340 343 339 339 338 336 334 335 335 335 334 334 331 332 331 328 326 325 323 324 323 326 328 330 334 332 334

GFSSE_sfc_thetae_126.txt.gz
Theta_e
349 349 350 352 353 353 353 354 354 354 354 355 354 354 355 355 355 354 355 356 358 359 358 357 356 355 352 351 353 353 351 352 352 352 352 352 353 352 352 351 349 346 349
353 351 348 351 352 353 353 354 354 354 354 355 354 354 354 354 354 355 355 356 358 359 358 357 356 355 353 354 353 353 351 351 350 352 352 352 351 350 350 349 349 347 350
352 352 351 350 352 352 353 354 355 355 355 355 354 354 354 354 355 355 355 355 357 358 357 356 354 354 355 354 351 351 351 350 350 350 350 344 345 350 348 349 349 350 350
346 353 352 349 351 352 352 353 354 356 356 355 354 354 354 354 355 355 355 354 355 357 355 354 353 355 354 351 350 349 349 349 348 348 346 344 343 350 350 349 349 349 349
347 355 353 348 348 351 351 352 354 355 354 354 353 354 354 355 355 355 353 353 354 356 356 352 353 353 350 348 348 348 348 346 344 346 341 336 344 347 349 349 347 348 347
348 354 345 346 347 349 351 352 353 353 352 352 352 354 354 355 355 354 352 352 353 355 355 353 353 350 347 346 346 346 346 344 344 344 340 343 345 349 349 347 346 346 345
350 353 350 344 346 348 350 351 352 351 351 351 352 352 353 354 354 352 351 351 352 352 354 351 350 347 345 345 345 345 344 343 343 342 330 332 343 349 347 347 345 344 346
350 357 350 347 347 347 348 348 348 349 350 350 351 351 352 352 352 351 350 350 350 351 350 349 347 346 345 344 344 343 341 341 343 341 341 341 345 347 346 347 344 343 345
353 357 355 351 348 345 344 344 344 346 348 348 349 349 350 348 348 349 349 349 350 349 348 347 345 344 344 343 342 340 339 340 338 341 342 343 344 347 345 345 344 343 344
350 356 357 354 350 349 348 343 343 344 345 346 347 347 345 345 346 347 346 348 349 348 347 345 344 343 343 341 340 339 337 339 339 340 341 342 344 346 345 344 344 343 342
329 345 355 352 352 351 350 347 344 344 344 344 346 345 341 348 347 346 346 344 346 344 345 344 342 341 340 340 339 338 338 339 338 340 341 338 343 343 343 344 343 342 341
320 326 352 353 350 352 350 350 347 346 346 348 349 348 349 348 348 346 344 342 343 342 342 341 340 339 338 340 338 336 338 339 339 339 337 338 342 342 341 340 339 341 341
312 319 324 352 349 348 350 350 348 346 345 346 347 349 348 347 347 344 344 343 344 341 341 340 339 340 340 339 339 338 338 339 338 337 333 337 341 339 335 336 337 338 339
310 314 319 333 349 347 348 346 349 346 345 345 346 348 345 345 345 344 344 344 343 342 340 339 339 339 338 339 339 339 339 338 338 337 333 334 338 336 334 338 337 337 337
308 311 315 323 347 346 345 344 346 346 344 344 346 347 347 345 345 343 343 343 342 342 341 338 337 337 338 337 339 338 338 337 338 339 334 333 334 337 335 336 338 338 336
309 309 313 315 326 345 343 342 344 343 345 346 345 346 347 346 345 343 342 342 341 342 340 339 337 337 336 337 335 337 334 337 337 339 336 332 332 334 336 338 338 338 337
308 309 312 316 319 331 343 343 342 344 344 342 346 346 347 348 345 343 342 341 341 341 340 340 338 338 336 336 335 336 336 336 336 337 338 334 330 329 331 336 337 338 337
310 309 312 313 314 317 338 342 341 340 343 343 344 346 346 347 346 344 342 341 342 341 339 338 336 335 334 334 333 334 334 334 335 335 337 336 333 332 329 332 334 336 336
310 312 312 314 315 318 320 341 340 340 342 343 341 340 345 346 345 344 342 341 342 339 338 337 336 334 332 333 333 333 333 333 334 334 334 336 334 333 331 329 329 330 332
307 310 312 313 315 319 318 333 339 339 339 341 341 341 343 344 343 342 342 341 342 338 336 337 335 336 333 331 331 329 332 332 332 331 332 334 336 333 332 331 329 327 327
303 305 308 309 313 314 311 326 333 334 334 338 339 341 342 342 343 340 339 340 340 338 336 336 335 333 332 333 328 328 328 330 330 330 329 330 331 334 332 332 330 330 327
299 301 303 304 306 309 313 316 327 332 334 336 338 339 342 341 341 340 338 338 338 336 336 335 335 332 332 333 326 325 318 323 326 329 328 329 329 330 332 331 331 330 329
295 297 299 300 302 305 308 313 315 319 333 332 335 335 342 341 341 340 338 336 337 335 335 334 333 332 329 331 331 324 316 314 320 326 327 327 327 328 328 329 331 331 331
292 295 297 298 299 302 307 309 314 314 315 330 333 335 340 341 340 339 338 337 335 335 333 334 333 333 331 328 330 330 327 326 317 316 324 326 327 326 326 328 329 331 331
291 292 294 296 297 300 303 309 309 311 315 324 333 332 336 339 339 338 337 336 335 334 334 333 332 332 331 330 328 324 326 326 326 320 314 318 323 324 326 327 328 329 330
290 290 291 293 296 299 303 305 310 312 315 319 331 330 334 338 336 336 336 336 335 333 333 333 332 333 331 331 329 327 325 323 323 321 317 317 318 321 324 327 327 328 328

GFSSE_sfc_thetae_129.txt.gz
Theta_e
344 348 350 352 353 353 353 353 352 352 353 354 354 354 354 354 353 354 355 357 357 358 357 356 356 354 353 352 351 350 350 349 349 351 352 354 353 352 352 352 350 348 351
347 349 348 351 352 353 353 353 352 352 354 354 354 354 353 353 353 353 355 356 357 358 356 355 355 354 353 351 350 350 350 348 347 348 351 353 354 352 351 350 348 348 350
347 349 349 349 351 352 353 354 354 354 355 354 354 354 353 354 354 353 353 355 356 357 356 355 355 352 352 351 349 349 350 349 347 347 347 343 346 351 349 350 348 350 350
349 348 348 348 350 351 352 353 354 355 355 354 354 354 354 354 354 354 353 353 355 355 356 354 353 354 352 349 348 349 348 347 346 346 341 342 343 348 350 350 350 349 350
350 350 349 347 348 350 351 352 353 354 353 352 353 354 354 354 354 354 352 351 353 355 355 353 354 353 349 347 346 347 347 345 345 339 338 339 342 346 349 349 349 347 346
349 351 344 345 347 349 350 351 352 352 350 350 351 353 354 354 354 353 350 351 353 355 355 353 353 349 346 345 345 345 345 343 340 336 336 336 342 343 347 348 347 345 346
348 347 346 343 345 348 350 351 351 350 349 349 350 351 352 353 353 351 349 350 351 352 353 351 350 346 345 344 344 344 343 341 340 334 334 333 337 344 347 348 346 345 346
346 348 346 347 346 346 347 348 348 348 348 348 349 350 351 351 350 350 349 349 349 349 349 348 346 345 344 343 343 342 341 341 341 332 333 331 339 345 347 347 344 344 344
341 348 345 345 346 345 343 343 344 346 347 347 348 348 349 348 347 348 348 348 348 348 347 346 344 343 343 342 342 340 338 339 339 335 338 340 345 346 346 346 345 344 344
325 341 346 344 344 343 341 342 342 343 344 345 346 345 345 345 346 346 346 346 347 347 346 344 343 342 342 341 340 338 337 338 337 337 340 340 344 347 345 345 346 344 342
310 312 342 345 344 344 343 343 343 344 344 344 345 344 341 345 345 346 344 344 345 345 344 342 341 340 340 339 339 337 338 337 336 336 335 339 344 346 345 344 344 343 342
303 305 324 342 344 344 346 343 340 341 341 343 345 344 343 343 344 345 343 341 343 342 342 340 340 338 337 337 336 337 335 336 336 336 334 338 343 345 344 342 340 341 340
302 305 306 327 341 344 345 343 341 341 341 342 343 343 343 344 344 343 340 342 341 340 340 339 339 338 337 336 335 334 335 336 335 335 335 337 341 343 342 340 338 337 338
302 304 307 308 332 340 341 342 343 342 340 340 342 342 343 341 340 339 339 340 340 339 336 336 336 336 336 337 336 336 335 335 339 334 333 334 338 340 341 341 339 337 337
304 305 306 307 313 334 341 340 339 344 342 341 341 342 343 341 339 339 339 340 340 339 337 335 335 336 334 335 336 337 336 335 337 334 331 332 332 336 340 341 339 339 337
305 306 309 311 307 320 338 339 337 339 342 341 341 342 343 341 339 339 339 339 339 338 337 335 335 334 333 333 333 336 335 336 337 336 332 332 332 333 337 339 339 339 339
302 303 307 309 311 310 332 339 339 338 340 338 341 342 343 341 339 338 338 337 338 338 336 335 333 333 332 334 333 335 333 335 335 337 333 331 331 329 331 335 337 339 339
299 300 303 306 308 309 311 329 338 338 338 339 338 341 343 342 341 338 338 337 337 337 336 335 332 331 332 334 332 333 333 333 333 336 335 332 331 332 328 331 334 336 337
296 297 298 301 303 305 306 312 327 335 336 338 338 341 340 342 341 339 338 337 338 336 333 334 331 330 330 332 332 333 333 332 333 335 336 333 330 330 328 328 330 331 333
295 296 296 298 300 302 304 307 314 330 336 336 337 339 341 342 342 340 338 336 338 336 334 333 331 329 329 328 331 331 331 329 333 332 333 335 333 331 329 328 329 329 328
294 294 294 295 297 299 299 301 304 309 320 331 334 338 337 341 342 341 337 336 337 335 334 333 330 329 328 329 327 326 328 329 330 330 331 328 332 332 330 329 328 328 327
291 291 292 293 294 296 298 299 302 306 313 318 330 335 338 337 341 340 338 336 337 335 332 332 331 327 328 328 324 319 315 319 325 327 325 326 326 329 330 330 328 327 327
288 289 291 292 292 294 296 298 301 304 311 315 319 329 334 338 339 340 337 337 335 335 333 333 331 330 327 327 326 321 315 312 317 321 323 324 325 325 328 329 328 328 327
287 289 289 290 290 293 295 296 298 300 304 308 313 318 327 336 338 339 337 336 335 334 334 332 332 330 329 325 324 326 321 319 312 313 319 322 324 324 324 326 328 328 328
287 287 289 289 289 292 295 297 299 301 304 307 310 314 317 330 337 337 337 335 334 334 332 333 331 330 331 329 327 322 322 320 321 318 311 316 320 323 324 324 327 328 329
286 286 287 287 289 291 294 297 299 300 302 305 308 312 314 321 333 337 337 335 335 334 333 332 332 331 330 330 329 323 323 324 320 317 314 313 317 318 325 325 325 327 328

GFSSE_sfc_thetae_132.txt.gz
Theta_e
343 348 350 352 353 352 351 350 350 351 353 353 353 353 353 354 354 355 355 356 357 358 357 356 355 354 354 350 351 350 350 349 349 351 353 353 352 352 351 351 351 349 351
345 348 348 351 352 353 353 351 351 351 353 353 353 353 352 353 353 354 355 356 357 357 355 353 354 354 351 351 349 349 348 348 348 349 351 352 351 350 351 350 349 349 350
345 348 349 349 351 353 353 353 352 353 354 353 353 352 352 353 353 353 354 355 356 357 354 353 353 352 351 350 348 348 348 347 346 348 347 341 345 350 349 349 349 349 350
347 347 347 348 350 352 352 353 353 354 354 353 353 353 353 353 353 353 353 353 355 356 356 354 353 352 351 348 347 347 347 346 340 341 339 340 343 345 347 349 349 349 349
346 348 348 346 348 350 351 352 352 353 352 352 352 353 353 353 353 352 351 352 353 356 356 354 353 353 348 346 346 346 346 342 339 338 339 341 341 343 343 346 347 346 345
347 349 344 343 346 348 350 351 351 351 349 350 350 352 353 354 353 351 349 351 353 354 355 354 354 349 346 344 344 345 344 340 338 336 335 342 341 343 343 344 345 344 345
345 345 345 341 344 347 350 351 351 350 348 349 350 351 352 353 353 350 348 350 351 352 353 352 350 346 344 343 344 343 342 339 336 332 332 337 341 343 344 345 344 346 346
345 344 345 346 345 345 346 348 347 347 347 347 348 349 351 351 350 349 348 348 348 349 349 348 346 344 343 343 342 341 339 339 336 333 332 330 341 344 344 345 343 343 345
340 343 343 343 345 343 342 342 343 345 346 346 346 347 347 346 346 347 347 347 347 347 346 346 344 343 343 342 341 338 337 338 335 330 332 329 340 344 344 345 343 343 344
308 319 341 341 342 341 341 341 341 342 343 344 345 344 343 344 345 345 344 345 346 346 345 344 342 341 341 340 339 336 336 337 335 333 333 333 339 345 344 345 346 344 343
305 304 325 342 341 340 340 342 342 343 343 342 344 343 341 344 344 345 343 342 344 344 343 342 341 339 338 338 338 337 336 336 335 334 335 338 344 347 346 345 343 343 342
302 304 305 315 335 341 344 341 339 340 341 344 344 345 345 341 342 345 343 340 342 341 341 340 339 338 337 336 335 336 334 335 334 334 332 337 343 346 345 344 342 341 341
304 306 308 310 312 325 340 341 338 338 338 340 341 343 342 342 341 342 341 342 341 340 340 338 337 338 336 334 333 333 333 334 333 333 334 335 342 345 345 344 343 342 340
301 303 304 307 309 310 312 336 339 338 338 338 341 342 343 341 339 339 339 339 340 340 337 337 337 336 334 334 334 333 333 333 333 332 333 334 338 343 344 342 340 340 338
298 300 301 304 306 307 310 313 330 339 339 339 339 342 343 342 339 338 338 339 340 339 336 335 333 334 333 333 334 334 333 334 335 331 332 332 334 338 342 342 340 339 338
297 297 299 300 302 304 305 307 309 328 340 339 339 340 343 342 340 338 338 338 338 338 336 335 334 333 332 332 332 334 334 335 336 333 331 332 330 333 337 341 340 340 339
295 295 297 298 300 300 302 304 306 311 328 337 339 339 340 342 340 338 338 337 338 338 336 334 332 330 330 332 332 330 335 335 336 333 333 333 329 328 331 335 338 339 339
294 294 295 297 297 297 299 301 305 308 313 329 336 339 340 341 340 338 337 337 338 337 335 334 332 331 330 330 329 331 332 333 335 335 332 332 332 332 328 330 334 336 337
293 293 293 294 294 296 297 299 302 305 308 324 334 335 338 341 340 339 338 337 337 336 334 334 332 331 329 330 330 332 332 331 332 335 332 332 331 330 330 328 329 330 334
291 291 291 292 293 294 295 297 298 301 305 309 316 333 335 338 340 339 338 336 336 335 334 333 332 331 330 331 332 331 328 331 332 333 333 333 331 330 329 328 330 329 327
289 289 289 290 291 291 291 292 294 295 299 303 312 317 329 334 336 338 337 335 336 335 334 333 331 329 326 326 328 326 327 329 329 331 332 333 330 328 327 326 327 330 329
287 287 288 289 289 290 290 291 293 295 298 303 305 313 323 325 333 336 337 335 336 335 334 332 330 326 327 328 324 324 319 321 324 328 329 327 328 330 328 327 326 327 328
285 286 287 288 288 289 290 291 293 295 298 301 306 311 317 323 327 334 336 336 335 335 333 331 331 329 325 324 325 321 314 313 315 320 321 322 324 324 327 327 326 326 326
285 286 287 288 288 290 291 291 290 291 293 298 303 307 309 315 320 327 334 335 335 335 333 332 332 330 328 325 322 324 319 317 314 311 317 320 322 323 323 325 327 326 326
285 286 287 288 288 289 290 291 291 293 296 299 302 303 306 310 317 320 319 332 335 335 335 333 331 330 330 328 327 323 322 319 318 313 310 314 318 322 324 324 326 327 327
286 287 287 287 288 289 291 292 293 294 295 297 299 301 304 309 314 318 318 316 334 335 334 333 332 331 330 329 329 326 325 321 316 316 312 312 315 317 324 324 323 326 327

GFSSE_sfc_thetae_135.txt.gz
Theta_e
342 347 349 352 352 351 350 350 350 350 352 353 353 354 354 355 355 355 356 356 357 358 357 356 355 354 351 350 351 350 350 349 348 351 351 352 351 351 351 351 351 347 351
343 347 348 351 352 352 351 350 350 351 352 353 353 352 353 354 354 354 355 355 357 357 356 354 353 352 350 350 349 348 347 348 348 349 351 351 350 349 348 349 349 347 350
344 347 348 349 351 352 352 351 351 352 352 353 352 352 353 354 354 354 354 354 355 355 353 352 351 351 349 349 347 347 347 346 346 348 348 342 342 346 346 347 347 349 349
345 346 347 348 350 351 351 351 351 352 352 352 352 352 352 353 354 354 353 353 354 355 354 351 351 351 350 347 347 347 346 344 343 344 339 339 341 344 344 343 346 347 349
344 346 346 346 347 350 351 351 351 352 351 351 351 352 353 353 353 353 352 351 354 356 355 352 352 351 347 345 345 345 344 341 339 339 337 337 339 344 344 343 343 345 346
345 346 343 344 346 348 350 350 351 351 349 349 350 352 353 353 352 351 350 351 353 355 355 353 353 348 344 343 344 344 342 339 338 335 336 341 341 344 344 342 343 343 343
343 343 343 341 344 347 349 350 350 349 348 348 349 350 351 352 352 349 348 350 351 353 353 353 350 346 344 343 343 342 340 338 334 332 333 336 340 344 342 341 343 342 343
343 343 343 345 344 344 346 347 346 347 347 347 348 349 350 350 349 348 347 348 348 349 348 349 346 344 343 342 342 340 338 337 335 331 330 332 341 343 342 343 343 342 343
316 315 335 340 343 342 340 341 342 344 346 346 346 346 347 346 346 347 347 347 347 347 346 346 344 342 342 342 341 338 336 337 333 330 331 328 342 345 345 344 345 343 343
306 308 309 314 329 339 339 340 340 341 342 343 344 344 343 343 344 344 344 345 345 346 345 344 342 341 341 340 339 336 335 336 333 329 329 328 337 345 345 344 343 344 343
306 306 307 310 311 312 329 341 342 342 342 340 343 342 340 344 343 344 343 342 344 343 343 342 341 339 338 338 337 336 335 334 333 331 331 335 337 344 345 345 344 343 343
300 302 302 304 308 310 312 314 334 340 342 341 344 344 344 343 342 344 342 340 341 341 341 340 339 337 337 335 335 336 333 334 333 332 332 335 341 344 346 345 343 342 341
299 299 300 301 304 305 307 311 314 333 337 340 342 342 342 342 342 343 341 341 340 340 339 338 336 337 336 333 333 332 332 332 332 332 332 334 342 345 346 345 343 341 341
296 296 297 298 300 300 303 306 309 311 326 338 339 341 340 340 340 341 341 341 342 341 340 337 337 336 334 332 331 331 331 331 331 331 331 333 337 344 345 344 342 341 340
294 295 295 297 297 298 299 301 303 305 310 319 337 340 340 340 338 339 339 340 340 341 339 337 336 334 332 332 332 331 331 331 332 331 330 332 333 339 344 344 342 341 339
293 293 295 295 296 296 296 298 299 301 306 309 319 337 339 339 340 339 339 338 339 339 338 337 334 332 332 332 331 332 332 332 333 330 330 330 330 334 340 343 342 340 339
291 292 292 294 294 293 294 296 297 299 303 305 311 322 337 337 338 339 339 338 338 338 337 335 332 330 330 330 331 331 332 332 335 331 330 330 329 328 331 337 340 340 339
289 289 291 292 292 292 293 293 295 297 299 302 306 316 326 334 337 336 338 338 339 337 336 334 332 331 329 329 329 329 330 331 335 333 332 333 328 328 327 331 334 337 338
288 288 289 289 290 291 291 292 293 295 297 301 305 307 312 327 335 336 336 338 339 337 336 334 332 331 328 327 328 327 329 330 333 334 332 332 332 330 327 328 329 330 333
288 288 288 289 290 290 290 291 291 292 295 298 300 303 308 314 320 335 336 336 336 336 334 334 331 330 329 328 329 327 328 328 332 333 331 332 331 331 328 327 327 328 327
287 287 287 287 288 289 288 288 288 289 291 294 297 301 305 306 316 327 335 334 336 334 335 333 331 328 325 329 326 321 323 325 326 330 332 330 330 330 327 326 327 328 328
286 286 286 287 288 289 289 289 290 290 291 293 296 299 302 307 317 324 331 333 334 334 334 331 330 329 328 328 323 322 317 322 323 326 325 328 328 327 326 325 325 326 328
284 285 286 288 288 289 290 291 291 291 292 292 295 298 303 310 311 314 321 330 331 334 333 331 331 328 326 324 323 320 312 313 315 319 323 324 324 326 326 325 324 325 326
284 286 287 288 288 289 290 289 289 288 288 291 293 297 301 306 308 311 316 323 329 333 333 332 332 330 327 324 320 322 319 317 314 311 315 318 320 323 325 325 325 325 325
285 286 287 287 288 288 289 289 289 289 291 293 294 296 298 301 304 308 313 319 318 320 329 332 331 329 329 326 326 320 320 318 314 312 310 314 317 320 323 325 325 325 325
286 286 286 287 287 288 288 289 290 289 290 293 295 295 297 300 303 309 315 316 318 316 321 326 331 329 328 328 326 326 325 321 318 314 310 310 316 316 322 321 322 325 325

GFSSE_sfc_thetae_138.txt.gz
Theta_e
339 345 349 351 351 350 350 350 350 350 352 353 355 355 355 355 354 354 355 355 356 358 357 355 355 354 352 352 351 350 349 348 349 352 352 351 350 350 350 348 349 347 350
342 346 348 350 351 351 351 350 350 350 352 353 353 354 354 355 355 355 355 355 357 358 356 355 354 353 351 351 349 348 348 347 348 350 351 350 350 350 349 349 348 346 350
344 346 348 348 351 352 351 351 351 352 352 352 352 353 354 354 355 355 355 355 356 357 356 354 352 351 350 348 347 347 346 346 347 348 349 344 344 348 348 347 347 346 349
344 345 345 348 349 351 351 351 351 352 351 352 352 353 353 354 354 354 353 352 354 356 355 353 351 351 350 347 346 346 346 346 346 345 342 341 343 347 346 346 347 347 346
344 344 345 346 347 349 350 351 350 351 350 351 351 352 353 354 355 354 352 352 353 354 354 352 352 352 347 345 345 345 344 342 342 340 338 339 341 343 344 346 346 346 344
344 345 342 343 345 348 350 350 350 350 349 349 349 351 352 353 354 353 350 351 353 354 354 353 352 349 345 343 344 344 341 340 339 337 338 342 341 345 345 345 344 344 343
314 323 342 341 344 346 348 350 348 348 348 348 348 350 351 352 352 350 349 349 350 352 354 352 350 346 344 343 343 342 339 338 334 334 336 338 340 346 345 344 344 344 343
308 310 313 319 323 332 343 343 344 345 342 346 347 348 350 350 349 348 348 347 347 348 348 348 347 344 343 342 342 340 337 337 334 331 334 336 341 345 344 344 343 343 342
306 305 307 309 313 317 325 334 339 341 344 344 343 345 346 346 345 346 346 347 346 346 346 346 345 343 342 342 341 338 336 337 332 332 331 332 341 343 341 344 343 343 343
303 302 301 304 307 307 310 319 325 339 340 342 342 342 342 343 344 344 344 345 345 345 345 345 343 341 341 340 339 337 335 336 333 331 331 329 338 344 344 343 343 343 343
300 299 299 300 303 304 307 312 315 320 337 341 341 339 337 342 341 343 343 342 344 343 343 343 341 339 338 338 338 336 336 335 333 330 329 332 336 345 346 345 343 344 343
296 296 297 298 300 300 303 305 307 310 318 333 340 341 339 341 343 341 342 340 341 341 340 340 339 337 337 336 336 336 335 334 334 333 332 335 337 343 345 343 343 342 341
294 295 296 296 297 297 298 301 302 305 308 313 329 338 340 342 340 340 341 341 339 339 339 338 337 336 335 334 334 333 333 333 333 333 333 334 339 343 345 345 344 342 341
292 293 294 294 295 295 296 297 300 301 303 306 310 316 337 339 338 338 340 341 341 341 340 338 336 337 336 333 333 332 332 332 332 332 332 331 336 344 345 345 344 343 342
290 291 292 293 293 293 294 295 296 297 300 303 306 309 320 335 338 339 339 339 339 341 340 338 337 336 333 332 332 332 331 331 332 332 331 330 333 340 345 344 344 342 341
289 289 291 291 292 292 292 293 293 295 297 300 302 306 310 319 334 337 337 338 338 339 339 337 336 334 332 332 331 331 331 331 332 332 331 332 330 334 339 344 343 343 340
288 289 289 291 291 291 291 291 292 293 295 297 299 302 305 313 316 332 335 335 337 338 338 336 335 334 331 332 331 331 332 331 332 332 331 331 331 329 332 338 340 341 340
287 287 289 290 290 290 290 290 291 292 293 294 297 300 303 306 310 315 332 334 337 338 337 335 333 331 330 330 330 330 331 331 332 332 331 331 330 332 329 331 335 337 338
287 287 287 288 289 289 290 290 290 291 291 293 295 297 299 302 306 313 316 333 336 336 335 334 332 332 329 329 329 328 330 330 331 333 331 331 329 329 329 328 329 331 334
287 287 287 288 289 289 289 290 290 290 291 292 292 294 297 299 303 306 308 316 335 334 334 334 332 332 331 330 328 327 327 329 331 331 331 332 332 330 328 327 330 329 328
286 286 286 287 288 288 288 288 288 288 290 291 293 294 296 297 300 301 304 314 327 325 331 333 332 330 328 329 324 323 324 325 326 330 331 331 330 330 328 328 328 329 329
285 285 286 287 287 288 289 289 290 289 291 292 293 294 296 298 301 305 309 314 318 324 320 333 331 328 328 328 324 322 318 320 325 327 329 329 329 330 328 328 327 327 328
284 285 287 287 288 289 289 289 289 290 291 291 292 292 295 297 299 302 307 308 313 320 325 329 331 330 325 327 326 320 313 315 317 321 326 327 326 327 327 326 326 327 327
285 287 287 287 287 288 288 288 288 287 286 290 291 293 295 296 297 300 304 305 309 317 324 327 331 331 328 325 326 325 320 317 316 312 317 322 326 325 325 325 325 325 326
286 286 287 287 288 288 288 288 288 288 289 290 292 293 295 297 298 300 301 303 307 314 317 324 327 329 329 327 325 324 318 316 315 314 311 315 320 323 326 326 326 325 325
285 286 286 286 286 287 288 287 288 288 288 289 291 292 295 298 299 301 302 304 311 314 314 318 324 320 322 328 327 326 324 319 314 313 311 312 317 317 323 324 325 326 326